GEFSSGP_con_probscp_000.txt.gz
Probability
0 0 0 0 0 0 0 0 0 0 0 0 0 0 0 0 0 0 0 0 0 0 0 0 0 0 0 0 0 0 0 0 0 0 0 0 0 0 0 0 0 0 0 0 0 0 0 0 0
0 0 0 0 0 0 0 0 0 0 0 0 0 0 0 0 0 0 0 0 0 0 0 0 0 0 0 0 0 0 0 0 0 0 0 0 0 0 0 0 0 0 0 0 0 0 0 0 0
0 0 0 0 0 0 0 0 0 0 0 0 0 0 0 0 0 0 0 0 0 0 0 0 0 0 0 0 0 0 0 0 0 0 0 0 0 0 0 0 0 0 0 0 0 0 0 0 0
0 0 0 0 0 0 0 0 0 0 0 0 0 0 0 0 0 0 0 0 0 0 0 1 1 1 0 0 1 0 0 0 0 0 0 0 0 0 0 0 0 0 0 0 0 0 0 0 0
0 0 0 0 0 0 0 0 0 0 0 0 0 0 0 0 0 0 0 0 0 0 1 3 4 3 1 0 0 0 0 0 0 0 0 0 0 0 0 0 0 0 0 0 0 0 0 0 0
0 0 0 0 0 0 0 0 0 0 0 0 0 0 0 0 0 0 0 0 0 1 1 3 4 3 2 1 1 0 0 0 0 0 0 0 0 0 0 0 0 0 0 0 0 0 0 0 0
0 0 0 0 0 0 0 0 0 0 0 0 0 0 0 0 0 0 0 0 0 0 1 1 1 1 2 4 4 2 0 0 0 1 2 1 1 0 0 0 0 0 0 0 0 0 0 0 0
0 0 0 0 0 0 0 0 0 0 0 0 0 0 0 0 0 0 0 0 0 0 0 0 0 1 4 10 13 11 7 6 7 8 7 6 3 1 0 0 0 0 0 0 0 0 0 0 0
0 0 0 0 0 0 0 0 0 0 0 0 0 0 0 0 0 1 0 0 0 0 1 3 6 12 22 33 39 37 32 30 32 35 34 30 23 15 9 5 3 1 0 0 0 0 0 0 0
0 0 0 0 0 0 0 0 0 0 0 0 0 0 2 2 4 5 3 0 0 1 3 8 20 38 57 69 73 72 68 64 66 71 73 69 61 48 39 34 28 23 16 7 2 1 0 0 0
0 0 0 0 0 0 0 0 0 0 0 0 3 10 16 15 14 16 12 5 1 1 1 8 29 61 83 91 92 90 89 87 87 90 92 91 86 77 71 69 68 64 51 27 9 2 0 0 1
0 0 0 0 0 0 0 0 1 0 0 3 16 38 47 41 37 35 26 14 8 3 1 5 27 61 85 92 89 87 90 93 93 92 92 92 92 87 80 80 86 88 74 46 20 7 3 4 5
0 0 0 0 0 0 0 0 0 0 1 11 38 67 76 72 69 62 49 38 29 16 7 9 27 55 76 83 81 79 82 84 85 87 91 94 94 91 83 77 83 83 65 40 21 12 12 14 14
0 0 0 0 0 0 0 0 0 3 14 36 64 82 90 91 91 86 78 72 63 45 30 28 41 61 71 70 67 66 66 64 64 72 83 90 94 94 90 83 77 64 39 19 10 9 16 22 22
0 0 0 0 0 0 0 2 10 25 47 71 86 92 95 96 95 94 93 93 88 79 66 58 64 74 73 59 45 40 40 41 46 53 60 65 70 72 72 68 56 38 22 10 3 3 10 19 24
0 0 0 0 0 0 0 8 32 62 82 92 97 97 97 96 94 93 93 94 94 94 88 80 72 67 60 43 24 16 19 27 38 39 34 32 32 32 33 34 29 23 24 23 14 11 15 21 25
0 0 0 0 0 0 6 26 61 87 96 97 97 95 93 92 92 92 91 90 91 86 76 65 49 38 33 22 10 5 10 18 23 21 17 13 10 7 9 14 15 17 26 34 28 23 30 35 34
0 0 0 0 0 0 14 48 78 91 94 96 96 92 87 84 82 79 77 74 73 62 47 40 33 26 21 12 4 2 5 7 7 6 7 8 9 7 6 7 9 10 17 24 23 19 27 36 37
0 0 0 0 0 0 13 40 62 74 85 92 93 89 84 75 60 49 41 37 39 34 28 29 31 29 21 10 3 2 3 4 3 2 3 6 9 8 5 4 5 6 9 13 14 12 14 19 19
0 0 0 0 0 0 5 14 26 47 72 88 91 88 79 60 34 17 9 8 10 14 17 17 17 17 14 11 10 10 8 6 4 2 1 3 4 4 4 4 5 5 8 16 23 23 20 13 7
0 0 0 0 0 0 0 0 7 30 63 85 90 84 65 35 12 3 0 0 1 3 4 3 2 4 9 16 21 17 9 4 2 1 0 0 0 0 1 2 2 2 8 19 34 46 46 31 17
0 0 0 0 0 0 0 0 4 22 49 70 77 67 39 13 2 0 0 0 0 0 0 0 1 2 5 13 19 14 5 1 0 0 0 0 0 0 0 0 0 1 5 14 32 56 65 50 32
0 0 0 0 0 0 0 0 2 12 25 37 45 36 15 2 0 0 0 0 0 0 0 0 0 0 1 4 7 6 3 0 0 0 0 0 0 0 0 0 0 0 1 6 20 42 56 48 33
0 0 0 0 0 0 0 0 1 4 6 10 13 11 3 0 0 0 0 0 0 0 0 0 0 0 0 0 1 2 1 0 0 0 0 0 0 0 0 0 0 0 0 1 7 18 29 27 20
0 0 0 0 0 0 0 0 0 0 0 0 1 1 0 0 0 0 0 0 0 0 0 0 0 0 0 0 0 0 0 0 0 0 0 0 0 0 0 0 0 0 0 0 1 4 7 9 8
0 0 0 0 0 0 0 0 0 0 0 0 0 0 0 0 0 0 0 0 0 0 0 0 0 0 0 0 0 0 0 0 0 0 0 0 0 0 0 0 0 0 0 0 0 0 0 1 3
0 0 0 0 0 0 0 0 0 0 0 0 0 0 0 0 0 0 0 0 0 0 0 0 0 0 0 0 0 0 0 0 0 0 0 0 0 0 0 0 0 0 0 0 0 0 0 0 1
0 0 0 0 0 0 0 0 0 0 0 0 0 0 0 0 0 0 0 0 0 0 0 0 0 0 0 0 0 0 0 0 0 0 0 0 0 0 0 0 0 0 0 0 0 0 0 0 0
0 0 0 0 0 0 0 0 0 0 0 0 0 0 0 0 0 0 0 0 0 0 0 0 0 0 0 0 0 0 0 0 0 0 0 0 0 0 0 0 0 0 0 0 0 0 0 0 0
0 0 0 0 0 0 0 0 0 0 0 0 0 0 0 0 0 0 0 0 0 0 0 0 0 0 0 0 0 0 0 0 0 0 0 0 0 0 0 0 0 0 0 0 0 0 0 0 0

GEFSSGP_con_probscp_006.txt.gz
Probability
0 0 0 0 0 0 0 0 0 0 0 0 0 0 0 0 0 0 0 0 0 0 0 0 0 0 0 0 0 0 0 0 0 0 0 0 0 0 0 0 0 0 0 0 0 0 0 0 0
0 0 0 0 0 0 0 0 0 0 0 0 0 0 0 0 0 0 0 0 0 0 0 0 0 0 0 0 0 0 0 0 0 0 0 0 0 0 0 0 0 0 0 0 0 0 0 0 0
0 0 0 0 0 0 0 0 0 0 0 0 0 0 0 0 0 0 0 0 0 0 0 0 0 0 0 0 0 0 0 0 0 0 0 0 0 0 0 0 0 0 0 0 0 0 0 0 0
0 0 0 0 0 0 0 0 0 0 0 0 0 0 0 0 0 0 0 0 0 0 0 0 0 0 0 0 0 0 0 0 0 0 0 0 0 0 0 0 0 0 0 0 0 0 0 0 0
0 0 0 0 0 0 0 0 0 0 0 0 0 0 0 0 0 0 0 0 0 0 0 0 0 0 0 0 0 0 0 0 0 0 0 0 0 1 1 0 0 0 0 0 0 0 0 0 0
0 0 0 0 0 0 0 0 0 0 0 0 0 0 0 0 0 0 0 0 0 0 0 0 0 0 0 0 0 0 0 0 0 0 0 0 0 1 1 0 0 0 0 0 0 0 0 0 0
0 0 0 0 0 0 0 0 0 0 0 0 0 0 0 0 0 0 0 0 0 0 0 0 0 0 0 1 1 1 2 1 1 1 0 0 0 1 1 0 0 0 0 0 0 0 0 0 0
0 0 0 0 0 0 0 0 0 0 0 0 0 0 0 0 0 0 0 0 0 0 0 0 0 1 1 5 13 19 22 21 17 12 9 5 2 2 3 6 10 9 4 1 0 1 1 1 0
0 0 0 0 0 0 0 0 0 0 0 0 0 0 0 0 0 0 0 0 0 0 0 0 0 1 1 10 32 48 56 55 44 32 30 25 10 4 8 19 34 32 14 4 2 2 2 2 1
0 0 0 0 0 0 0 0 0 0 0 0 0 1 1 1 1 0 0 0 0 0 0 0 0 1 1 12 38 61 72 77 63 49 56 55 36 23 23 41 59 51 25 10 7 6 4 2 1
0 0 0 0 0 0 0 0 0 0 0 0 2 7 8 6 3 1 1 1 2 3 3 1 1 1 2 11 31 50 66 78 74 67 76 80 71 59 55 67 76 63 39 27 27 21 8 1 1
0 0 0 0 0 0 0 0 0 0 0 1 8 21 27 23 19 14 9 9 15 18 15 8 4 3 4 9 20 32 46 60 70 79 88 91 91 87 84 86 86 77 61 51 50 38 14 3 2
0 0 0 0 0 0 0 0 0 0 1 5 20 41 53 55 53 46 37 34 40 43 38 26 18 15 17 20 23 24 26 31 46 66 78 84 90 92 91 91 91 88 78 69 61 40 16 6 3
0 0 0 0 0 0 0 0 0 0 3 16 41 64 77 81 82 78 71 63 63 69 66 54 44 42 44 48 46 38 31 28 33 46 54 62 75 81 82 84 85 83 79 76 64 39 17 6 2
0 0 0 0 0 0 0 0 0 1 9 32 63 83 89 90 90 90 86 78 78 84 85 79 73 70 70 71 67 59 53 49 46 45 40 39 47 58 67 71 67 67 72 75 66 44 21 9 5
0 0 0 0 0 0 0 2 5 8 20 49 78 90 91 89 90 91 88 84 86 91 92 91 89 86 81 78 72 64 56 53 51 48 40 27 22 30 43 46 42 42 52 63 62 51 39 28 22
0 0 0 0 0 0 0 7 19 27 42 68 85 88 86 86 88 91 91 90 90 92 93 93 92 87 77 67 58 47 35 31 30 33 33 23 10 10 16 18 15 16 26 37 45 56 62 60 56
0 0 0 0 0 0 2 12 32 48 64 79 84 82 81 82 86 91 93 93 93 93 93 90 82 70 52 37 29 20 12 8 8 12 17 13 5 2 1 2 1 2 6 11 22 39 55 63 66
0 0 0 0 0 1 3 11 27 44 56 65 71 76 82 85 88 90 90 89 89 90 89 81 62 39 21 12 7 3 1 0 0 2 4 3 1 0 0 0 0 0 0 1 6 13 20 29 35
0 0 0 0 0 0 1 5 11 18 24 34 53 72 84 88 85 80 75 71 72 75 74 63 40 16 4 2 0 0 0 0 0 0 0 0 0 0 0 0 0 0 0 0 0 0 1 4 7
0 0 0 0 0 0 0 0 1 2 5 17 41 68 83 81 67 54 45 39 41 47 47 36 19 5 0 0 0 0 0 0 0 0 0 0 0 0 0 0 0 0 0 1 1 0 1 2 2
0 0 0 0 0 0 0 0 0 0 2 13 36 63 75 65 43 24 15 12 13 17 19 16 12 9 6 6 6 3 1 0 0 0 0 0 0 0 0 0 0 0 0 1 1 0 1 2 2
0 0 0 0 0 0 0 0 0 0 1 9 26 48 59 50 29 13 6 4 3 3 5 12 22 27 25 23 21 16 9 3 1 1 0 0 0 0 0 0 0 0 0 0 0 0 0 1 1
0 0 0 0 0 0 0 0 0 1 2 9 23 37 46 44 32 20 14 11 9 6 5 11 28 43 48 45 41 39 32 22 13 5 1 0 0 0 0 0 0 0 0 0 0 0 0 0 0
0 0 0 0 0 0 0 0 0 1 2 9 22 34 38 34 28 22 18 16 15 14 16 23 35 52 61 59 59 63 63 52 33 13 3 1 0 0 0 0 0 0 0 0 0 0 0 0 0
0 0 0 0 0 0 0 0 1 1 1 4 11 18 18 14 11 9 9 9 12 16 26 40 54 65 69 69 75 82 84 74 51 26 10 2 0 0 0 0 0 0 0 0 0 1 1 1 1
0 0 0 0 0 0 0 0 1 1 0 0 2 2 2 1 0 0 1 2 4 8 17 33 52 65 72 78 85 91 92 85 67 42 20 6 2 1 0 0 0 0 0 0 0 1 2 3 2
0 0 0 0 0 0 0 0 1 1 0 0 0 0 0 0 0 0 0 0 0 1 3 11 24 37 50 62 74 83 88 89 82 62 37 18 10 7 4 1 0 0 0 0 0 1 2 3 3
0 0 0 0 0 0 0 0 0 0 0 0 0 0 0 0 0 0 0 0 0 0 0 1 4 9 17 26 39 52 63 75 81 75 59 42 31 23 13 4 0 0 0 0 0 1 1 1 2
0 0 0 0 0 0 0 0 0 0 0 0 0 0 0 0 0 0 0 0 0 0 0 0 0 0 1 5 12 22 35 53 71 77 72 61 50 39 24 7 1 0 0 0 0 0 0 0 1

GEFSSGP_con_probscp_012.txt.gz
Probability
0 0 0 0 0 1 2 1 0 0 0 0 0 0 0 0 0 0 0 0 0 0 0 0 0 0 0 0 0 0 0 0 0 0 0 0 0 0 0 0 0 0 0 0 0 0 0 0 0
0 0 0 0 0 0 1 0 0 0 0 0 0 0 0 0 0 0 0 0 0 0 0 0 0 0 0 0 0 0 0 0 0 0 0 0 0 0 0 0 0 0 0 0 0 0 0 0 0
0 0 0 0 0 0 0 0 0 0 0 0 0 0 0 0 0 0 0 0 0 0 0 0 0 0 0 0 0 0 0 0 0 0 0 0 0 0 0 0 0 0 0 0 0 0 0 0 0
0 0 0 0 0 0 0 0 0 0 0 0 0 0 0 0 0 0 0 0 0 0 0 0 0 0 0 0 0 0 0 0 0 0 0 0 0 0 0 0 0 0 0 0 0 0 0 0 0
0 0 0 0 0 0 0 0 0 0 0 0 0 0 0 0 0 0 0 0 0 0 0 0 0 0 0 0 0 0 0 0 0 0 0 0 0 0 0 0 0 0 0 1 1 1 0 0 0
0 0 0 0 0 0 0 0 0 0 0 0 0 0 0 0 0 0 0 0 1 2 2 1 1 1 0 1 1 1 0 0 0 0 0 0 0 0 0 0 0 0 0 1 2 1 1 1 1
0 0 0 0 0 0 0 0 0 0 0 0 0 0 0 0 0 0 0 0 2 7 8 3 1 2 2 2 3 3 2 2 1 1 0 0 0 0 0 2 3 2 1 2 1 1 3 4 5
0 0 0 0 0 0 0 0 0 0 0 0 1 1 1 0 0 0 0 0 3 15 20 10 5 9 10 12 20 25 24 20 15 8 4 3 2 3 10 17 19 14 10 10 11 9 7 8 9
0 0 0 0 0 0 0 0 0 0 2 7 13 12 6 2 0 0 0 0 3 18 31 25 25 33 27 29 49 65 64 58 46 32 28 26 14 8 22 41 48 43 38 38 41 36 25 17 13
0 0 0 0 0 0 0 0 0 0 6 23 42 40 23 12 9 6 4 3 2 13 30 39 53 61 45 45 75 92 91 89 77 63 65 65 46 26 31 57 75 74 72 74 77 72 59 43 32
0 0 0 0 0 0 0 0 0 0 9 35 63 65 46 35 31 25 20 18 16 15 21 39 64 74 63 65 87 98 98 98 93 85 87 91 82 63 54 71 89 91 91 93 94 91 85 70 58
0 0 0 0 0 0 0 0 0 0 7 30 59 68 63 56 48 42 41 46 52 41 30 40 66 82 80 82 92 98 99 99 97 95 95 97 97 91 86 88 94 95 96 95 93 92 89 78 67
0 0 0 0 0 0 0 0 0 0 4 18 39 56 66 67 56 48 57 75 85 78 63 63 80 92 93 91 94 98 99 98 98 99 99 98 98 99 98 96 95 95 93 90 87 85 82 73 64
0 0 0 0 0 0 0 0 0 1 4 11 22 36 56 69 65 64 77 91 98 96 91 90 94 98 98 97 97 98 99 99 99 99 98 98 99 98 97 97 95 92 87 83 78 72 66 58 52
0 0 0 0 0 0 0 0 0 1 3 6 11 20 40 63 75 84 93 96 98 99 99 98 98 99 100 100 99 98 98 99 100 99 96 96 96 95 94 94 93 88 81 72 62 53 49 46 41
0 0 0 0 0 0 0 0 0 0 1 4 7 14 37 65 82 93 99 98 98 99 98 96 96 98 100 100 98 96 96 96 94 94 94 90 83 81 83 84 77 71 65 55 43 38 41 42 40
0 0 0 0 0 0 0 0 0 0 1 3 6 20 50 79 92 97 100 99 99 98 96 95 96 98 99 98 93 88 84 78 71 78 86 75 58 55 60 59 49 39 36 33 27 31 37 36 35
0 0 0 0 0 0 0 0 0 0 1 4 14 38 70 91 97 98 99 99 99 98 97 97 98 99 98 96 91 82 73 55 44 57 67 50 31 30 30 26 21 14 12 14 16 22 24 21 20
0 0 0 0 0 0 0 0 0 0 1 6 24 56 82 92 93 91 90 91 96 97 96 97 98 98 96 95 92 83 67 42 27 39 46 29 13 12 10 7 5 3 2 3 7 10 9 7 7
0 0 0 0 0 0 0 0 0 2 7 15 33 60 77 79 75 67 62 69 82 89 88 90 95 96 93 89 83 77 60 32 20 31 42 31 13 6 4 2 0 0 0 1 1 2 2 1 1
0 0 0 0 0 0 0 0 2 10 23 34 43 50 56 54 46 37 33 41 59 72 76 83 93 93 87 77 65 62 53 28 21 38 52 46 27 13 6 2 0 0 0 0 0 1 1 1 0
0 0 0 0 0 0 0 0 6 26 48 56 52 44 38 33 27 21 19 25 37 51 63 77 90 91 86 75 66 65 58 41 39 55 67 60 40 24 15 7 2 0 0 0 0 0 1 2 1
0 0 0 0 0 0 0 0 11 39 64 66 54 42 30 22 18 14 14 18 23 31 43 59 75 84 84 83 83 82 74 62 63 73 79 73 57 43 34 26 16 6 0 0 0 0 1 3 4
0 0 0 0 0 0 0 1 13 41 61 58 47 35 22 13 9 8 9 12 14 16 21 32 47 60 68 74 83 90 90 84 81 83 87 86 77 66 58 51 38 16 2 0 0 0 1 4 6
0 0 0 0 0 1 0 4 17 35 44 39 28 18 10 6 4 4 4 6 7 7 9 14 22 30 37 44 56 70 81 87 88 88 92 94 89 82 73 64 48 23 4 1 0 0 1 4 6
0 0 0 0 0 0 6 18 29 28 23 17 11 5 3 2 2 1 1 2 4 4 5 5 7 10 13 17 26 38 49 62 75 85 93 96 95 91 81 69 50 26 9 3 1 0 0 2 4
0 0 0 0 0 0 9 30 37 25 11 4 1 0 0 0 0 0 0 1 1 2 1 1 1 2 3 5 9 14 21 31 44 61 77 87 93 95 89 79 62 39 20 9 3 0 0 1 2
0 0 0 0 0 0 5 22 36 28 11 2 0 0 0 0 0 0 0 0 0 0 0 0 0 0 0 1 2 4 6 11 18 30 44 59 73 85 90 89 80 62 40 21 9 3 0 0 1
0 0 0 0 0 0 0 13 29 27 12 3 0 0 0 0 0 0 0 0 0 0 0 0 0 0 0 0 0 0 1 2 5 9 15 25 39 55 71 84 89 81 60 39 22 9 2 1 2
0 0 0 0 0 0 1 13 26 22 10 3 0 0 0 0 0 0 0 0 0 0 0 0 0 0 0 0 0 0 0 0 0 1 3 8 16 28 47 70 88 87 70 52 34 14 3 2 3

GEFSSGP_con_probscp_018.txt.gz
Probability
0 0 0 0 0 0 0 0 0 0 0 0 0 0 0 0 0 0 0 0 0 0 0 0 0 0 0 0 0 0 0 0 0 0 0 0 0 0 0 0 0 0 0 0 0 0 0 0 0
0 0 0 0 0 0 0 0 0 0 0 0 0 0 0 0 0 0 0 0 0 0 0 0 0 0 0 0 0 0 0 0 0 0 0 0 0 0 0 0 0 0 0 0 0 0 0 0 0
0 0 0 0 0 0 0 0 0 0 0 0 0 0 0 0 0 0 0 0 0 0 0 0 0 0 0 0 0 0 0 0 0 0 0 0 0 0 0 0 0 0 0 0 0 0 0 0 0
0 0 0 0 0 0 0 0 0 0 0 0 0 0 0 0 0 0 0 0 0 0 0 2 3 2 1 0 0 0 0 0 0 0 0 0 0 0 0 0 0 0 0 0 0 0 0 0 0
0 0 0 0 0 0 0 1 1 1 0 0 0 0 0 0 0 0 0 0 0 0 1 3 6 4 1 0 0 0 0 0 0 0 0 0 0 0 0 0 0 0 0 0 0 0 0 0 0
0 0 0 0 0 0 0 1 2 1 0 0 0 0 0 1 1 1 0 0 0 0 1 3 4 3 2 1 1 0 0 0 0 0 0 0 0 0 0 0 0 0 0 0 0 0 0 0 0
0 0 0 0 0 0 0 0 1 1 0 0 0 0 0 1 1 1 0 0 0 0 1 2 1 1 2 4 4 3 1 0 0 0 0 0 0 0 0 0 0 0 0 0 0 0 0 0 0
0 0 0 0 0 0 0 0 0 0 0 1 1 1 1 0 0 0 2 2 2 0 0 1 1 2 4 7 9 8 6 4 2 1 0 0 0 0 0 0 0 0 0 0 0 0 0 1 1
0 0 0 0 0 0 0 0 0 0 2 4 4 2 1 0 1 3 9 14 10 3 0 0 1 3 6 8 10 11 11 9 5 2 0 0 0 0 0 0 0 0 0 0 0 1 2 3 4
0 0 0 0 0 0 0 0 0 2 5 7 7 3 1 0 2 8 22 36 35 20 7 1 1 3 6 7 8 9 9 7 5 2 1 1 1 1 1 1 0 0 0 0 0 1 5 9 9
0 0 0 0 0 0 0 0 0 2 6 11 11 7 2 2 5 13 33 57 67 53 25 6 1 2 4 5 7 8 7 5 5 3 3 4 4 3 3 2 1 1 1 1 1 4 10 16 18
0 0 0 0 0 0 0 0 0 1 6 16 21 16 9 7 10 20 40 66 83 79 52 21 5 2 4 5 7 9 8 8 10 10 12 14 11 7 4 2 1 2 3 3 2 5 11 16 17
0 0 0 0 0 0 0 0 0 2 14 32 40 33 24 21 25 35 50 68 80 82 67 39 17 12 15 18 23 26 26 22 21 22 24 26 23 13 6 2 1 2 3 3 2 3 5 7 8
0 0 0 0 0 0 0 0 0 7 30 56 63 52 40 38 43 49 57 64 67 68 63 47 32 30 39 48 54 59 54 44 37 32 30 31 26 17 7 2 1 1 1 1 0 0 0 1 2
0 0 0 0 0 0 0 0 0 10 37 65 72 61 48 45 48 49 48 48 45 44 45 41 37 42 56 67 75 76 69 58 46 36 29 24 18 12 6 2 0 0 0 0 0 0 0 0 1
0 0 0 0 0 0 0 0 1 10 34 59 68 64 54 44 40 34 29 26 25 24 27 29 32 41 53 63 69 70 62 52 42 32 23 15 9 5 3 1 0 0 0 0 0 0 0 0 0
0 0 0 0 0 0 0 2 6 17 36 55 64 65 55 40 28 20 14 12 11 13 15 19 24 31 41 49 52 50 42 32 27 22 15 8 5 3 2 0 0 0 0 0 0 0 0 0 0
0 0 0 0 0 0 0 3 10 23 40 54 60 58 45 28 16 9 5 4 4 5 8 12 16 20 28 32 31 25 18 13 11 11 9 5 3 2 1 0 0 0 0 0 0 0 0 0 0
0 0 0 0 0 0 0 2 7 18 32 44 47 42 28 14 5 2 1 1 1 2 3 6 8 10 14 16 14 10 6 4 4 4 4 3 2 1 0 0 0 0 0 0 0 0 0 0 0
0 0 0 0 0 0 0 0 3 10 19 27 30 25 16 6 1 0 0 0 1 1 1 1 2 3 5 6 5 3 1 1 1 1 1 1 1 0 0 0 0 0 0 0 0 0 0 0 0
0 0 0 0 0 0 0 0 2 5 9 15 16 13 7 2 0 0 0 0 0 0 0 0 0 0 1 1 1 1 0 0 0 0 0 0 0 0 0 0 0 0 0 0 0 0 0 0 0
0 0 0 0 0 0 0 0 1 2 4 6 7 4 1 0 0 0 0 0 0 0 0 0 0 0 0 0 1 1 0 0 0 0 0 0 0 0 0 0 0 0 0 0 0 0 0 0 0
0 0 0 0 0 0 0 0 0 1 1 2 1 0 0 0 0 0 0 0 0 0 0 0 0 0 0 0 1 1 0 0 0 0 0 0 0 0 0 0 0 0 0 0 0 0 0 0 0
0 0 0 0 0 0 0 0 1 1 1 1 0 0 0 0 0 0 0 0 0 0 0 0 0 0 0 0 0 0 0 0 0 0 0 0 0 0 0 0 0 0 0 0 0 0 0 0 0
0 0 0 0 0 0 0 0 1 0 0 0 0 0 0 0 0 0 0 0 0 0 0 0 0 0 0 0 0 0 0 0 0 0 0 0 0 0 0 0 1 1 0 0 0 0 0 0 0
0 0 0 0 0 0 0 0 1 0 0 0 0 0 0 0 0 0 0 0 0 0 0 0 0 0 0 0 0 0 0 0 0 0 0 0 0 0 0 0 1 2 1 0 0 0 0 0 0
0 0 0 0 0 0 0 0 0 0 0 0 0 0 0 0 0 0 0 0 0 0 0 0 0 0 0 0 0 0 0 0 0 0 0 0 0 0 0 0 1 2 1 0 0 0 0 0 0
0 0 0 0 0 0 0 0 0 0 0 0 0 0 0 0 0 0 0 0 0 0 0 0 0 0 0 0 0 0 0 0 0 0 0 0 0 0 0 0 0 1 1 0 1 1 0 0 0
0 0 0 0 0 0 0 0 0 0 0 0 0 0 0 0 0 0 0 0 0 0 0 0 0 0 0 0 0 0 0 0 0 0 0 0 0 0 0 0 0 0 0 0 1 1 0 0 0
0 0 0 0 0 0 0 0 0 0 0 0 0 0 0 0 0 0 0 0 0 0 0 0 0 0 0 0 0 0 0 0 0 0 0 0 0 0 0 0 0 0 0 0 1 1 0 0 0

GEFSSGP_con_probscp_024.txt.gz
Probability
0 0 0 0 0 0 0 0 0 0 0 0 0 0 0 0 0 0 0 0 0 0 1 4 6 4 1 0 0 0 0 0 0 0 0 0 0 0 0 0 0 0 0 0 0 0 0 0 0
0 0 0 0 0 0 0 0 0 0 0 0 0 0 0 0 0 0 0 0 0 0 1 4 8 7 4 2 0 0 0 0 0 0 0 0 0 0 0 0 0 0 0 0 0 0 0 0 0
0 0 0 0 0 0 0 0 0 0 0 0 0 0 0 0 0 0 0 0 0 0 1 6 11 12 9 5 1 0 0 0 0 0 0 0 0 0 0 0 0 0 0 0 0 0 0 0 0
0 0 0 0 0 0 0 0 0 0 0 0 0 0 0 0 0 0 0 0 0 0 2 8 16 18 14 7 2 1 0 0 0 0 0 0 0 0 0 0 0 0 0 0 0 0 0 0 0
0 0 0 0 0 0 0 0 0 0 0 0 0 0 0 0 0 0 0 0 0 0 1 10 22 26 20 13 6 3 2 2 2 1 0 0 0 0 0 0 0 0 0 0 0 0 0 0 0
0 0 0 0 0 0 0 0 0 0 0 0 0 0 0 0 0 0 0 0 0 0 1 9 23 30 28 22 14 9 7 7 5 3 1 0 0 0 0 0 0 0 0 0 0 0 0 0 0
0 0 0 0 0 0 0 0 0 0 0 0 0 0 0 0 0 0 0 0 0 2 5 12 22 32 37 35 28 22 18 15 11 7 4 2 0 0 0 0 0 0 0 0 0 0 0 0 0
0 0 0 0 0 0 0 0 0 0 0 0 0 0 0 0 1 1 0 1 2 7 13 21 30 42 50 50 44 37 31 25 18 13 9 4 2 1 0 0 0 0 0 0 0 0 0 0 0
0 0 0 0 0 0 0 0 0 0 0 0 0 0 1 3 4 4 3 4 7 11 19 28 41 54 61 61 55 47 40 34 29 25 18 14 11 6 1 0 0 0 0 0 0 0 0 0 0
0 0 0 0 0 0 0 0 0 0 0 0 0 2 6 11 13 13 13 13 12 14 20 29 40 53 61 62 56 48 45 45 45 40 34 31 26 14 4 1 0 0 0 0 0 1 1 2 2
0 0 0 0 0 0 0 0 0 0 0 0 1 6 16 27 31 32 31 27 20 16 19 25 33 43 51 53 48 46 48 52 53 50 45 44 37 24 13 8 4 3 3 3 3 3 3 4 3
0 0 0 0 0 0 0 0 0 1 2 4 8 15 29 44 49 48 45 39 28 20 16 19 25 33 38 40 39 41 45 48 50 48 44 42 37 29 23 16 11 9 8 6 5 4 3 3 2
0 0 0 0 0 0 1 1 1 2 6 14 22 28 39 48 50 48 45 39 30 21 16 15 18 23 27 28 29 33 36 37 41 40 36 34 29 23 19 14 10 9 8 7 4 2 1 1 1
0 0 0 0 0 0 1 3 4 6 12 24 33 37 41 41 38 34 30 27 23 18 16 14 15 16 17 17 19 24 26 25 26 26 23 21 18 14 10 6 3 3 4 3 1 0 0 1 2
0 0 0 0 0 0 1 5 10 12 17 26 33 35 34 31 26 19 14 12 11 11 11 12 13 14 12 11 14 19 20 18 15 13 11 11 9 8 7 4 1 0 0 0 0 0 0 1 1
0 0 0 0 0 0 1 5 9 12 15 20 22 21 19 17 14 10 7 5 4 4 5 7 10 11 10 10 13 18 18 15 11 9 8 6 4 4 5 4 1 0 0 0 0 0 0 0 0
0 0 0 0 0 0 0 2 3 5 8 9 9 7 6 5 4 4 3 3 2 1 1 3 4 5 6 7 10 13 13 11 8 6 6 5 3 2 2 2 1 0 0 0 0 0 0 0 0
0 0 0 0 0 0 0 0 0 1 2 2 2 1 1 0 0 0 1 1 0 0 0 1 1 1 2 3 4 6 6 4 3 3 4 4 3 1 1 0 0 0 0 0 0 0 0 0 0
0 0 0 0 0 0 0 0 0 0 0 0 0 0 0 0 0 0 0 0 0 0 0 0 0 0 1 1 1 1 1 1 0 1 2 2 1 2 1 0 0 0 0 0 0 0 0 0 0
0 0 0 0 0 0 0 0 0 0 0 0 0 0 0 0 0 0 0 0 0 0 0 0 0 0 0 0 0 0 0 0 0 0 0 0 1 2 2 1 0 0 0 0 0 0 0 0 0
0 0 0 0 0 0 0 0 0 0 0 0 0 0 0 0 0 0 0 0 0 0 0 0 0 0 0 0 0 0 0 0 0 0 0 0 0 1 1 0 0 0 0 0 0 0 0 0 0
0 0 0 0 0 0 0 0 0 0 0 0 0 0 0 0 0 0 0 0 0 0 0 0 0 0 0 0 0 0 0 0 0 0 0 0 0 0 0 0 0 0 0 0 0 0 0 0 0
0 0 0 0 0 0 0 0 0 0 0 0 0 0 0 0 0 0 0 0 0 0 0 0 0 0 0 0 0 0 0 0 0 0 0 0 0 0 0 0 0 0 0 0 0 0 0 0 0
0 0 0 0 0 0 0 0 0 0 0 0 0 0 0 0 0 0 0 0 0 0 0 0 0 0 0 0 0 0 0 0 0 0 0 0 0 0 0 0 0 0 0 0 0 0 0 0 0
0 0 0 0 0 0 0 0 0 0 0 0 0 0 0 0 0 0 0 0 0 0 0 0 0 0 0 0 0 0 0 0 0 0 0 0 0 0 0 0 0 0 0 0 0 0 0 0 0
0 0 0 0 0 0 0 0 0 0 0 0 0 0 0 0 0 0 0 0 0 0 0 0 0 0 0 0 0 0 0 0 0 0 0 0 0 0 0 0 0 0 0 0 0 0 0 0 0
0 0 0 0 0 0 0 0 0 0 0 0 0 0 0 0 0 0 0 0 0 0 0 0 0 0 0 0 0 0 0 0 0 0 0 0 0 0 0 0 0 0 0 0 0 0 0 0 0
0 0 0 0 0 0 0 0 0 0 0 0 0 0 0 0 0 0 0 0 0 0 0 0 0 0 0 0 0 0 0 0 0 0 0 0 0 0 0 0 0 0 0 0 0 0 0 0 0
0 0 0 0 0 0 0 0 0 0 0 0 0 0 0 0 0 0 0 0 0 0 0 0 0 0 0 0 0 0 0 0 0 0 0 0 0 0 0 0 0 0 0 0 0 0 0 0 0
0 0 0 0 0 0 0 0 0 0 0 0 0 0 0 0 0 0 0 0 0 0 0 0 0 0 0 0 0 0 0 0 0 0 0 0 0 0 0 0 0 0 0 0 0 0 0 0 0

GEFSSGP_con_probscp_030.txt.gz
Probability
0 0 0 0 0 0 0 0 0 0 0 0 0 0 0 0 0 0 0 0 0 1 2 1 0 0 0 0 0 0 0 0 0 0 0 0 0 0 0 0 0 0 0 0 0 0 0 0 0
0 0 0 0 0 0 0 0 0 0 0 0 0 0 0 0 0 0 0 0 0 0 1 0 0 0 0 0 0 0 0 0 0 0 0 0 0 0 0 0 0 0 0 0 0 0 0 0 0
0 0 0 0 0 0 0 0 0 0 0 0 0 0 0 0 0 0 0 0 0 0 0 0 0 0 0 0 0 0 0 0 0 0 0 0 0 0 0 0 0 0 0 0 0 0 0 0 0
0 0 0 0 0 0 0 0 0 0 0 0 0 0 0 0 0 0 0 0 0 0 0 0 0 0 0 0 0 0 0 0 0 0 0 0 0 0 0 0 0 0 0 0 0 0 0 0 0
0 0 0 0 0 0 0 0 0 0 0 0 0 0 0 0 0 0 0 0 0 0 0 1 1 1 1 1 1 1 1 0 0 0 0 0 0 0 0 0 0 0 0 0 0 0 0 0 0
0 0 0 0 0 0 0 0 0 0 0 0 0 0 0 0 0 0 0 0 0 0 1 2 3 3 3 3 3 3 3 2 1 1 1 0 0 0 0 0 0 0 0 1 1 1 1 1 1
0 0 0 0 0 0 0 0 0 0 0 0 0 0 0 2 5 7 6 4 2 1 3 4 6 7 8 8 9 10 10 9 7 5 3 1 0 1 2 3 3 3 3 3 3 2 3 3 3
0 0 0 0 0 0 0 0 0 0 0 0 0 0 4 11 19 25 25 19 13 10 11 12 13 16 18 19 23 25 24 23 20 15 11 6 2 2 5 8 10 10 8 5 4 3 4 5 5
0 0 0 0 0 0 0 0 0 0 0 0 0 1 8 22 34 41 45 44 38 31 30 30 30 31 30 32 40 44 44 42 36 32 31 26 17 10 12 22 29 23 12 7 5 4 4 6 6
0 0 0 0 0 0 0 0 0 0 1 2 3 3 8 20 35 46 55 59 56 50 48 47 46 44 41 43 53 59 59 56 50 46 50 51 44 34 32 47 56 43 24 14 11 8 6 8 10
0 0 0 0 0 0 0 0 0 1 2 6 9 9 12 20 33 48 57 60 58 53 50 48 48 49 49 51 58 63 61 59 55 52 58 66 68 63 62 71 77 65 49 40 36 27 17 13 16
0 0 0 0 0 0 0 0 2 4 6 11 17 22 28 34 45 56 60 59 58 53 46 42 44 50 52 52 54 54 52 52 52 52 57 68 76 77 79 84 85 80 75 71 67 54 34 23 23
0 0 0 0 0 0 0 1 6 9 12 20 31 40 48 54 62 67 66 63 62 58 49 41 40 45 46 45 42 38 37 40 43 45 50 60 69 73 80 87 89 85 83 81 77 63 46 35 31
0 0 0 0 0 0 0 2 8 12 15 26 38 45 51 56 60 61 60 59 58 55 47 36 31 31 32 32 28 24 24 27 29 32 36 43 52 63 75 84 87 84 79 75 68 58 49 42 37
0 0 0 0 0 0 1 3 6 9 12 19 27 31 34 37 38 37 38 40 40 37 32 25 19 16 17 18 17 16 17 18 19 21 25 30 36 50 67 76 77 77 73 68 63 56 50 43 38
0 0 0 0 0 0 0 1 2 3 6 8 10 12 13 14 15 15 17 20 22 21 19 17 14 11 10 10 11 12 13 14 13 16 21 25 27 36 52 59 60 63 63 58 54 51 47 40 33
0 0 0 0 0 0 0 0 0 0 1 2 2 3 3 4 4 5 6 9 11 12 13 14 13 10 7 6 7 8 9 10 9 12 16 18 18 25 36 43 44 47 49 45 41 40 39 31 24
0 0 0 0 0 0 0 0 0 0 0 0 0 0 0 0 1 1 2 4 4 5 7 9 9 7 4 3 4 6 8 8 8 8 9 9 10 15 22 29 31 34 36 34 30 29 27 22 18
0 0 0 0 0 0 0 0 0 0 0 0 0 0 0 0 0 0 1 1 1 1 1 3 4 3 1 1 3 5 8 10 9 7 5 4 4 6 12 18 22 28 31 28 23 21 18 15 14
0 0 0 0 0 0 0 0 0 0 0 0 0 0 0 0 0 0 0 0 0 0 0 0 1 1 0 1 1 3 6 8 7 5 3 1 1 1 6 13 18 25 29 24 19 16 12 9 7
0 0 0 0 0 0 0 0 0 0 0 0 0 0 0 0 0 0 0 0 0 0 0 0 0 0 0 0 0 1 3 3 3 3 2 1 0 0 3 7 12 20 24 22 17 12 8 5 4
0 0 0 0 0 0 0 1 1 1 0 0 0 0 0 0 0 0 0 0 0 0 0 0 0 0 1 1 0 0 0 0 0 1 1 0 0 0 1 2 6 12 17 18 14 8 5 3 2
0 0 0 0 0 0 0 1 2 2 0 0 0 0 0 0 0 0 0 0 0 0 0 0 0 0 1 1 0 0 0 0 0 0 0 0 0 0 0 2 4 8 12 14 13 10 7 4 2
0 0 0 0 0 0 0 1 4 4 1 0 0 0 0 0 0 0 0 0 0 0 0 0 0 0 1 1 0 0 0 0 0 0 0 0 0 0 0 1 3 5 8 10 13 14 13 10 7
0 0 0 0 0 0 0 2 5 4 1 0 0 0 0 0 0 0 0 0 0 0 0 0 0 0 0 0 0 0 0 0 0 0 0 0 0 0 0 0 1 3 5 6 9 14 17 17 16
0 0 0 0 0 0 0 3 4 3 0 0 0 0 0 0 0 0 0 0 0 0 0 0 0 0 0 0 0 0 0 1 1 1 0 0 0 0 0 0 0 1 2 3 4 9 14 18 20
0 0 0 0 0 0 1 2 2 1 0 0 0 0 0 0 0 0 0 0 0 0 0 0 0 0 0 0 0 0 0 1 2 1 1 1 1 0 0 0 0 0 1 1 2 4 8 14 17
0 0 0 0 0 0 0 1 0 0 0 0 0 0 0 0 0 0 0 0 0 0 0 0 0 0 0 0 0 0 0 1 1 1 1 1 2 1 0 0 0 0 0 0 1 2 5 8 10
0 0 0 0 0 0 0 0 0 0 0 0 0 0 0 0 0 0 0 0 0 0 0 0 0 0 0 0 0 0 0 0 0 0 0 1 2 1 0 0 0 0 0 0 0 1 2 3 4
0 0 0 0 0 0 0 0 0 0 0 0 0 0 0 0 0 0 0 0 0 0 0 0 0 0 0 0 0 0 0 0 0 0 0 0 1 1 1 0 0 0 0 0 0 0 1 1 1

GEFSSGP_con_probscp_036.txt.gz
Probability
0 0 0 0 0 0 0 0 0 0 0 0 0 0 0 1 1 0 4 23 42 34 14 6 5 3 1 0 0 0 0 0 0 0 0 0 0 0 0 0 0 0 0 0 0 0 0 0 0
0 0 0 0 0 0 0 0 0 0 0 0 0 0 1 2 2 1 5 21 32 24 8 2 2 1 0 0 0 0 0 0 0 0 0 0 0 0 0 0 0 0 0 0 0 0 0 0 0
0 0 0 0 0 0 0 0 0 0 0 0 0 0 1 2 2 1 4 17 24 16 6 2 1 0 0 0 0 0 0 0 0 0 0 0 0 0 0 0 0 0 0 0 0 0 0 0 0
0 0 0 0 0 0 0 0 0 0 0 0 1 2 2 1 1 0 4 14 22 18 12 8 6 3 1 0 0 0 0 0 1 1 1 1 1 0 0 0 0 0 0 0 0 0 0 0 0
0 0 0 0 0 0 0 0 0 0 0 0 4 7 4 1 0 0 3 10 18 24 22 15 12 8 3 0 0 0 0 1 2 3 3 2 1 1 0 0 0 0 0 0 0 0 0 0 0
0 0 0 0 0 0 0 0 0 0 0 0 6 10 7 1 0 0 1 5 18 33 31 20 14 11 4 1 0 0 0 1 3 5 4 3 1 1 2 1 0 0 1 2 2 3 4 4 4
0 0 0 0 0 0 0 0 0 0 1 2 7 12 9 2 0 0 0 4 22 41 36 18 10 7 4 3 2 2 3 4 6 7 6 4 4 4 4 5 6 8 12 14 14 16 19 22 22
0 0 0 0 0 0 0 0 1 3 7 11 18 23 17 6 1 0 0 5 24 41 33 16 10 9 7 8 10 10 10 11 13 13 12 10 10 12 13 16 23 33 39 39 38 39 45 50 51
0 0 0 0 0 0 0 1 3 9 17 25 32 36 26 12 5 5 5 8 19 32 29 22 25 24 17 19 27 25 22 25 25 24 27 27 22 21 26 34 50 63 67 66 65 65 69 70 70
0 0 0 0 0 0 0 3 8 18 30 39 42 41 32 22 18 19 19 17 20 29 35 39 46 46 36 37 47 43 38 45 45 44 51 54 44 33 35 54 72 81 83 84 85 84 83 78 73
0 0 0 0 0 0 0 5 17 31 44 51 53 50 45 43 45 47 45 42 41 47 54 59 63 64 59 59 62 58 55 61 64 64 70 73 68 55 51 67 84 90 92 93 93 93 89 81 72
0 0 0 0 0 0 0 8 26 41 49 57 65 68 68 71 76 78 77 75 74 75 76 75 75 74 73 71 68 66 64 64 68 73 77 79 79 74 71 76 85 90 93 93 93 93 90 80 71
0 0 0 0 0 0 1 11 25 36 41 52 66 76 82 87 91 94 95 95 92 89 87 83 78 74 74 72 69 66 64 61 64 70 74 77 77 75 75 76 78 79 81 82 81 81 80 75 70
0 0 0 0 0 0 4 13 23 26 28 38 52 65 75 82 85 87 90 90 88 84 82 77 69 65 67 71 70 65 61 62 64 67 69 68 67 66 67 69 68 65 63 61 59 57 57 61 63
0 0 0 0 0 1 7 18 23 20 17 23 32 43 53 60 64 67 70 71 71 71 71 63 54 53 59 64 65 60 58 61 66 67 64 61 59 58 58 57 57 53 47 42 37 33 33 40 46
0 0 0 0 0 0 8 20 23 15 12 13 18 23 29 34 38 41 44 48 51 54 56 51 44 44 47 48 47 46 48 54 60 63 60 56 52 48 45 43 43 40 37 32 25 20 19 25 29
0 0 0 0 0 1 10 21 21 14 11 11 10 10 12 15 18 20 22 26 29 33 38 38 37 37 35 29 26 27 30 37 47 54 53 47 41 37 32 31 29 28 27 24 17 14 14 16 19
0 0 0 0 0 3 14 23 20 12 10 8 6 4 5 6 7 7 8 9 12 16 22 25 28 31 29 21 15 14 15 18 28 39 41 36 31 29 27 24 21 20 19 15 10 10 10 10 9
0 0 1 1 1 5 14 19 15 9 6 4 3 1 2 2 2 1 2 3 5 8 11 16 21 25 25 20 12 9 9 9 14 23 27 24 22 23 24 23 20 19 17 13 9 7 5 4 4
0 0 1 2 1 3 9 12 10 6 3 2 1 0 0 1 0 0 1 2 4 6 8 12 17 21 21 17 11 6 7 5 6 12 15 12 11 13 17 20 20 20 20 18 13 9 4 3 4
0 0 1 1 1 1 3 6 6 4 2 1 0 1 1 0 0 0 1 1 2 6 9 13 18 18 16 12 6 4 4 3 2 5 7 5 3 5 8 11 15 18 19 20 17 13 8 6 6
0 0 0 0 0 0 0 3 5 3 1 1 2 2 2 1 0 0 0 0 2 4 7 14 18 18 13 8 4 2 1 0 0 1 2 1 0 1 2 5 9 11 13 15 15 14 13 9 7
0 0 0 0 0 0 0 2 3 3 4 5 4 3 2 1 0 0 0 1 2 3 5 11 16 15 11 8 6 3 1 0 0 0 0 0 0 0 0 1 3 5 7 9 10 11 12 11 9
0 0 0 0 0 0 0 1 2 4 6 7 4 2 1 0 0 0 0 0 1 1 2 6 9 9 7 6 5 3 1 0 0 0 0 0 0 0 0 0 0 1 3 4 6 7 8 9 11
0 0 0 0 1 0 0 1 3 4 6 6 3 1 0 0 0 0 0 0 0 1 1 2 3 3 2 2 2 1 1 0 0 0 0 0 0 0 0 0 0 0 0 1 2 4 5 6 7
0 0 0 0 0 0 1 4 5 3 3 3 2 1 0 0 0 0 0 0 0 0 0 0 0 0 0 0 0 0 0 0 0 0 0 0 0 0 0 0 0 0 0 0 0 1 2 2 2
0 0 0 0 0 0 2 6 4 1 1 1 1 0 0 0 0 0 0 0 0 0 0 0 0 0 0 0 0 0 0 0 0 0 0 0 0 0 0 0 0 0 0 0 0 0 1 1 1
0 0 0 0 0 0 1 3 3 1 0 0 0 0 0 0 0 0 0 0 0 0 0 0 0 0 0 0 0 0 0 0 0 0 0 0 0 0 1 0 0 0 0 0 1 0 0 1 2
0 0 0 0 0 0 0 0 1 0 0 0 0 0 0 0 0 0 0 0 0 0 0 0 0 0 0 0 0 0 0 0 0 0 0 0 0 0 0 0 0 0 0 0 0 0 0 1 1
0 0 0 0 0 0 0 0 0 0 0 0 0 0 0 0 0 0 0 0 0 0 0 0 0 0 0 0 0 0 0 0 0 0 0 0 0 0 0 0 0 0 0 0 0 0 0 0 0

GEFSSGP_con_probscp_042.txt.gz
Probability
0 0 0 0 0 0 0 0 0 0 0 1 3 2 1 0 0 0 0 0 1 1 2 5 8 6 4 3 3 2 1 1 1 0 0 0 0 0 0 0 0 0 0 0 0 0 0 0 0
0 0 0 0 0 0 0 0 0 0 1 2 3 2 1 0 0 0 0 1 1 1 2 5 9 8 6 5 5 5 3 3 2 1 0 0 0 0 0 0 0 0 0 0 0 0 0 0 0
0 0 0 0 0 0 0 0 1 2 3 4 3 2 0 0 0 0 1 1 1 0 1 5 9 10 7 7 9 10 8 5 3 1 0 0 0 0 0 0 0 0 0 0 0 0 0 0 0
0 0 0 0 0 0 0 1 3 5 6 6 4 2 0 0 1 2 1 1 1 1 2 6 9 10 9 9 11 14 12 8 4 1 0 0 0 0 0 0 0 0 0 0 0 0 0 0 0
0 0 0 0 0 0 0 2 8 11 12 9 6 3 1 1 3 3 2 1 1 2 3 6 10 10 9 10 12 14 13 9 5 2 1 0 0 0 0 0 0 0 0 1 0 0 0 0 0
0 0 0 0 0 0 0 4 13 22 23 17 10 6 3 2 4 4 2 1 1 3 4 7 10 10 9 9 10 11 10 8 6 3 2 0 0 0 0 0 1 1 1 2 1 0 0 0 0
0 0 0 0 0 0 2 9 23 37 38 27 16 10 5 4 9 11 7 4 3 3 4 6 7 7 6 6 6 6 6 6 5 3 2 1 1 0 0 1 2 2 2 2 3 2 3 2 2
0 0 0 0 0 0 6 19 36 50 51 38 25 17 12 15 25 29 22 15 10 6 4 4 4 3 2 2 2 2 2 2 3 3 2 2 2 1 1 2 3 3 2 3 5 7 8 9 9
0 0 0 0 0 1 13 32 50 61 64 55 44 34 31 39 52 53 42 30 20 13 7 6 6 4 1 1 1 1 1 2 2 2 2 3 3 3 4 6 7 6 5 5 9 15 17 21 24
0 0 0 0 1 5 22 44 59 69 74 72 66 61 60 66 74 73 60 47 37 28 21 18 16 12 7 4 3 3 3 3 4 5 6 8 9 8 8 10 12 12 12 12 18 26 31 37 43
0 0 0 0 2 9 27 49 64 72 77 79 80 80 80 82 82 79 72 63 54 46 41 37 34 30 22 14 11 10 9 9 10 13 14 17 18 16 16 15 13 15 18 22 28 35 39 45 53
0 0 0 1 5 16 34 52 64 69 72 76 81 85 86 85 82 78 73 67 61 55 52 50 48 45 38 27 21 21 20 19 20 22 24 26 25 23 20 15 11 13 17 23 29 31 31 36 42
0 0 0 2 11 27 45 54 58 59 60 63 71 78 81 81 77 72 66 60 55 51 50 50 48 44 38 29 25 26 27 25 24 24 27 29 27 22 16 10 7 8 11 15 17 18 18 21 23
0 0 0 3 14 31 47 52 49 46 45 47 54 62 67 67 65 60 54 49 44 40 38 36 33 29 25 21 20 22 21 18 17 18 21 21 19 15 11 6 4 3 5 6 6 6 9 12 12
0 0 0 2 8 21 35 43 39 31 29 31 35 42 45 45 44 42 37 33 29 23 20 19 17 15 13 12 11 11 10 8 8 10 10 10 9 8 7 4 1 0 1 2 1 1 3 5 6
0 0 0 1 3 9 20 29 27 19 16 18 20 24 26 25 25 24 21 16 12 9 8 8 7 6 5 5 5 4 3 3 3 3 4 6 8 7 4 1 0 0 0 0 0 0 1 1 1
0 0 0 1 1 3 9 14 14 10 7 8 9 11 13 13 13 11 8 6 4 3 3 3 3 2 1 1 2 2 1 0 0 0 1 3 6 5 2 0 0 0 0 0 0 0 0 0 0
0 0 0 1 2 2 3 5 6 5 4 3 2 3 5 6 5 3 2 1 1 1 1 1 1 0 0 0 0 0 0 0 0 0 0 0 1 2 1 0 0 0 0 0 0 0 0 0 0
0 0 0 0 1 1 1 2 3 4 4 2 0 0 1 1 0 0 0 0 0 0 0 0 0 0 0 0 0 0 0 0 0 0 0 0 0 0 0 0 0 0 0 0 0 0 0 0 0
1 0 0 0 0 0 1 1 2 3 3 1 0 0 0 0 0 0 0 0 0 0 0 0 0 0 0 0 0 0 0 0 0 0 0 0 0 0 0 0 0 0 0 0 0 0 0 0 0
1 0 0 0 0 0 0 1 1 1 1 0 0 0 0 0 0 0 0 0 0 0 0 0 0 0 0 0 0 0 0 0 0 0 0 0 0 0 0 0 0 0 0 0 0 0 0 0 0
1 0 0 0 0 0 0 1 1 0 0 0 0 0 0 0 0 0 0 0 0 0 0 0 0 0 0 0 0 0 0 0 0 0 0 0 0 0 0 0 0 0 0 0 0 0 0 0 0
0 0 0 0 0 0 0 0 0 0 0 0 0 0 0 0 0 0 0 0 0 0 0 0 0 0 0 0 0 0 0 0 0 0 0 0 0 0 0 0 0 0 0 0 0 0 0 0 0
0 0 0 0 0 0 0 0 0 0 0 0 0 0 0 0 0 0 0 0 0 0 0 0 0 0 0 0 0 0 0 0 0 0 0 0 0 0 0 0 0 0 0 0 0 0 0 0 0
0 0 0 0 0 0 0 0 0 0 0 0 0 0 0 0 0 0 0 0 0 0 0 0 0 0 0 0 0 0 0 0 0 0 0 0 0 0 0 0 0 0 0 0 0 0 0 0 0
0 0 0 0 0 0 0 0 0 0 0 0 0 0 0 0 0 0 0 0 0 0 0 0 0 0 0 0 0 0 0 0 0 0 0 0 0 0 0 0 0 0 0 0 0 0 0 0 0
0 0 0 0 0 0 0 0 0 0 0 0 0 0 0 0 0 0 0 0 0 0 0 0 0 0 0 0 0 0 0 0 0 0 0 0 0 0 0 0 0 0 0 0 0 0 0 0 0
0 0 0 0 0 0 0 0 0 0 0 0 0 0 0 0 0 0 0 0 0 0 0 0 0 0 0 0 0 0 0 0 0 0 0 0 0 0 0 0 0 0 0 0 0 0 0 0 0
0 0 0 0 0 0 0 0 0 0 0 0 0 0 0 0 0 0 0 0 0 0 0 0 0 0 0 0 0 0 0 0 0 0 0 0 0 0 0 0 0 0 0 0 0 0 0 0 0
0 0 0 0 0 0 0 0 0 0 0 0 0 0 0 0 0 0 0 0 0 0 0 0 0 0 0 0 0 0 0 0 0 0 0 0 0 0 0 0 0 0 0 0 0 0 0 0 0

GEFSSGP_con_probscp_048.txt.gz
Probability
0 0 0 0 0 0 0 0 0 0 0 0 0 1 2 1 0 0 0 0 1 2 1 0 0 1 2 4 3 1 0 1 0 0 0 0 0 0 0 0 0 0 0 0 0 0 0 0 0
0 0 0 0 0 0 0 0 0 0 0 0 0 1 3 3 1 0 0 1 3 3 2 1 0 1 2 4 3 2 1 1 1 0 0 0 0 0 0 0 0 0 0 0 0 0 0 0 0
0 0 0 0 0 0 0 0 0 0 0 0 0 1 3 4 2 0 0 1 4 5 4 2 2 2 3 3 4 3 2 2 1 0 0 0 0 0 0 0 0 0 0 0 0 0 0 0 0
0 0 0 0 0 0 0 0 0 0 0 0 0 1 2 2 1 0 0 2 5 5 4 5 5 5 5 5 5 5 4 3 1 0 0 0 0 0 0 0 0 0 0 0 0 0 0 0 0
0 0 0 0 0 0 0 1 1 2 2 2 1 2 1 1 0 0 0 1 3 3 3 4 6 8 7 6 7 7 6 4 2 1 0 0 0 0 0 0 0 0 0 0 0 0 0 0 0
0 0 0 0 0 0 0 2 5 6 7 5 3 3 3 2 2 1 0 0 1 1 1 1 4 6 7 7 7 8 7 5 3 2 1 1 1 0 0 0 0 0 0 0 0 0 0 0 0
0 0 0 0 0 0 0 2 7 9 9 6 4 5 7 7 4 2 0 0 0 1 1 0 1 4 6 7 8 7 7 5 4 3 2 2 2 1 0 0 0 0 0 0 0 0 0 0 0
0 0 0 0 0 1 2 4 7 9 8 6 5 8 13 16 14 10 6 3 3 3 2 1 1 2 4 5 6 7 8 7 4 2 2 3 2 1 0 0 0 1 1 0 1 1 0 0 0
0 0 0 0 0 2 6 9 11 11 13 16 20 27 34 34 30 26 20 11 7 6 2 1 1 1 2 4 6 7 8 6 4 3 2 2 1 0 0 0 1 1 1 1 2 2 2 2 1
0 0 0 0 1 5 13 20 21 23 30 37 47 59 62 54 45 40 30 19 11 8 5 2 2 2 3 4 7 8 7 5 5 5 4 2 2 2 3 4 4 2 1 2 3 4 5 7 7
0 0 0 1 3 10 23 33 38 41 45 50 62 75 75 66 54 43 32 22 16 14 10 5 3 3 4 5 7 7 6 5 5 7 6 6 7 7 9 10 8 5 3 3 4 5 8 12 14
1 1 3 8 16 27 40 50 53 53 52 55 63 71 71 64 52 38 29 25 23 20 16 10 6 5 6 6 6 5 4 4 5 7 9 11 13 12 11 10 8 7 5 4 5 6 7 10 12
0 1 6 19 35 49 60 61 57 53 55 59 63 66 63 55 42 30 25 25 23 20 16 11 7 6 5 4 3 3 2 2 4 6 9 12 13 11 8 5 4 4 4 3 3 4 4 5 6
0 0 6 20 37 52 62 61 50 44 47 53 57 57 52 43 31 22 19 18 15 12 10 7 4 3 2 1 1 1 0 0 1 3 5 6 7 7 6 3 1 1 2 1 1 1 1 3 4
0 0 2 9 20 32 43 46 38 32 35 41 45 44 39 30 21 14 11 9 7 5 4 2 1 0 0 0 0 0 0 0 0 1 1 1 1 3 4 3 1 1 1 1 0 0 0 1 2
0 0 0 2 6 12 21 25 24 23 27 31 32 30 25 18 12 7 5 3 3 2 1 0 0 0 0 0 0 0 0 0 0 0 0 0 0 1 1 1 1 2 2 1 0 0 0 0 1
0 0 0 0 1 4 8 13 14 17 21 22 19 17 15 11 7 4 2 1 1 1 0 0 0 0 0 0 0 0 0 0 0 0 0 0 0 0 0 0 0 1 1 0 0 0 0 0 0
0 0 0 0 0 2 5 9 10 11 13 12 8 8 8 6 3 2 0 0 0 0 0 0 0 0 0 0 0 0 0 0 0 0 0 0 0 0 0 0 0 0 0 0 0 0 0 0 0
0 0 0 0 0 0 2 4 5 5 5 4 3 4 4 2 1 0 0 0 0 0 0 0 0 0 0 0 0 0 0 0 0 0 0 0 0 0 0 0 0 0 0 0 0 0 0 0 0
0 0 0 0 0 0 1 1 1 1 1 1 1 1 1 1 0 0 0 0 0 0 0 0 0 0 0 0 0 0 0 0 0 0 0 0 0 0 0 0 0 0 0 0 0 0 0 0 0
0 0 0 0 0 0 0 0 0 0 0 0 0 0 0 0 0 0 0 0 0 0 0 0 0 0 0 0 0 0 0 0 0 0 0 0 0 0 0 0 0 0 0 0 0 0 0 0 0
0 0 0 0 0 0 0 0 0 0 0 0 0 0 0 0 0 0 0 0 0 0 0 0 0 0 0 0 0 0 0 0 0 0 0 0 0 0 0 0 0 0 0 0 0 0 0 0 0
0 0 0 0 0 0 0 0 0 0 0 0 0 0 0 0 0 0 0 0 0 0 0 0 0 0 0 0 0 0 0 0 0 0 0 0 0 0 0 0 0 0 0 0 0 0 0 0 0
0 0 0 0 0 0 0 0 0 0 0 0 0 0 0 0 0 0 0 0 0 0 0 0 0 0 0 0 0 0 0 0 0 0 0 0 0 0 0 0 0 0 0 0 0 0 0 0 0
0 0 0 0 0 0 0 0 0 0 0 0 0 0 0 0 0 0 0 0 0 0 0 0 0 0 0 0 0 0 0 0 0 0 0 0 0 0 0 0 0 0 0 0 0 0 0 0 0
0 0 0 0 0 0 0 0 0 0 0 0 0 0 0 0 0 0 0 0 0 0 0 0 0 0 0 0 0 0 0 0 0 0 0 0 0 0 0 0 0 0 0 0 0 0 0 0 0
0 0 0 0 0 0 0 0 0 0 0 0 0 0 0 0 0 0 0 0 0 0 0 0 0 0 0 0 0 0 0 0 0 0 0 0 0 0 0 0 0 0 0 0 0 0 0 0 0
0 0 0 0 0 0 0 0 0 0 0 0 0 0 0 0 0 0 0 0 0 0 0 0 0 0 0 0 0 0 0 0 0 0 0 0 0 0 0 0 0 0 0 0 0 0 0 0 0
0 0 0 0 0 0 0 0 0 0 0 0 0 0 0 0 0 0 0 0 0 0 0 0 0 0 0 0 0 0 0 0 0 0 0 0 0 0 0 0 0 0 0 0 0 0 0 0 0
0 0 0 0 0 0 0 0 0 0 0 0 0 0 0 0 0 0 0 0 0 0 0 0 0 0 0 0 0 0 0 0 0 0 0 0 0 0 0 0 0 0 0 0 0 0 0 0 0

GEFSSGP_con_probscp_054.txt.gz
Probability
0 0 0 0 0 0 0 0 0 0 0 0 0 0 0 0 0 0 0 0 0 0 0 0 0 0 0 0 1 3 6 7 4 1 0 0 0 0 0 0 0 0 0 0 0 0 0 0 0
0 0 0 0 0 0 0 0 0 0 0 0 0 0 0 0 0 0 0 0 0 0 0 1 1 1 0 0 1 2 5 5 4 2 1 0 0 0 0 0 0 0 0 0 0 0 0 0 0
0 0 0 0 0 0 0 0 0 0 0 0 0 0 0 0 0 0 0 0 0 0 1 2 2 2 1 0 0 1 2 3 3 2 1 0 0 0 0 0 0 0 0 0 0 0 0 0 0
0 0 0 0 0 0 0 0 0 0 0 0 0 0 0 0 0 0 0 0 0 0 1 2 3 3 1 0 0 0 1 2 2 1 0 0 0 0 0 0 0 0 0 0 0 0 0 0 0
0 0 0 0 0 0 0 1 1 0 1 1 0 0 0 1 0 0 0 0 0 0 0 1 2 2 1 0 1 2 3 4 3 1 1 0 0 0 0 0 0 0 0 0 0 0 0 0 0
0 0 0 0 0 0 0 1 2 1 2 2 1 0 2 4 2 0 0 0 0 0 0 0 1 0 0 0 2 5 5 5 5 4 2 1 0 0 0 0 0 0 0 0 0 0 0 0 0
0 0 0 0 0 0 0 3 5 4 3 2 2 1 4 7 5 1 0 0 0 0 0 0 1 1 1 1 2 5 5 5 5 5 5 3 1 0 0 0 0 0 0 0 0 0 0 0 0
0 0 0 0 0 1 1 5 9 8 5 5 5 6 10 14 10 6 3 2 1 0 0 1 2 2 2 2 2 2 3 3 3 5 7 7 3 1 1 2 2 2 1 0 0 0 0 0 0
0 0 0 0 0 1 1 5 9 10 9 12 16 22 27 25 18 13 9 6 5 3 2 1 2 3 3 3 2 2 4 4 4 5 7 7 3 1 2 5 6 5 2 1 1 0 0 0 1
0 0 0 0 0 0 2 4 6 7 12 21 34 44 46 37 26 19 14 11 9 8 4 2 3 3 4 4 6 8 10 12 10 9 10 8 5 4 6 9 11 9 5 4 4 3 3 4 6
0 0 0 0 0 0 2 5 6 9 18 33 46 54 53 43 31 23 16 12 12 11 7 4 5 7 7 7 10 12 14 15 15 12 11 10 9 9 12 16 18 16 13 12 12 12 10 11 13
0 0 0 0 0 0 2 6 13 21 33 47 55 56 54 48 39 31 21 16 15 13 10 9 10 12 12 10 9 10 10 11 11 8 8 11 13 15 18 22 24 23 23 23 24 23 20 18 19
0 0 0 0 0 0 2 8 20 33 46 58 65 63 59 55 50 41 30 24 21 19 17 16 16 15 13 10 7 6 6 5 4 3 4 8 11 14 17 21 21 21 22 24 26 25 23 22 23
0 0 0 0 0 0 3 10 22 35 48 60 68 69 65 60 54 46 36 29 25 22 22 19 16 13 10 8 7 6 3 1 1 1 2 3 5 7 10 13 14 13 14 17 19 19 19 22 24
0 0 0 0 0 0 3 11 22 34 45 56 65 66 62 56 50 44 35 27 22 19 17 13 9 7 6 6 5 4 2 0 0 0 0 0 0 2 4 6 7 7 8 9 11 13 15 18 20
0 0 0 0 0 1 2 9 20 30 40 50 56 56 53 46 40 36 29 21 17 13 9 5 3 3 3 2 2 1 0 0 0 0 0 0 0 1 3 2 3 4 3 4 6 8 10 12 13
0 0 0 0 0 1 2 5 12 21 31 41 45 45 41 33 28 26 20 15 12 8 4 1 0 1 1 1 1 0 0 0 0 0 0 0 0 1 1 1 1 1 1 1 2 3 5 6 6
0 0 0 0 0 1 1 2 7 13 21 29 36 36 31 23 19 17 13 9 6 3 1 0 0 0 0 1 1 0 0 0 0 0 0 0 0 0 0 0 0 0 0 0 0 1 1 2 2
0 0 0 0 0 0 0 2 5 8 12 18 25 27 24 18 14 10 7 5 3 1 0 0 0 0 0 1 1 0 0 0 0 0 0 0 0 0 0 0 0 0 0 0 0 0 0 1 1
0 0 0 0 0 0 0 1 3 5 6 8 13 16 17 14 9 4 2 1 1 0 0 1 1 1 0 0 0 0 0 0 0 0 0 0 0 0 0 0 0 0 0 0 0 0 0 0 0
0 0 0 0 0 0 0 0 1 2 2 3 5 7 7 6 4 1 0 0 0 0 0 2 2 3 2 2 0 0 0 0 0 0 0 0 0 0 0 0 0 0 0 0 0 0 0 0 0
0 0 0 0 0 0 0 0 0 0 0 1 2 2 1 1 1 0 0 0 0 0 1 3 6 8 8 6 2 1 0 0 0 0 0 0 0 0 0 0 0 0 0 0 0 0 0 0 0
0 0 0 0 0 0 0 0 0 0 0 1 1 0 0 0 0 0 0 0 0 0 1 4 9 13 12 8 4 3 2 0 0 0 0 0 0 0 0 0 0 0 0 0 0 0 0 0 0
0 0 0 0 0 0 0 0 0 0 0 0 0 0 0 0 0 0 0 0 0 0 1 4 8 11 9 6 4 3 2 0 0 0 0 0 0 0 0 0 0 0 0 0 0 0 0 0 0
0 0 0 0 0 0 0 0 0 0 0 0 0 0 0 0 0 0 0 0 0 0 1 2 4 5 4 2 1 1 1 0 0 0 0 0 0 0 0 0 0 0 0 0 0 0 0 0 0
0 0 0 0 0 0 0 0 0 0 0 0 0 0 0 0 0 0 0 0 0 0 1 1 1 1 1 0 0 0 0 0 0 0 0 0 0 0 0 0 0 0 0 0 0 0 0 0 0
0 0 0 0 0 0 0 0 0 0 0 0 0 0 0 0 0 0 0 0 0 0 0 0 0 0 0 0 0 0 0 0 0 0 0 0 0 0 0 0 0 0 0 0 0 0 0 0 0
0 0 0 0 0 0 0 0 0 0 0 0 0 0 0 0 0 0 0 0 0 0 0 0 0 0 0 0 0 0 0 0 0 0 0 0 0 0 0 0 0 0 0 0 0 0 0 0 0
0 0 0 0 0 0 0 0 0 0 0 0 0 0 0 0 0 0 0 0 0 0 0 0 0 0 0 0 0 0 0 0 0 0 0 0 0 0 0 0 0 0 0 0 0 0 0 0 0
0 0 0 0 0 0 0 0 0 0 0 0 0 0 0 0 0 0 0 0 0 0 0 0 0 0 0 0 0 0 0 0 0 0 0 0 0 0 0 0 0 0 0 0 0 0 0 0 0

GEFSSGP_con_probscp_060.txt.gz
Probability
0 0 0 0 0 0 0 0 0 0 0 0 1 2 4 3 1 0 2 4 4 1 0 0 0 0 0 0 0 0 0 0 0 0 0 0 0 0 0 0 0 0 0 0 0 0 0 0 0
0 0 0 0 0 0 0 0 0 0 0 0 0 1 2 1 0 0 1 3 2 0 0 0 0 0 0 0 0 0 0 0 0 0 0 0 0 0 0 0 0 0 0 0 0 0 0 0 0
0 0 0 0 0 1 0 0 0 0 0 0 1 2 2 1 0 0 1 2 1 0 0 0 0 0 0 0 0 0 0 0 1 1 0 0 0 0 0 0 0 0 0 0 0 0 0 0 0
0 0 0 0 0 0 0 1 1 2 1 3 7 7 3 1 0 0 0 0 1 2 1 1 1 0 0 0 0 0 1 1 2 1 0 0 0 0 0 0 0 0 0 0 0 0 0 0 0
0 0 0 0 0 0 1 2 4 5 4 7 15 15 7 1 0 0 0 1 4 7 6 3 3 2 1 0 0 0 1 2 2 2 0 0 0 0 0 0 0 0 0 0 0 0 0 0 0
0 0 0 0 0 0 1 3 7 9 8 12 21 20 10 3 0 0 1 2 8 14 10 5 4 4 2 0 0 0 1 1 2 1 0 0 0 0 0 0 0 0 0 0 0 0 0 0 0
0 0 0 0 0 1 2 6 12 15 15 17 22 21 12 5 1 0 1 4 13 18 12 4 3 3 1 0 0 0 0 0 1 1 0 0 0 0 0 0 0 0 0 0 0 0 0 0 0
0 0 0 0 0 2 4 8 15 21 24 27 29 26 18 9 3 3 4 10 19 21 13 5 3 3 2 2 1 1 0 0 0 0 0 0 0 0 1 2 3 2 0 0 0 0 0 1 1
0 0 0 0 1 2 5 8 14 21 30 44 49 42 29 16 9 9 13 21 27 25 16 11 10 9 8 7 5 3 1 1 3 3 2 2 3 3 4 5 6 4 1 1 2 3 3 3 3
0 0 0 0 1 3 6 8 11 19 35 54 60 49 32 21 15 15 21 30 34 28 21 21 23 21 20 18 14 9 7 8 10 10 9 8 9 8 9 10 9 5 3 2 4 6 7 7 6
0 0 0 0 1 2 4 8 14 26 40 49 49 37 25 21 21 25 31 39 40 33 30 32 33 35 37 33 24 17 15 16 16 16 14 13 14 13 15 15 12 9 7 6 9 11 11 11 11
0 0 0 1 2 2 3 9 24 37 40 37 32 25 21 25 32 39 46 52 51 45 41 41 41 44 47 41 29 20 17 15 16 16 14 13 14 15 17 17 13 12 12 12 15 17 16 15 15
0 0 0 1 2 3 3 11 27 36 33 27 25 25 27 34 47 57 64 68 65 59 53 48 45 42 39 32 23 15 11 9 10 10 10 8 9 11 14 16 14 11 12 13 15 17 16 16 17
0 0 0 1 2 2 3 10 23 29 26 24 27 31 35 47 62 72 76 76 72 66 57 47 38 30 23 17 12 8 5 4 4 4 4 4 3 4 8 12 13 11 10 11 11 10 10 12 12
0 0 0 0 1 1 1 9 21 25 21 24 32 39 46 59 72 78 79 74 69 62 52 39 27 19 14 10 6 4 3 2 2 2 2 1 1 1 2 6 8 8 8 9 8 6 7 8 8
0 0 0 0 0 0 2 9 18 20 19 23 32 41 53 64 72 74 71 67 62 56 48 35 21 13 10 6 4 3 2 2 2 2 2 2 1 0 0 1 2 3 4 5 5 5 6 8 8
0 0 0 0 0 0 3 7 11 12 15 22 30 39 50 60 64 62 60 57 54 50 47 36 20 9 5 3 2 1 1 1 1 2 3 2 1 0 0 0 0 0 1 2 3 3 4 5 6
0 0 0 0 0 0 2 4 5 6 11 20 28 36 44 52 54 50 47 44 42 40 38 31 18 7 2 0 0 0 0 0 1 2 2 2 1 1 1 1 0 0 0 1 1 2 2 1 1
0 0 0 0 0 0 1 2 4 5 9 16 26 33 37 42 44 40 35 32 29 27 25 20 11 4 1 0 0 0 0 0 1 2 2 1 0 1 1 1 0 0 0 0 0 1 1 0 0
0 0 0 0 0 0 0 3 6 7 9 13 20 27 29 31 32 31 26 21 17 16 15 11 6 2 0 0 1 1 0 0 1 2 2 2 1 0 1 1 1 1 1 0 0 0 0 0 0
0 0 0 0 0 0 0 3 6 7 7 8 13 18 20 21 22 20 16 11 8 7 6 5 5 5 4 2 1 1 1 1 1 2 3 3 2 1 1 2 1 1 0 0 0 0 0 0 0
0 0 0 0 0 0 0 1 4 5 4 5 7 9 10 10 11 10 7 4 3 2 2 7 12 15 15 11 5 2 3 3 3 3 3 3 3 2 2 2 1 0 0 0 0 0 0 0 0
0 0 0 0 0 0 0 0 1 2 2 2 3 3 3 3 3 3 2 2 1 0 2 11 24 31 32 24 13 7 5 4 3 3 3 3 3 2 1 1 0 0 0 0 0 0 0 0 0
0 0 0 0 0 0 0 0 0 0 0 1 1 1 1 0 0 0 0 1 1 0 3 16 33 43 40 29 19 12 7 5 3 3 2 2 1 1 0 0 0 0 0 0 0 0 0 0 0
0 0 0 1 0 0 0 0 0 0 0 0 0 0 0 0 0 0 0 1 2 2 6 19 38 46 38 25 16 11 7 4 2 1 1 1 0 0 0 0 0 0 0 0 0 0 0 0 0
0 0 0 0 0 0 0 0 1 1 1 0 0 0 0 0 0 0 0 2 4 4 8 19 36 41 30 18 12 8 4 1 1 0 0 0 0 0 0 0 0 0 0 0 0 0 0 0 0
0 0 0 0 0 0 0 0 1 2 1 0 0 0 0 0 0 0 0 1 3 5 10 21 32 32 20 11 9 5 2 0 0 0 0 0 0 0 0 0 0 0 0 0 0 0 0 0 0
0 0 0 0 0 0 0 0 1 1 1 0 0 0 0 0 0 0 0 1 2 5 11 20 25 20 10 6 5 3 0 0 0 0 0 0 0 0 0 0 0 0 0 0 0 0 0 0 0
0 0 0 0 0 0 0 0 0 0 0 0 0 0 0 0 0 0 0 0 1 4 9 14 14 10 4 2 2 1 0 0 0 0 0 0 0 0 0 0 0 0 0 0 0 0 0 0 0
0 0 0 0 0 0 0 0 0 0 0 0 0 0 0 0 0 0 0 1 2 4 6 7 7 5 2 1 1 0 0 0 0 0 0 0 0 0 1 1 1 0 0 0 0 0 0 0 0

GEFSSGP_con_probscp_066.txt.gz
Probability
0 0 0 0 0 0 0 0 0 0 0 1 4 5 3 1 0 0 0 0 1 2 1 0 0 0 0 0 0 0 0 0 0 0 0 0 0 0 0 0 0 0 0 0 0 0 0 0 0
0 0 0 0 0 0 0 0 0 1 1 2 4 5 4 2 1 0 0 0 1 1 1 1 0 0 0 0 0 0 0 0 0 0 0 0 0 0 0 0 0 0 0 0 0 0 0 0 0
0 0 0 0 0 0 0 0 1 3 3 4 5 5 4 3 2 0 0 0 0 1 2 2 1 1 0 0 0 0 0 0 0 0 0 0 0 0 0 0 0 0 0 0 0 0 0 0 0
0 0 0 0 0 1 1 1 3 5 6 6 7 6 5 4 3 1 0 0 0 1 2 2 2 1 0 0 0 0 0 0 0 0 0 0 0 0 0 0 0 0 0 0 0 0 0 0 0
0 0 0 0 0 1 2 4 6 8 9 10 13 12 10 8 6 3 1 1 1 1 1 1 1 0 0 0 0 0 0 0 0 0 0 0 0 0 0 0 0 0 0 0 0 0 0 0 0
0 0 0 0 0 0 2 7 12 14 14 13 16 18 15 12 8 3 1 1 0 0 0 0 0 0 0 0 0 0 0 0 0 0 0 0 0 0 0 0 0 0 0 0 0 0 0 0 0
0 0 0 0 0 0 2 7 13 17 17 15 16 19 18 13 8 5 3 1 0 0 0 0 0 0 0 0 0 0 0 0 0 0 0 0 0 0 0 0 0 0 0 0 0 0 0 0 0
0 0 0 0 0 0 2 5 9 13 16 16 16 19 20 19 16 12 7 4 3 1 1 1 0 0 0 0 1 1 1 0 0 0 0 0 0 0 0 0 0 0 0 0 0 0 0 0 0
0 0 0 0 0 1 1 2 5 9 14 18 20 22 24 28 29 21 15 12 7 3 1 1 0 0 0 1 2 3 3 1 1 1 0 0 0 0 0 0 0 0 0 0 0 0 0 1 2
0 0 0 0 1 2 2 1 3 6 11 17 22 25 30 35 34 27 21 17 10 3 1 0 0 0 0 1 1 1 2 2 2 1 0 0 0 0 0 0 1 0 0 0 0 0 1 2 3
0 0 1 0 1 5 5 3 2 3 5 10 18 25 29 32 32 28 23 18 12 6 2 0 0 0 0 0 0 0 0 1 1 1 0 0 0 0 0 0 0 0 0 0 0 0 0 1 2
0 0 0 0 1 5 7 6 4 2 1 4 12 19 23 26 27 27 24 19 15 11 5 1 0 0 0 0 0 0 0 0 0 0 0 0 0 0 0 0 0 0 0 0 0 0 0 0 0
0 0 0 0 1 3 6 8 7 4 2 3 8 12 17 22 25 27 26 22 19 15 8 3 1 2 2 1 0 0 0 0 0 0 0 0 0 0 0 0 0 0 0 0 0 0 0 1 1
0 0 0 0 0 1 3 6 7 4 3 3 4 6 10 17 24 26 26 23 20 16 11 5 3 4 4 3 1 0 0 0 0 0 0 0 0 0 0 0 0 0 0 0 0 0 0 1 1
0 0 0 0 0 0 1 3 3 3 3 3 2 3 6 12 17 21 22 23 21 17 11 5 3 4 4 3 1 0 0 0 0 0 0 0 0 0 0 0 0 0 0 0 0 0 0 1 2
0 0 0 0 0 0 0 1 1 2 2 1 1 2 4 8 11 15 19 22 21 16 10 4 2 2 2 2 1 0 0 0 0 0 0 0 0 0 0 0 0 0 0 0 0 0 0 1 1
0 0 0 0 0 0 0 0 1 3 2 1 0 2 5 8 9 10 15 19 19 15 9 4 1 0 1 1 0 0 0 0 0 0 0 0 0 0 0 0 0 0 0 0 0 0 0 0 0
0 0 0 0 0 0 0 1 2 3 3 1 0 2 6 8 6 7 11 15 15 12 8 3 0 0 0 0 0 0 0 0 0 0 0 0 0 0 0 0 0 0 0 0 0 0 0 0 0
0 0 0 0 0 0 0 1 2 3 3 2 1 1 4 5 4 5 9 12 11 9 5 2 0 0 0 0 0 0 0 0 0 0 0 0 0 0 0 0 0 0 0 0 0 0 0 0 0
0 0 0 0 0 0 0 1 2 3 3 2 1 0 1 3 4 5 6 6 6 4 1 0 0 0 0 0 0 0 0 0 0 0 0 0 0 0 0 0 0 0 0 0 0 0 0 0 0
0 0 0 0 0 0 0 1 2 3 3 1 0 0 1 2 3 4 3 2 1 1 0 0 0 0 0 0 0 0 0 0 0 0 0 0 0 0 0 0 0 0 0 0 0 0 0 0 0
0 0 0 0 0 0 0 0 1 2 2 1 0 0 0 1 1 2 2 0 0 0 0 0 0 0 0 0 0 0 0 0 0 0 0 0 0 0 0 0 0 0 0 0 0 0 0 0 0
0 0 0 0 0 0 0 0 0 1 1 1 1 0 0 0 0 1 1 0 0 0 0 0 0 0 0 0 0 0 0 0 0 0 0 0 0 0 0 0 0 0 0 0 0 0 0 0 0
0 0 0 0 0 0 0 0 0 0 0 0 1 0 0 0 0 0 0 0 0 0 0 0 0 0 0 0 0 0 0 0 0 0 0 0 0 0 0 0 0 0 0 0 0 0 0 0 0
0 0 0 0 0 0 0 0 0 0 0 0 1 0 0 0 0 0 0 0 0 0 0 0 0 0 0 0 0 0 0 0 0 0 0 0 0 0 0 0 0 0 0 0 0 0 0 0 0
0 0 0 0 0 0 0 0 0 0 0 0 0 0 0 0 0 0 0 0 0 0 0 0 0 0 1 1 0 0 0 0 0 0 0 0 0 0 0 0 0 0 0 0 0 0 0 0 0
0 0 0 0 0 0 0 0 0 0 0 0 0 0 0 0 0 0 0 0 0 0 0 0 0 1 2 1 0 0 0 0 0 0 0 0 0 0 0 0 0 0 0 0 0 0 0 0 0
0 0 0 0 0 0 0 0 0 0 0 0 0 0 0 0 0 0 0 0 0 0 0 0 1 2 2 1 0 0 0 0 0 0 0 0 0 0 0 0 0 0 0 0 0 0 0 0 0
0 0 0 0 0 0 0 0 0 0 0 0 0 0 0 0 0 0 0 0 0 0 0 1 1 1 1 0 0 0 0 0 0 0 0 0 0 0 0 0 0 0 0 0 0 0 0 0 0
0 0 0 0 0 0 0 0 0 0 0 0 0 0 0 0 0 0 0 0 1 1 1 1 1 0 0 0 0 0 0 0 0 0 0 0 0 0 0 0 0 0 0 0 0 0 0 0 0

GEFSSGP_con_probscp_072.txt.gz
Probability
3 2 1 0 0 0 0 0 0 1 1 1 0 0 1 2 1 0 0 0 1 3 5 4 2 2 2 2 1 0 0 0 0 0 0 0 0 0 0 0 0 0 0 0 0 0 0 0 0
2 1 0 0 0 0 0 0 0 0 0 0 0 0 1 2 3 1 0 0 1 4 5 4 3 2 2 2 1 0 0 0 0 0 0 0 0 0 0 0 0 0 0 0 0 0 0 0 0
1 0 0 0 0 0 0 0 0 1 1 0 0 0 1 2 3 2 1 1 3 5 5 6 5 3 2 3 2 1 1 0 0 1 1 1 1 1 1 1 1 1 0 0 0 0 0 0 0
0 0 0 0 0 0 0 0 1 2 2 1 1 1 1 2 2 1 1 2 4 5 6 6 6 5 4 4 4 3 2 1 1 2 2 2 2 2 2 2 2 1 0 0 0 0 0 0 0
0 0 0 0 0 0 0 0 1 2 3 3 4 4 4 4 3 3 4 4 6 7 6 6 5 5 4 4 4 4 3 3 3 3 3 3 3 3 3 2 1 1 0 0 0 0 0 0 0
0 0 0 0 0 0 0 0 1 3 4 5 7 11 11 9 9 9 8 10 13 15 12 9 7 5 4 4 5 4 3 3 3 3 3 3 3 3 2 1 1 1 1 1 2 1 0 0 0
0 0 0 0 0 0 0 1 2 4 4 5 10 15 17 16 16 16 16 17 20 21 18 13 9 6 5 5 6 6 5 4 3 3 2 2 2 1 1 1 2 2 2 3 3 2 1 1 0
0 0 0 0 0 0 0 1 2 4 5 6 11 16 19 20 21 22 22 21 19 17 14 11 7 5 5 6 7 7 7 5 3 2 1 1 1 1 1 2 3 3 3 3 3 3 3 2 1
0 0 0 0 0 0 0 0 2 4 5 7 12 17 22 24 24 23 21 19 15 9 6 6 5 4 4 5 5 6 6 6 3 1 0 0 0 0 1 1 3 3 3 3 3 3 3 3 2
0 0 0 0 0 0 1 1 3 5 6 8 15 22 27 27 23 19 16 14 11 7 3 3 5 5 4 4 3 2 2 2 1 0 0 0 0 0 0 1 2 2 1 1 2 3 3 3 3
0 0 0 0 0 1 2 3 7 9 7 8 17 28 31 26 18 13 12 10 8 6 4 4 5 5 4 3 2 1 0 0 0 0 0 0 0 0 0 0 1 1 0 0 1 1 2 2 2
0 0 0 0 0 1 3 5 7 8 6 7 16 26 29 22 14 12 11 9 7 6 6 6 6 4 3 3 2 1 0 0 0 0 0 0 0 0 0 0 0 0 0 0 0 0 1 1 1
0 0 0 0 0 1 3 5 6 5 4 7 15 21 21 17 12 11 10 8 8 8 7 7 6 4 3 3 2 1 0 0 0 0 0 0 0 0 0 0 0 0 0 0 0 0 0 0 0
0 0 0 0 0 1 2 3 3 3 3 6 11 13 13 11 9 8 6 7 8 7 5 5 4 3 2 2 2 1 0 0 0 0 0 0 0 0 0 0 0 0 0 0 0 0 0 0 0
0 0 0 0 0 1 1 1 1 2 4 4 5 6 7 9 8 5 4 4 4 3 2 2 2 1 1 1 1 0 0 0 0 0 0 0 0 0 0 0 0 0 0 0 0 0 0 0 0
0 0 0 0 0 0 1 1 1 3 4 3 2 3 5 6 7 5 4 3 1 0 0 1 2 1 0 0 0 0 0 0 0 0 0 0 0 0 0 0 0 0 0 0 0 0 0 0 0
0 0 0 0 0 0 0 0 2 5 5 3 2 2 2 3 4 4 4 4 2 1 0 1 2 1 0 0 0 0 0 0 0 0 0 0 0 0 0 0 0 0 0 0 0 0 0 0 0
0 0 0 0 0 0 0 0 2 5 5 3 2 1 1 1 1 2 2 3 3 2 0 1 1 1 0 0 0 0 0 0 0 0 0 0 0 0 0 0 0 0 0 0 0 0 0 0 0
0 0 0 0 0 0 0 0 2 4 3 1 1 0 0 0 0 1 1 2 2 1 0 0 0 0 0 0 0 0 0 0 0 0 0 0 0 0 0 0 0 0 0 0 0 0 0 0 0
0 0 0 0 0 0 0 0 1 3 2 0 0 0 0 0 0 1 1 2 2 0 0 0 0 0 0 0 0 0 0 0 0 0 0 0 0 0 0 0 0 0 0 0 0 0 0 0 0
0 0 0 0 0 0 0 0 0 1 0 0 0 0 0 0 0 0 1 1 1 0 0 0 0 0 0 0 0 0 0 0 0 0 0 0 0 0 0 0 0 0 0 0 0 0 0 0 0
0 0 0 0 0 0 0 0 0 0 0 0 0 0 0 0 0 0 0 0 0 0 0 0 0 0 0 0 0 0 0 0 0 0 0 0 0 0 0 0 0 0 0 0 0 0 0 0 0
0 0 0 0 0 0 0 0 0 0 0 0 0 0 1 0 0 0 0 0 0 0 0 0 0 0 0 0 0 0 0 0 0 0 0 0 0 0 0 0 0 0 0 0 0 0 0 0 0
0 0 0 0 0 0 0 0 0 0 0 0 0 0 0 0 0 0 0 0 0 0 0 0 0 0 0 0 0 0 0 0 0 0 0 0 0 0 0 0 0 0 0 0 0 0 0 0 0
0 0 0 0 0 0 0 0 0 0 0 0 0 0 0 0 0 0 0 0 0 0 0 0 0 0 0 0 0 0 0 0 0 0 0 0 0 0 0 0 0 0 0 0 0 0 0 0 0
0 0 0 0 0 0 0 0 0 0 0 0 0 0 0 0 0 0 0 0 0 0 0 0 0 0 0 0 0 0 0 0 0 0 0 0 0 0 0 0 0 0 0 0 0 0 0 0 0
0 0 0 0 0 0 0 0 0 0 0 0 0 0 0 0 0 0 0 0 0 0 0 0 0 0 0 0 0 0 0 0 0 0 0 0 0 0 0 0 0 0 0 0 0 0 0 0 0
0 0 0 0 0 0 0 0 0 0 0 0 0 0 0 0 0 0 0 0 0 0 0 0 0 0 0 0 0 0 0 0 0 0 0 0 0 0 0 0 0 0 0 0 0 0 0 0 0
0 0 0 0 0 0 0 0 0 0 0 0 0 0 0 0 0 0 0 0 0 0 0 0 0 0 0 0 0 0 0 0 0 0 0 0 0 0 0 0 0 0 0 0 0 0 0 0 0
0 0 0 0 0 0 0 0 0 0 0 0 0 0 0 0 0 0 0 0 0 0 0 0 0 0 0 0 0 0 0 0 0 0 0 0 0 0 0 0 0 0 0 0 0 0 0 0 0

GEFSSGP_con_probscp_078.txt.gz
Probability
0 0 0 0 0 0 0 0 0 0 0 0 0 0 0 0 1 1 1 0 1 2 1 1 1 0 0 0 0 0 0 0 0 0 0 0 0 0 0 0 0 0 0 0 0 0 0 0 0
0 0 0 0 0 0 0 0 0 0 0 0 0 0 0 0 1 2 1 0 1 2 2 1 1 1 1 1 0 0 0 0 0 0 0 0 0 0 0 0 0 0 0 0 0 0 0 0 0
0 0 0 0 0 0 0 0 0 0 0 0 0 0 1 1 1 2 2 1 2 3 3 2 1 2 2 1 0 0 0 0 0 0 0 0 0 0 0 0 0 0 0 0 0 0 0 0 0
0 0 0 0 0 0 0 0 0 0 0 0 0 0 1 2 1 2 2 2 3 4 3 1 1 2 2 1 0 0 0 0 0 0 0 0 0 0 0 0 0 0 0 0 0 0 0 0 0
0 0 0 0 0 0 0 0 0 0 0 0 0 0 1 1 1 2 2 2 4 4 2 1 1 1 1 0 0 0 0 0 0 0 0 0 0 0 0 0 0 0 0 0 0 0 0 0 0
0 0 0 0 0 0 0 0 0 0 0 0 0 1 2 3 3 3 2 2 4 4 2 1 1 0 0 0 0 0 0 0 0 0 0 0 0 0 0 0 0 0 0 0 0 0 0 0 0
0 0 0 0 0 0 0 0 0 0 1 1 0 1 4 9 9 6 3 1 3 4 2 1 1 0 0 0 0 0 0 0 0 0 0 0 0 0 0 0 0 0 0 0 0 0 0 0 0
0 0 0 0 0 0 0 0 0 1 2 2 1 1 7 16 18 13 7 4 5 4 4 3 2 1 0 0 0 0 0 0 0 0 0 0 0 0 0 0 0 0 0 0 0 0 1 1 0
0 0 0 0 0 0 0 0 0 1 2 3 2 4 12 23 26 23 16 12 10 8 6 5 3 2 1 0 0 0 0 0 0 0 0 0 0 0 0 0 0 0 0 0 0 0 1 1 1
0 0 0 0 0 0 0 0 0 1 2 2 3 8 18 29 31 27 24 19 16 13 9 6 4 3 3 2 2 1 0 0 0 0 0 0 0 0 0 0 0 0 0 0 0 0 1 1 0
0 0 0 0 0 0 0 0 0 0 1 2 4 11 24 33 31 25 23 21 18 15 11 8 7 6 6 5 4 3 1 0 0 0 0 0 0 0 0 0 0 0 0 0 0 0 0 0 0
0 0 0 0 0 0 0 0 0 0 2 2 5 12 24 30 26 20 18 17 16 15 13 11 11 10 9 8 6 3 1 0 0 0 0 0 0 0 0 0 0 0 0 0 0 0 0 0 0
0 0 0 0 0 0 0 0 0 0 1 1 3 10 20 24 19 15 14 14 15 15 14 13 14 14 13 10 6 3 1 0 0 0 0 0 0 0 0 0 0 0 0 0 0 1 0 0 0
0 0 0 0 0 0 0 0 1 1 0 0 2 8 15 17 15 14 14 14 15 15 14 14 15 15 14 10 7 4 2 0 0 0 0 0 0 0 0 0 0 0 0 0 0 0 0 0 0
0 0 0 0 0 0 0 1 2 2 1 1 2 6 10 13 15 15 15 15 17 16 16 15 15 15 12 8 6 4 2 0 0 0 0 0 0 0 0 0 0 0 0 0 0 0 0 0 0
0 0 0 0 0 0 0 1 2 2 1 2 3 5 7 9 11 13 14 15 17 19 18 15 14 13 11 7 4 3 2 0 0 0 0 0 0 0 0 0 0 0 0 0 0 0 0 0 0
0 0 0 0 0 0 0 0 1 1 2 2 3 3 4 5 6 9 11 13 16 19 18 14 13 12 10 6 4 3 2 0 0 0 0 0 0 0 0 0 0 0 0 0 0 0 0 0 0
0 0 0 0 0 0 0 0 0 1 1 1 2 2 2 2 3 6 10 12 13 13 13 12 11 11 9 7 5 4 2 0 0 0 0 0 0 0 0 0 0 0 0 0 0 0 0 0 0
0 0 0 0 0 0 0 0 0 1 1 0 1 1 0 1 3 5 8 11 10 8 8 9 9 10 9 6 5 3 1 0 0 0 0 0 0 0 0 0 0 0 0 0 0 0 0 0 0
0 0 0 0 0 0 0 0 0 0 1 0 0 0 0 1 4 6 8 11 10 6 4 5 7 9 7 5 4 3 1 0 0 0 0 0 0 0 0 0 0 0 0 0 0 0 0 0 0
0 0 0 0 0 0 0 0 0 0 0 0 0 0 0 1 4 6 7 9 9 6 2 2 4 5 4 3 3 2 1 0 0 0 0 0 0 0 0 0 0 0 0 0 0 0 0 0 0
0 0 0 0 0 0 0 0 0 0 0 0 1 1 1 1 2 3 4 6 6 4 2 1 2 2 2 2 2 1 0 0 0 0 0 0 0 0 0 0 0 0 0 0 0 0 0 0 0
0 0 0 0 0 0 0 0 0 0 0 0 1 1 1 0 1 1 1 2 3 3 3 2 2 1 0 1 1 0 0 0 0 0 0 0 0 0 0 0 0 0 0 0 0 0 0 0 0
0 0 0 0 0 0 0 0 0 0 0 0 0 0 0 0 0 0 0 1 2 3 3 2 1 0 0 0 0 0 0 0 0 0 0 0 0 0 0 0 0 0 0 0 0 0 0 0 0
0 0 0 0 0 0 0 0 0 0 0 0 0 0 0 0 0 0 0 0 1 2 2 1 0 0 0 0 0 0 0 0 0 0 0 0 0 0 0 0 0 0 0 0 0 0 0 0 0
0 0 0 0 0 0 0 0 0 0 0 0 0 0 0 0 0 0 0 0 1 1 1 0 0 0 0 0 1 0 0 0 0 0 0 0 0 0 0 0 0 0 0 0 0 0 0 0 0
0 0 0 0 0 0 0 0 0 0 0 0 0 0 0 0 0 0 0 0 0 0 0 0 0 0 0 0 0 0 0 0 0 0 0 0 0 0 0 0 0 0 0 0 0 0 0 0 0
0 0 0 0 0 0 0 0 0 0 0 0 0 0 0 0 0 0 0 0 0 0 0 0 0 0 0 0 0 0 0 1 1 1 1 1 1 1 0 0 0 0 0 0 0 0 0 0 0
0 0 0 0 0 0 0 0 0 0 0 0 0 0 0 0 0 0 0 0 0 0 0 0 0 0 1 2 3 3 3 4 5 3 3 4 4 2 1 0 0 0 0 0 0 0 0 0 0
0 0 0 0 0 0 0 0 0 0 0 0 0 0 0 0 0 0 0 0 0 0 0 0 0 1 2 5 7 6 6 7 8 5 5 6 6 3 2 1 0 0 0 0 0 0 0 0 0

GEFSSGP_con_probscp_084.txt.gz
Probability
0 0 0 1 2 2 1 0 0 1 2 1 0 1 4 6 5 3 4 14 25 22 14 12 11 6 1 0 0 0 0 0 0 0 0 0 0 0 0 0 0 0 0 0 0 0 0 0 0
0 0 0 1 2 1 0 0 0 1 1 1 0 2 5 6 6 5 8 20 29 23 15 15 14 9 3 0 0 0 0 0 0 0 0 0 0 0 0 0 0 0 0 0 0 0 0 0 0
0 0 1 1 1 0 0 0 1 1 1 0 0 2 6 6 6 7 12 22 31 27 21 21 20 13 5 1 0 0 0 0 0 0 0 0 0 0 0 0 0 0 0 0 0 0 0 0 0
0 1 2 1 0 0 0 0 1 1 1 1 3 7 11 10 6 6 11 21 31 31 27 26 24 15 6 1 0 0 0 0 0 0 0 0 0 0 0 0 0 0 0 0 0 0 0 0 0
0 1 2 1 0 0 0 0 0 1 1 2 7 15 18 13 7 5 9 21 32 34 29 28 27 17 5 1 0 0 0 0 0 0 0 0 0 0 0 0 0 0 0 0 0 0 0 0 0
0 0 1 1 0 0 0 0 0 1 2 2 8 18 21 15 10 8 12 22 34 37 31 26 24 15 5 1 0 0 0 0 0 0 0 0 0 0 0 0 0 0 0 0 0 0 0 0 0
0 0 0 0 0 0 0 0 0 1 2 2 5 17 26 23 15 12 15 22 34 39 32 21 14 8 3 1 0 0 0 0 0 0 0 0 0 0 0 0 0 0 0 0 0 0 0 0 0
0 0 0 0 0 0 0 0 0 2 3 3 7 22 38 35 21 15 18 24 33 38 30 16 6 2 1 0 0 0 0 0 0 0 0 0 0 0 0 0 0 0 0 0 0 0 0 0 0
0 0 0 0 0 0 0 0 0 1 3 9 21 38 48 41 26 21 24 29 35 37 28 17 10 5 1 0 0 0 0 0 0 0 0 0 0 0 0 0 0 0 0 0 0 0 0 0 0
0 0 0 0 0 0 0 0 0 1 6 19 39 55 55 42 30 25 29 35 41 39 30 23 19 12 6 4 2 1 1 1 0 0 0 0 0 0 0 0 0 0 0 0 0 0 0 0 0
0 0 0 0 0 0 0 0 0 3 11 26 47 61 57 42 32 28 31 39 44 41 34 32 29 22 17 12 7 5 4 2 1 1 0 0 0 0 0 0 0 0 0 0 0 0 0 0 0
0 0 0 0 0 0 0 0 1 6 15 27 44 57 53 40 32 31 36 43 46 44 42 45 45 41 35 25 15 11 8 4 2 1 0 0 0 0 0 0 0 0 0 0 0 1 1 1 1
0 0 0 0 0 0 0 0 3 10 18 25 38 50 48 37 31 34 40 47 51 51 53 59 62 59 52 40 26 18 12 6 2 1 0 0 0 0 0 0 0 0 0 0 0 1 2 2 1
0 0 0 0 0 0 0 1 6 16 21 22 31 43 45 38 33 34 41 49 56 59 63 66 65 60 54 45 33 22 14 9 4 2 0 0 0 0 0 0 0 0 0 0 0 1 1 2 1
0 0 0 0 0 0 0 4 13 21 21 20 27 38 42 41 37 37 41 49 56 63 66 62 55 50 46 39 30 20 14 10 6 3 1 0 0 0 0 0 0 0 0 0 0 0 0 0 0
0 0 0 0 0 0 1 8 20 23 18 20 27 35 40 41 38 40 43 47 55 62 62 55 48 44 40 33 25 17 12 10 6 2 0 0 0 0 0 0 0 0 0 0 0 0 0 0 0
0 0 0 0 0 0 1 10 21 22 18 23 29 34 38 36 34 38 42 45 52 58 60 55 48 44 38 30 23 17 13 10 5 1 0 0 0 0 0 0 0 0 0 0 0 0 0 0 0
0 0 0 0 0 0 1 8 19 22 21 25 32 37 36 30 29 32 36 39 43 51 57 55 48 43 36 28 21 16 11 7 3 0 0 0 0 0 0 0 0 0 0 0 0 0 0 0 0
0 0 0 0 0 0 1 7 17 23 23 26 32 36 34 26 23 26 30 32 34 40 48 48 41 35 30 23 18 13 8 4 1 0 0 0 0 0 0 0 0 0 0 0 0 0 0 0 0
0 0 0 0 0 0 1 6 16 22 22 24 28 31 29 23 20 23 26 28 29 32 35 35 32 27 22 18 15 11 6 2 0 0 0 0 0 0 0 0 0 0 0 0 0 0 0 0 0
0 0 0 0 0 0 0 5 14 18 18 19 21 23 23 21 18 19 23 24 24 24 25 25 25 23 19 14 11 8 4 2 0 0 0 0 0 0 0 0 0 0 0 0 0 0 0 0 0
0 0 0 0 0 0 0 4 10 12 13 15 16 18 19 18 15 14 16 18 17 17 17 18 20 22 18 12 8 5 2 1 1 0 0 0 0 0 0 0 0 0 0 0 0 0 0 0 0
0 0 0 0 0 0 0 2 4 6 7 10 13 15 16 15 12 10 11 12 13 11 11 12 15 17 15 10 6 3 1 1 1 0 0 0 0 0 0 0 0 0 0 0 0 0 0 0 0
0 0 0 0 0 0 0 1 2 2 2 4 7 10 13 13 10 8 8 8 9 8 6 8 12 14 11 8 5 3 2 2 1 0 0 0 0 0 0 0 0 0 0 0 0 0 0 0 0
0 0 0 0 1 0 0 1 2 1 0 1 3 5 7 8 8 7 6 5 5 5 6 8 11 11 8 4 3 3 3 3 2 0 0 0 0 0 1 2 2 1 0 0 0 0 0 0 0
0 0 0 1 1 0 0 1 1 0 0 0 1 1 2 4 6 8 6 4 4 5 7 12 13 10 5 2 2 4 4 2 1 0 0 0 0 1 3 4 4 3 1 1 1 0 0 0 0
0 0 0 1 0 0 0 1 1 1 1 1 1 1 0 2 5 8 7 6 7 8 10 15 17 13 6 3 3 3 2 1 0 0 0 1 1 4 6 7 5 5 3 2 1 0 0 0 0
0 0 0 0 0 0 0 1 2 2 1 1 2 2 1 1 3 5 6 7 10 11 12 17 22 20 12 7 4 3 3 2 1 1 3 5 7 9 12 9 7 6 5 4 3 1 0 0 0
0 0 0 0 0 0 0 0 1 1 1 0 1 2 1 0 1 2 3 6 9 11 14 20 24 24 18 11 7 7 9 9 8 8 11 16 19 20 20 16 11 8 6 6 5 2 1 1 1
0 0 0 0 0 0 0 0 0 0 0 0 1 2 2 1 0 1 2 4 7 10 15 22 26 25 20 13 12 14 15 15 14 16 21 27 31 30 27 23 16 10 7 8 7 4 1 1 2

GEFSSGP_con_probscp_090.txt.gz
Probability
0 0 0 0 0 0 0 0 0 0 1 5 9 9 5 2 1 1 3 6 11 12 10 11 14 10 3 0 0 0 0 0 0 0 0 0 0 0 0 0 0 0 0 0 0 0 0 0 0
0 0 0 0 0 0 0 0 0 1 4 10 15 12 5 1 2 3 5 10 17 17 14 16 19 13 5 1 0 0 0 0 0 0 0 0 0 0 0 0 0 0 0 0 0 0 0 0 0
0 0 0 0 0 0 0 0 2 5 9 17 23 19 8 3 4 7 11 18 23 25 23 25 26 18 7 2 1 0 0 0 0 0 0 0 0 0 0 0 0 0 0 0 0 0 0 0 0
0 0 0 0 0 0 0 1 3 7 14 24 33 28 15 9 10 13 18 24 29 32 34 34 32 22 10 4 1 0 0 0 0 0 0 0 0 0 0 0 0 0 0 0 0 0 0 0 0
0 0 0 0 0 0 0 2 5 10 18 32 40 34 21 17 22 26 26 28 33 39 41 40 35 25 13 5 2 1 0 0 0 0 0 0 0 0 0 0 0 0 0 0 0 0 0 0 0
0 0 0 0 0 0 1 3 8 14 23 34 41 37 27 26 36 40 33 30 36 44 46 44 36 25 14 7 3 1 1 1 0 0 0 0 0 0 0 0 0 0 0 0 0 0 0 0 0
0 0 0 0 0 0 1 4 10 16 23 32 41 40 32 34 44 46 38 34 37 44 48 45 35 23 14 7 3 2 2 1 0 0 0 0 0 0 0 0 0 0 0 0 0 0 0 0 0
0 0 0 0 0 0 1 4 11 18 25 35 43 43 39 40 48 47 40 36 35 38 42 41 35 25 15 8 3 1 1 1 0 0 0 0 0 0 0 0 0 0 0 0 0 0 0 0 0
0 0 0 0 0 0 1 4 12 23 35 46 53 52 48 48 52 50 43 35 31 31 33 34 33 27 18 10 4 1 0 0 0 0 0 0 0 0 0 0 0 0 0 0 0 0 0 0 0
0 0 0 0 0 0 0 3 12 27 44 56 62 61 56 53 53 51 46 37 28 25 25 24 26 24 17 11 5 2 0 0 0 0 0 0 0 0 0 0 0 0 0 0 0 0 0 0 0
0 0 0 0 0 0 1 3 12 26 42 55 62 61 57 51 49 49 46 37 27 22 19 18 19 18 14 10 7 3 1 0 0 0 0 0 0 0 0 0 0 0 0 0 0 0 0 0 0
0 0 0 0 0 0 1 5 14 27 41 54 59 57 52 45 43 44 43 36 27 20 16 15 15 14 12 10 8 4 2 1 0 0 0 0 0 0 0 0 0 0 0 0 0 0 0 0 0
0 0 0 0 0 0 2 7 19 34 49 58 58 54 46 38 36 41 42 37 28 18 13 12 12 12 12 11 7 4 3 1 0 0 0 0 0 0 0 0 0 0 0 0 0 0 0 0 0
0 0 0 0 0 0 1 8 21 39 53 58 56 52 45 35 31 35 40 37 26 17 13 13 13 13 13 11 7 4 3 2 1 0 0 0 0 0 0 0 0 0 0 0 0 0 0 0 0
0 0 0 0 0 0 1 6 19 36 49 54 53 53 48 38 32 32 35 31 24 17 16 17 16 15 13 11 8 5 4 3 1 0 0 0 0 0 0 0 0 0 0 0 0 0 0 0 0
0 0 0 0 0 0 1 5 16 31 43 50 53 53 48 39 34 33 30 25 21 20 21 22 20 16 14 11 8 6 5 3 2 1 0 0 0 0 0 0 0 0 0 0 0 0 0 0 0
0 0 0 0 0 0 0 4 15 28 37 44 49 49 42 35 32 32 28 21 19 23 26 26 22 18 16 13 10 7 4 3 2 1 0 0 0 0 0 0 0 0 0 0 0 0 0 0 0
0 0 0 0 0 0 0 4 13 24 31 36 41 42 37 31 27 27 25 20 19 24 27 25 21 18 16 13 11 7 4 2 1 0 0 0 0 0 0 0 0 0 0 0 0 0 0 0 0
0 0 0 0 0 1 2 4 10 19 23 27 34 37 33 26 21 21 19 17 18 22 23 20 16 14 12 12 10 6 2 1 0 0 0 0 0 0 0 0 0 0 0 0 0 0 0 0 0
0 0 0 0 0 2 5 6 8 12 14 18 27 32 29 23 19 15 12 11 15 18 19 16 13 10 9 8 7 3 1 0 0 0 0 0 0 0 0 0 0 0 0 0 0 0 0 0 0
0 0 0 0 0 1 4 6 5 5 7 11 19 23 22 19 15 11 7 6 10 14 15 15 12 8 6 5 4 1 0 0 0 0 0 0 0 0 0 0 0 0 0 0 0 0 0 0 0
0 0 0 0 0 0 1 2 2 1 2 6 11 13 13 12 10 7 5 4 6 9 11 12 11 7 5 3 2 1 0 0 0 0 0 0 0 0 0 0 0 0 0 0 0 0 0 0 0
0 0 0 0 0 0 0 0 0 0 1 3 5 6 7 8 7 4 3 3 4 5 7 8 8 6 4 2 1 0 0 0 0 0 0 0 0 0 0 0 0 0 0 0 0 0 0 0 0
0 0 0 0 0 0 0 0 0 0 0 1 2 3 6 7 6 3 2 2 2 2 3 5 5 4 2 1 0 0 0 0 0 0 0 0 0 0 0 0 0 0 0 0 0 0 0 0 0
0 0 0 0 0 0 0 0 0 0 0 0 1 2 4 5 4 3 2 2 1 1 1 2 2 1 1 0 0 0 0 0 0 0 0 0 0 0 0 0 0 0 0 0 0 0 0 0 0
0 0 0 0 0 0 0 0 0 0 0 0 1 1 2 2 2 1 1 1 0 0 0 1 1 0 0 0 0 0 0 0 0 0 0 0 0 0 0 0 0 0 0 0 0 0 0 0 0
0 0 0 0 0 0 0 0 0 0 0 0 1 1 1 1 0 0 0 0 1 1 1 2 2 1 1 0 0 0 0 0 0 0 0 0 0 0 0 0 0 0 0 0 0 0 0 0 0
0 0 0 0 0 0 0 0 0 0 0 0 0 1 1 0 0 0 0 1 3 3 3 4 4 3 2 1 0 0 1 1 1 0 0 0 0 0 0 0 0 0 0 0 0 0 0 0 0
0 0 0 0 0 0 0 0 0 0 0 0 0 1 1 0 0 0 0 1 3 5 7 8 7 5 3 2 2 2 1 1 1 0 0 0 0 0 0 0 0 0 0 0 0 0 0 0 0
0 0 0 0 0 0 0 0 0 0 0 0 1 2 2 1 0 0 0 1 2 5 9 12 10 7 5 4 4 4 2 1 0 0 0 0 0 0 0 0 0 0 0 0 0 0 0 0 0

GEFSSGP_con_probscp_096.txt.gz
Probability
0 0 0 0 0 0 0 0 0 0 0 0 0 0 0 1 0 0 0 1 2 3 1 2 6 6 3 2 2 2 1 0 0 0 0 0 0 0 0 0 0 0 0 0 0 0 0 0 0
0 0 0 0 0 0 0 0 0 0 0 1 2 2 1 2 1 0 0 2 5 6 4 4 9 11 6 3 2 1 0 0 0 0 0 0 0 0 0 0 0 0 0 0 0 0 0 0 0
0 0 0 0 0 0 0 0 1 1 3 5 7 5 3 2 2 1 1 4 10 11 7 7 13 13 8 3 2 1 0 0 0 0 0 0 0 0 0 0 0 0 0 0 0 0 0 0 0
0 0 0 0 0 0 0 0 2 5 7 12 14 10 5 2 2 3 4 8 14 15 11 10 14 14 8 3 2 2 1 0 0 0 1 1 0 0 0 0 0 0 0 0 0 0 0 0 0
0 0 0 0 0 0 0 1 5 9 15 20 21 14 6 3 4 8 10 12 16 19 17 17 20 19 12 5 2 2 1 0 0 0 1 1 0 0 0 0 0 0 0 0 0 0 0 0 0
0 0 0 0 0 0 0 2 8 15 23 30 28 19 8 5 10 17 18 16 20 25 26 27 28 24 15 5 1 1 1 0 0 0 1 1 0 0 0 0 0 0 0 0 0 0 0 0 0
0 0 0 0 0 0 1 3 9 19 29 37 38 25 11 9 19 28 27 24 27 31 33 34 32 26 16 6 2 1 1 0 0 0 0 0 0 0 0 0 0 0 0 0 0 0 0 0 0
0 0 0 0 0 0 1 3 9 19 33 44 43 29 19 25 37 42 40 36 36 36 36 36 36 31 22 12 6 3 2 1 1 0 0 0 0 0 0 0 0 0 0 0 0 0 0 0 0
0 0 0 0 0 0 1 4 11 23 39 47 44 33 35 49 56 53 50 44 40 37 36 37 41 40 32 20 11 8 5 3 2 0 0 0 0 0 0 0 0 0 0 0 0 0 0 0 0
0 0 0 0 0 1 3 6 13 26 40 47 47 47 55 63 60 53 48 42 38 37 37 39 44 46 39 26 17 13 9 5 2 0 0 0 0 0 0 0 0 0 0 0 0 0 0 0 0
0 0 0 0 0 1 3 6 13 22 31 42 52 62 68 65 55 45 40 36 35 36 39 39 41 41 36 27 21 16 10 4 1 0 0 0 0 0 0 0 0 0 0 0 0 0 0 0 0
0 0 0 0 0 0 1 5 10 16 23 36 54 67 69 60 48 38 33 30 30 32 35 36 34 31 26 23 20 15 9 3 0 0 0 0 0 0 0 0 0 0 0 0 0 0 0 0 0
0 0 0 0 0 0 1 5 11 16 24 36 53 63 62 53 42 34 29 24 23 25 27 30 29 24 19 17 17 13 7 3 1 0 0 0 0 0 0 0 0 0 0 0 0 0 0 0 0
0 0 0 0 0 0 1 5 11 18 28 40 49 53 51 45 38 31 27 22 20 19 21 23 23 21 17 15 15 11 5 3 2 1 0 0 0 0 0 0 0 0 0 0 0 0 0 0 0
0 0 0 0 0 0 0 3 9 20 32 40 42 40 38 35 30 27 25 22 19 16 16 16 16 16 14 13 12 9 5 3 3 2 1 0 0 0 0 0 0 0 0 0 0 0 0 0 0
0 0 0 0 0 0 0 2 8 21 34 38 34 30 28 26 23 21 21 19 16 13 11 10 10 10 10 10 10 7 4 3 3 3 1 0 0 0 0 0 0 0 0 0 0 0 0 0 0
0 0 0 0 0 0 0 2 10 22 32 34 29 24 22 21 19 16 14 12 11 9 7 5 6 6 6 8 8 5 2 1 2 3 2 1 0 0 0 0 0 0 0 0 0 0 0 0 0
0 0 0 0 0 0 1 3 9 18 27 29 25 20 16 14 13 11 10 8 8 7 4 4 4 5 5 6 6 4 2 1 2 3 3 2 0 0 0 0 0 0 0 0 0 0 0 0 0
0 0 0 0 0 0 1 3 7 13 21 25 23 17 11 7 6 6 7 8 8 6 4 3 4 5 5 6 6 4 3 3 3 3 2 1 0 0 0 0 0 0 0 0 0 0 0 0 0
0 0 0 0 0 0 0 1 4 8 13 16 16 13 8 3 1 2 4 7 7 5 3 3 4 5 5 6 6 5 3 3 2 2 1 0 0 0 0 0 0 0 0 0 0 0 0 0 0
0 0 0 0 0 0 0 0 1 3 5 7 7 7 4 1 0 1 2 5 5 4 3 4 5 6 5 4 5 4 3 2 1 1 0 0 0 0 0 0 0 0 0 0 0 0 0 0 0
0 0 0 0 0 0 0 0 0 1 1 1 2 2 1 0 0 1 2 3 4 4 3 4 5 5 4 3 3 2 2 1 0 0 0 0 0 0 0 0 0 0 0 0 0 0 0 0 0
0 0 0 0 0 0 0 0 0 0 0 0 1 1 0 0 0 1 2 2 3 3 2 3 3 2 2 2 1 0 1 1 0 0 0 0 0 0 0 0 0 0 0 0 0 0 0 0 0
0 0 0 0 0 0 0 0 0 0 0 0 0 0 0 0 0 1 1 1 1 1 1 1 1 1 0 0 0 0 0 0 0 0 0 0 0 0 0 0 0 0 0 0 0 0 0 0 0
0 0 0 0 0 0 0 0 0 0 0 0 1 0 0 0 0 0 0 0 0 0 0 0 0 1 0 0 0 0 0 0 0 0 0 0 0 0 0 0 0 0 0 0 0 0 0 0 0
0 0 0 0 0 0 0 0 0 0 0 0 0 0 0 0 0 0 0 0 0 0 0 0 0 0 0 0 0 0 0 0 0 0 0 0 0 0 0 0 0 0 0 0 0 0 0 0 0
0 0 0 0 0 0 0 0 0 0 0 0 0 0 0 0 0 0 0 0 0 0 0 0 0 0 0 0 0 0 0 0 0 0 0 0 0 0 0 0 0 0 0 0 0 0 0 0 0
0 0 0 0 0 0 0 0 0 0 0 0 0 0 0 0 0 0 0 0 0 0 0 0 0 0 0 0 0 0 0 0 0 0 0 0 0 0 0 0 0 0 0 0 0 0 0 0 0
0 0 0 0 0 0 0 0 0 0 0 0 0 0 0 0 0 0 0 0 0 0 0 0 0 0 0 0 0 0 0 0 0 0 0 0 0 0 0 0 0 0 0 0 0 0 0 0 0
0 0 0 0 0 0 0 0 0 0 0 0 0 0 0 0 0 0 0 0 0 0 0 0 0 0 0 0 0 0 0 0 0 0 0 0 0 0 0 0 0 0 0 0 0 0 0 0 0

GEFSSGP_con_probscp_102.txt.gz
Probability
0 0 0 0 0 0 0 0 0 0 0 0 0 0 0 0 0 0 0 0 0 1 1 1 0 1 1 2 4 3 1 0 0 0 0 0 0 0 0 0 0 0 0 0 0 0 0 0 0
0 0 0 0 0 0 0 0 0 0 0 0 0 0 0 0 0 0 0 0 0 0 1 2 1 1 1 2 3 3 1 0 0 0 0 0 0 0 0 0 0 0 0 0 0 0 0 0 0
0 0 0 0 0 0 0 0 0 0 0 0 0 0 0 0 0 0 1 2 2 2 4 5 4 1 1 2 2 1 1 0 0 0 0 0 0 0 0 0 0 0 0 0 0 0 0 0 0
0 0 0 0 0 0 0 0 0 0 0 0 0 0 1 1 2 2 3 3 4 5 6 7 5 1 0 1 1 0 0 0 0 0 0 0 0 0 0 0 0 0 0 0 0 0 0 0 0
0 0 0 0 0 0 0 0 0 0 0 0 0 1 4 6 6 6 7 6 5 6 8 8 6 2 1 1 1 1 1 1 0 0 0 0 0 0 0 0 0 0 0 0 0 0 0 0 0
0 0 0 0 0 0 0 0 0 0 0 0 0 3 10 15 15 13 11 8 6 6 9 10 7 2 1 2 3 3 2 1 0 0 0 0 0 0 0 0 0 0 0 0 0 0 0 0 0
0 0 0 0 0 0 0 0 0 0 1 2 2 6 18 27 27 23 17 11 7 6 9 11 7 3 2 3 3 3 3 1 0 0 0 0 0 0 0 0 0 0 0 0 0 0 0 0 0
0 0 0 0 0 0 0 0 0 1 4 7 7 11 27 42 44 39 31 20 11 8 9 10 8 4 3 3 3 4 4 2 1 0 0 0 0 0 0 0 0 0 0 0 0 0 0 0 0
0 0 0 0 0 0 0 0 0 1 6 12 16 25 42 58 62 58 50 38 26 18 14 12 11 9 6 5 6 6 5 3 1 1 2 1 0 0 0 0 0 0 0 0 0 0 0 0 0
0 0 0 0 0 0 0 0 0 1 6 13 26 44 61 71 73 70 63 55 45 36 28 22 20 18 15 14 14 11 8 5 3 3 3 3 1 1 0 0 0 0 0 0 0 0 0 0 0
0 0 0 0 0 0 0 0 0 1 5 13 30 55 72 76 75 70 65 60 53 46 39 33 31 29 28 27 25 21 16 10 6 5 5 4 3 1 0 0 0 0 0 0 0 0 0 0 0
0 0 0 0 0 0 0 0 0 2 6 15 31 56 72 74 70 64 60 56 51 45 40 36 36 38 37 36 33 27 20 12 8 7 6 4 3 1 0 0 0 0 0 0 0 0 0 0 0
0 0 0 0 0 0 0 0 1 4 10 18 34 54 66 66 62 57 52 51 48 43 37 34 35 38 40 41 37 29 20 13 9 7 5 2 1 1 0 0 0 0 0 0 0 0 0 0 0
0 0 0 0 0 0 0 0 3 8 14 22 36 51 55 55 54 50 47 45 42 40 35 31 32 35 37 38 35 28 20 14 10 8 5 2 0 0 0 0 0 0 0 0 0 0 0 0 0
0 0 0 0 0 0 0 2 6 11 15 23 35 43 44 44 46 45 42 39 34 32 30 28 27 28 30 31 30 24 17 14 12 10 7 2 0 0 0 0 0 0 0 0 0 0 0 0 0
0 0 0 0 0 0 0 3 9 12 13 21 31 35 37 38 37 37 35 31 27 26 26 25 23 22 25 28 26 19 15 13 13 12 9 4 1 0 0 0 0 0 0 0 0 0 0 0 0
0 0 0 0 0 0 0 4 9 10 10 18 25 29 32 34 33 31 28 24 22 21 21 21 19 20 23 28 27 21 17 14 13 12 9 5 2 1 0 0 0 0 0 0 0 0 0 0 0
0 0 0 0 0 0 0 3 6 7 9 15 20 25 28 30 31 28 23 18 16 16 16 16 17 20 24 28 28 23 19 16 13 11 8 4 3 2 1 0 0 0 0 0 0 0 0 0 0
0 0 0 0 0 0 0 1 3 5 9 13 17 21 23 25 27 26 20 14 12 13 15 14 16 20 24 27 27 23 19 17 14 10 6 4 3 3 2 1 0 0 0 0 0 0 0 0 0
0 0 0 0 0 0 0 1 3 6 10 12 14 15 18 20 22 20 16 13 12 13 13 13 15 18 21 24 24 22 18 16 13 8 4 3 3 3 3 1 0 0 0 0 0 0 0 0 0
0 0 0 0 0 0 0 1 4 7 9 10 10 10 13 15 15 13 11 11 11 11 10 12 15 18 18 18 18 17 15 13 10 7 4 3 3 3 3 2 1 0 0 0 0 0 0 0 0
0 0 0 0 0 0 0 0 3 6 7 6 7 9 11 10 9 8 7 7 7 7 7 10 16 19 17 14 12 11 10 10 10 8 5 3 3 3 3 3 2 1 0 0 0 0 0 0 0
0 0 0 0 0 0 0 0 1 2 3 2 4 8 9 7 6 6 5 5 6 5 5 9 14 17 15 11 8 6 7 9 10 9 6 4 3 3 3 3 2 1 0 0 0 0 0 0 0
0 0 0 0 0 0 0 0 0 0 1 1 3 7 8 6 5 5 4 5 6 5 5 7 11 12 11 8 5 4 5 8 8 7 5 3 3 3 2 3 2 1 0 0 0 0 0 0 0
0 0 0 0 0 0 0 0 0 0 0 0 1 4 5 5 5 5 4 4 4 4 5 6 9 9 7 6 4 3 4 6 6 5 3 3 3 2 2 2 2 1 0 0 0 0 0 0 0
0 0 0 0 0 0 0 0 0 0 0 0 1 3 4 5 5 5 3 2 2 2 3 4 6 6 5 4 5 4 4 5 5 4 2 2 1 1 1 1 1 0 0 0 0 0 0 0 0
0 0 0 0 0 0 0 0 0 0 0 0 2 4 4 4 5 5 3 2 2 1 1 2 3 4 3 4 5 5 4 4 5 4 2 1 0 0 0 0 0 0 0 0 0 0 0 0 0
0 0 0 0 0 0 0 0 0 0 0 1 3 5 4 3 4 4 3 2 1 1 0 0 1 2 3 4 4 3 3 3 3 3 2 1 0 0 0 0 0 0 0 0 0 0 1 1 1
0 0 0 0 0 0 0 0 0 0 0 1 3 4 3 3 3 3 3 2 1 0 0 0 0 1 4 6 4 2 2 1 1 1 1 1 0 0 0 0 1 1 0 0 1 1 1 2 2
0 0 0 0 0 0 0 0 0 0 0 0 1 3 3 3 3 3 3 2 1 0 0 0 0 2 6 7 5 3 2 2 1 2 2 2 1 0 0 1 2 2 1 0 1 1 1 1 1

GEFSSGP_con_probscp_108.txt.gz
Probability
0 3 8 12 13 9 3 0 0 0 0 0 0 0 0 0 0 1 2 15 34 34 22 19 18 14 8 3 1 0 0 0 0 0 0 0 0 0 0 0 0 0 0 0 0 0 0 0 0
1 3 7 9 8 4 1 0 0 0 0 0 0 0 0 0 1 3 8 22 34 30 21 19 18 13 7 4 1 0 0 0 0 0 0 0 0 0 0 0 0 0 0 0 0 0 0 0 0
1 2 5 6 4 1 0 0 0 0 0 0 0 1 1 1 2 6 15 27 32 27 22 22 19 12 5 3 2 1 0 0 0 0 0 0 0 0 0 0 0 0 0 0 0 0 0 0 0
1 2 3 4 2 0 0 0 0 0 0 0 1 3 5 4 6 13 20 27 30 27 25 24 20 13 5 2 2 1 0 0 0 0 0 0 0 0 0 0 0 0 0 0 0 0 0 0 0
0 1 2 2 1 0 0 0 0 0 0 0 2 8 13 13 15 20 22 25 31 32 29 26 23 16 8 3 1 0 0 0 0 0 0 0 0 0 0 0 0 0 0 0 0 0 0 0 0
0 0 1 1 0 0 0 0 0 0 0 0 4 13 22 24 24 25 24 27 34 39 36 30 25 19 11 6 3 1 0 0 0 0 0 0 0 0 0 0 0 0 0 0 0 0 0 0 0
0 0 0 0 0 0 0 0 0 0 0 0 4 16 29 34 32 29 28 33 42 48 42 32 25 20 13 6 3 2 1 0 0 0 0 0 0 0 0 0 0 0 0 0 0 0 0 0 0
0 0 0 0 0 0 0 0 0 0 2 2 5 18 36 45 41 36 37 45 55 58 46 32 25 20 12 5 3 3 1 0 0 0 0 0 0 0 0 0 0 0 0 0 0 0 0 0 0
0 0 0 0 0 0 0 0 0 1 4 7 14 27 44 53 52 48 48 57 66 65 50 33 27 21 10 5 6 5 3 1 1 0 0 0 0 0 0 0 0 0 0 0 0 0 0 0 0
0 0 0 0 0 0 0 0 0 1 4 13 28 44 54 58 61 61 58 61 68 68 55 39 32 23 13 11 13 10 6 3 1 1 1 0 0 0 0 0 0 0 0 0 0 0 0 0 0
0 0 0 0 0 0 0 0 0 1 4 14 36 57 65 65 67 67 63 62 66 69 60 49 41 33 27 24 19 13 8 4 2 2 2 1 0 0 0 0 0 0 0 0 0 0 0 0 0
0 0 0 0 0 0 0 0 2 4 6 15 36 58 70 72 72 71 66 63 66 69 65 58 53 50 49 41 26 15 10 7 5 4 3 1 0 1 1 1 1 0 0 0 0 0 0 0 0
0 0 0 0 0 0 0 1 4 8 11 19 35 54 68 73 74 73 69 67 70 69 65 62 62 63 62 54 38 24 18 14 12 9 5 2 1 2 2 2 1 0 0 0 0 0 0 0 0
0 0 0 0 0 0 0 1 5 11 16 23 36 52 64 69 70 71 70 71 71 68 63 62 65 66 63 57 47 36 27 20 16 13 9 6 4 3 2 2 1 0 0 0 0 0 0 0 0
0 0 0 0 0 0 0 2 5 11 18 25 38 53 63 67 67 66 67 69 68 64 63 64 64 62 58 52 46 37 28 21 18 16 14 9 6 3 2 1 0 0 0 0 0 0 0 0 0
0 0 0 0 0 0 0 3 9 12 18 27 41 54 65 69 66 62 63 64 65 63 63 63 61 56 49 43 37 31 27 25 24 21 17 12 9 6 3 1 0 0 0 0 0 0 0 0 0
0 0 0 0 0 0 0 4 10 12 16 28 43 57 69 71 66 60 59 61 63 62 60 59 55 48 41 35 30 28 31 34 30 26 20 15 11 8 4 1 1 1 0 0 0 0 0 0 0
0 0 0 0 0 0 0 3 9 11 14 29 46 61 70 70 65 60 58 58 58 56 54 52 47 38 33 31 28 29 34 36 32 27 22 16 12 9 6 3 2 2 1 1 0 0 0 0 0
0 0 0 0 0 0 0 4 10 12 14 27 46 59 67 68 64 62 59 55 52 50 47 44 39 31 26 26 27 29 33 33 29 25 21 16 13 9 6 5 4 3 3 2 1 0 0 0 0
0 0 0 0 0 0 0 5 12 14 14 23 36 50 60 64 63 62 60 54 47 45 43 40 35 29 24 24 26 27 29 28 25 23 21 17 12 9 6 5 4 3 3 3 1 0 0 0 0
0 0 0 0 0 0 0 6 13 15 14 17 25 36 48 55 59 62 59 50 43 40 39 37 33 28 25 25 26 25 24 23 22 21 20 16 12 8 6 4 3 3 3 3 2 1 0 0 0
0 0 0 0 0 0 0 4 11 12 11 14 20 30 39 47 54 59 55 45 38 35 33 31 28 25 24 25 26 25 23 20 20 19 17 15 12 9 6 4 3 3 3 3 3 1 0 0 0
0 0 0 0 0 0 0 1 5 8 9 13 21 31 40 45 49 52 49 41 34 31 29 26 24 22 22 24 26 26 23 21 20 18 16 14 12 10 7 5 4 3 3 3 3 2 1 0 0
0 0 0 0 0 0 0 0 1 4 6 12 21 32 42 44 44 43 41 38 32 27 26 24 20 18 19 20 23 24 24 23 20 16 14 13 12 10 7 5 4 4 3 3 3 2 1 0 0
0 0 0 0 0 0 0 0 1 2 3 8 18 29 38 40 37 35 36 36 31 25 23 22 18 14 14 16 19 21 22 21 18 14 12 12 10 9 8 6 4 4 4 3 3 2 1 0 0
0 0 0 0 0 0 0 0 1 1 1 5 13 23 31 34 32 30 31 32 30 25 22 20 16 14 14 15 17 19 18 16 15 13 10 8 7 8 9 8 5 4 4 3 3 2 1 0 0
0 0 0 0 0 0 0 1 1 2 2 3 8 16 23 27 29 27 26 28 28 25 20 17 16 16 17 17 17 17 16 14 15 13 8 5 5 7 9 8 6 4 4 3 3 2 1 1 0
0 0 0 0 0 0 0 1 2 2 2 3 7 13 18 22 24 24 22 24 24 22 19 17 17 17 18 17 16 15 15 15 15 13 8 5 6 7 8 7 5 4 3 3 3 2 3 3 2
0 0 0 0 0 0 0 0 1 1 2 4 9 15 18 20 22 22 21 20 19 17 15 15 16 17 16 15 14 13 13 14 15 12 8 8 8 8 7 6 4 2 2 3 2 2 2 3 3
0 0 0 0 0 0 0 0 1 2 3 5 10 17 21 21 21 22 21 18 15 14 13 13 15 16 15 13 13 12 11 13 14 11 8 10 11 9 6 4 2 1 1 2 2 1 1 2 3

GEFSSGP_con_probscp_114.txt.gz
Probability
0 0 0 0 0 0 0 0 0 0 1 1 1 1 1 1 0 0 1 3 5 4 2 2 4 4 2 0 0 0 0 0 0 0 0 0 0 0 0 0 0 0 0 0 0 0 0 0 0
0 0 0 0 0 0 0 0 0 1 2 3 2 2 2 2 2 2 3 6 8 6 4 5 7 6 4 1 0 0 0 0 0 0 0 0 0 0 0 0 0 0 0 0 0 0 0 0 0
0 0 0 0 0 0 0 0 0 1 4 6 5 3 2 4 6 7 11 16 15 12 9 10 12 10 7 4 1 0 0 0 0 0 0 0 0 0 0 0 0 0 0 0 0 0 0 0 0
0 0 0 0 0 0 0 0 0 2 8 14 13 7 4 8 16 22 28 29 24 19 16 16 16 14 10 7 3 1 0 0 0 0 0 0 0 0 0 0 0 0 0 0 0 0 0 0 0
0 0 0 0 0 0 0 0 2 7 17 26 24 16 12 20 35 43 42 36 30 24 21 21 21 17 13 8 5 1 0 0 0 0 0 0 0 0 0 0 0 0 0 0 0 0 0 0 0
0 0 0 0 0 0 0 0 4 14 26 31 29 25 23 35 51 54 44 35 32 29 26 25 23 19 13 9 6 3 1 0 0 0 0 0 0 0 0 0 0 0 0 0 0 0 0 0 0
0 0 0 0 0 0 0 0 4 16 26 28 29 29 30 43 57 57 44 35 32 31 29 27 22 16 11 8 7 4 1 0 0 0 0 0 0 0 0 0 0 0 0 0 0 0 0 0 0
0 0 0 0 0 0 0 1 5 14 22 27 28 29 33 46 59 61 52 41 33 31 31 27 21 15 9 7 6 4 1 0 0 0 0 0 0 0 0 0 0 0 0 0 0 0 0 0 0
0 0 0 0 0 0 0 2 7 16 26 32 35 36 41 56 67 69 65 53 39 32 31 28 24 19 14 10 8 5 2 1 0 0 0 0 0 0 0 0 0 0 0 0 0 0 0 0 0
0 0 0 0 0 0 1 3 8 17 27 36 45 50 55 67 75 76 73 64 49 38 32 28 27 24 20 15 11 8 6 3 1 0 0 0 0 0 0 0 0 0 0 0 0 0 0 0 0
0 0 0 0 0 0 1 3 8 14 22 34 48 56 61 70 77 79 77 68 55 44 35 27 25 23 19 15 13 12 9 4 2 1 0 0 0 0 0 0 0 0 0 0 0 0 0 0 0
0 0 0 0 0 0 1 3 7 11 21 37 50 55 60 67 74 77 74 65 52 43 36 28 22 18 15 13 13 11 8 5 3 2 0 0 0 0 0 0 0 0 0 0 0 0 0 0 0
0 0 0 0 0 0 0 2 5 12 28 48 57 56 58 63 68 69 67 59 49 40 34 27 20 14 12 12 12 9 6 5 3 1 0 0 0 0 0 0 0 0 0 0 0 0 0 0 0
0 0 0 0 0 0 0 1 5 16 37 54 59 56 54 58 60 60 59 54 46 39 32 24 17 11 10 12 11 7 3 3 2 0 0 0 0 0 0 0 0 0 0 0 0 0 0 0 0
0 0 0 0 0 0 0 0 6 20 39 54 59 56 53 53 55 55 55 49 43 39 32 24 16 11 10 10 9 6 3 1 0 0 0 0 0 0 0 0 0 0 0 0 0 0 0 0 0
0 0 0 0 0 0 0 1 8 21 36 50 56 55 54 53 52 53 53 48 41 37 33 26 20 15 13 9 6 5 3 2 1 0 0 0 0 0 0 0 0 0 0 0 0 0 0 0 0
0 0 0 0 0 0 0 4 11 22 34 46 53 56 57 56 53 53 52 47 42 38 36 33 27 21 15 8 5 4 5 4 3 1 1 1 2 1 0 0 0 0 0 0 0 0 0 0 0
0 0 0 0 0 0 2 7 15 25 35 45 54 58 59 57 52 50 49 46 43 40 40 38 33 25 15 8 5 5 7 8 6 4 2 2 3 2 1 1 0 0 0 0 0 0 0 0 0
0 0 0 0 0 0 3 8 15 26 35 43 52 58 58 54 50 49 46 44 41 39 38 37 32 24 14 8 6 7 11 12 10 6 2 1 3 3 3 2 1 1 0 0 0 0 0 0 0
0 0 0 0 1 0 2 5 11 20 29 36 45 51 53 50 48 47 44 42 40 36 33 30 26 20 14 9 8 9 12 13 10 6 3 3 3 4 3 3 3 2 1 0 0 0 0 0 0
0 0 0 0 0 0 1 2 5 12 17 24 33 42 46 45 44 43 41 39 37 34 29 24 21 19 15 11 10 11 12 11 9 8 7 6 5 5 4 3 3 3 1 0 0 0 0 0 0
0 0 0 0 0 0 0 1 3 6 9 13 20 30 36 37 36 37 36 34 32 29 24 19 17 17 15 12 11 12 12 11 9 9 9 8 7 6 4 3 3 3 2 1 1 0 0 0 0
0 0 0 0 0 0 0 1 2 3 4 6 10 19 26 27 27 28 29 28 26 24 20 16 14 13 13 11 9 9 10 9 8 8 8 8 7 6 4 3 3 3 2 2 2 1 0 0 0
0 0 0 0 0 0 0 0 1 1 2 3 6 12 17 19 19 19 21 21 21 20 17 13 10 10 11 9 6 5 5 4 3 4 6 7 7 6 4 3 3 2 1 1 1 1 0 0 0
0 0 0 0 0 0 0 0 0 0 1 2 3 7 11 13 13 13 13 14 15 15 13 10 8 8 8 7 4 2 1 0 0 1 2 5 6 5 4 3 3 2 1 1 1 0 0 0 0
0 0 0 0 0 0 0 0 0 0 0 1 3 5 10 13 14 13 10 9 9 9 9 7 6 5 5 4 3 1 0 0 0 0 0 2 4 3 3 3 3 3 2 2 1 0 0 0 0
0 0 0 0 0 0 0 0 0 0 0 2 4 8 11 15 16 13 8 5 5 5 5 5 4 3 3 3 3 1 1 0 0 0 0 1 1 1 1 1 2 3 3 3 2 1 0 0 0
0 0 0 0 0 0 0 0 0 0 0 1 5 8 11 13 14 11 6 2 2 2 2 2 3 3 3 3 3 3 2 1 0 0 0 0 0 0 0 0 1 3 3 3 2 1 0 0 0
0 0 0 0 0 0 0 0 0 0 0 1 4 6 7 8 8 6 4 1 1 1 2 2 3 3 3 3 3 3 3 1 0 0 0 0 0 0 0 0 1 2 2 2 1 0 0 0 0
0 0 0 0 0 0 0 0 0 0 1 2 3 4 5 5 4 4 3 2 2 2 3 3 3 3 3 3 3 3 3 2 1 0 0 0 0 0 0 0 0 1 1 1 0 0 0 0 0

GEFSSGP_con_probscp_120.txt.gz
Probability
1 1 0 0 0 0 0 0 0 0 0 0 1 1 2 3 3 3 1 0 0 0 0 0 0 1 1 1 2 3 3 2 1 0 0 0 0 0 0 0 0 0 0 0 0 0 0 0 0
1 0 0 0 0 0 0 0 0 0 0 1 2 2 3 4 4 3 2 0 0 0 0 0 0 1 2 1 2 2 2 1 1 0 0 0 0 0 0 0 0 0 0 0 0 0 0 0 0
0 0 0 0 0 0 0 0 0 0 1 2 3 2 3 6 7 5 4 5 4 1 0 0 0 1 2 3 2 1 0 0 0 0 0 0 0 0 0 0 0 0 0 0 0 0 0 0 0
0 0 0 0 0 0 0 0 0 0 1 2 4 3 3 6 9 9 11 15 13 5 1 1 2 2 2 3 3 1 0 0 0 0 0 0 0 0 0 0 0 0 0 0 0 0 0 0 0
0 0 0 0 0 0 0 0 1 1 2 5 7 7 5 8 14 19 23 24 21 12 5 5 6 4 2 3 3 2 1 0 0 0 0 0 0 0 0 0 0 0 0 0 0 0 0 0 0
0 0 0 0 0 0 0 1 2 4 8 13 14 12 10 14 23 31 32 29 25 19 11 8 9 5 3 3 3 3 2 1 0 0 0 0 0 0 0 0 0 0 0 0 0 0 0 0 0
0 0 0 0 0 0 0 1 3 8 15 21 24 21 18 23 33 39 39 35 31 25 17 12 9 5 3 3 3 3 2 1 0 0 0 0 0 0 0 0 0 0 0 0 0 0 0 0 0
0 0 0 0 0 0 0 0 3 10 18 24 28 26 27 36 48 51 49 45 39 31 22 15 9 5 3 3 3 3 3 1 1 1 0 0 0 0 0 0 0 0 0 0 0 0 0 0 0
0 0 0 0 0 0 0 1 4 10 17 24 27 29 40 58 68 66 60 55 47 35 23 16 12 8 5 4 3 4 4 3 3 2 1 0 0 0 0 0 0 0 0 0 0 0 0 0 0
0 0 0 0 0 0 0 2 6 10 15 23 30 39 59 76 80 74 65 56 48 37 25 18 16 13 10 6 5 5 6 6 4 3 2 0 0 0 0 0 0 0 0 0 0 0 0 0 0
0 0 0 0 0 0 1 3 7 9 12 21 35 53 70 79 78 71 60 50 43 36 28 23 22 19 15 11 8 9 10 8 5 3 1 0 0 0 0 0 0 0 0 0 0 0 0 0 0
0 0 0 0 0 0 1 2 5 6 9 19 38 58 69 70 68 61 53 46 40 36 31 28 27 22 17 14 12 13 14 11 7 4 2 1 1 0 0 0 0 0 0 0 0 0 0 0 0
0 0 0 0 0 0 0 1 2 4 10 21 40 56 61 60 57 54 49 43 38 35 33 31 28 22 15 13 13 14 14 11 8 5 3 2 2 1 0 0 0 0 0 0 0 0 0 0 0
0 0 0 0 0 0 0 0 1 6 13 25 39 49 52 52 52 52 47 41 35 33 31 28 24 19 14 13 13 12 10 9 7 5 3 3 2 1 0 0 0 0 0 0 0 0 0 0 0
0 0 0 0 0 0 0 0 1 7 16 26 36 42 46 47 49 49 44 39 34 31 28 25 21 16 12 11 11 9 7 7 5 4 3 3 1 0 0 0 0 0 0 0 0 0 0 0 0
0 0 0 0 0 0 0 0 1 7 18 29 36 42 44 44 42 41 39 37 35 30 25 21 19 15 10 8 8 7 6 4 2 2 2 2 1 0 0 0 0 0 0 0 0 0 0 0 0
0 0 0 0 0 0 0 0 1 6 16 28 37 44 46 42 38 35 35 36 34 28 21 18 17 15 10 8 6 5 4 2 1 1 1 1 0 0 0 0 0 0 0 0 0 0 0 0 0
0 0 0 0 0 0 0 0 1 5 12 22 32 40 42 39 35 33 33 34 32 26 20 16 15 13 9 7 6 4 3 2 1 0 0 0 0 0 0 0 0 0 0 0 0 0 0 0 0
0 0 0 0 0 0 0 0 1 4 9 15 23 32 34 32 31 32 33 33 30 26 22 18 15 11 8 6 5 4 3 2 1 0 0 0 0 0 0 0 0 0 0 0 0 0 0 0 0
0 0 0 0 0 0 0 0 1 3 6 10 17 24 27 28 30 32 32 29 26 25 23 20 15 12 8 8 7 4 3 2 1 0 0 0 0 1 1 0 0 0 0 0 0 0 0 0 0
0 0 0 0 0 0 0 0 0 1 4 7 11 16 22 27 30 31 29 25 22 20 20 18 14 12 10 9 8 4 2 3 2 1 1 1 1 2 2 1 0 0 0 0 0 0 0 0 0
0 0 0 0 0 0 0 0 0 0 1 3 5 8 15 22 27 28 25 23 19 17 17 15 13 12 11 9 6 4 3 3 3 3 2 2 3 3 4 3 1 1 2 1 1 0 0 0 0
0 0 0 0 0 0 0 0 0 0 0 1 2 5 9 15 22 22 20 18 15 13 13 12 10 11 11 8 4 2 2 2 3 3 3 4 4 4 3 3 2 3 3 3 2 1 0 0 0
0 0 0 0 0 0 0 0 0 0 0 0 0 2 5 10 14 14 11 11 10 9 9 8 8 8 9 6 3 1 1 1 1 2 3 5 5 4 3 3 3 3 3 3 3 2 1 0 0
0 0 0 0 0 0 0 0 0 0 0 0 0 1 3 5 6 6 5 4 5 5 5 6 6 7 7 6 3 1 0 0 0 1 2 4 5 5 4 3 3 3 3 3 3 3 2 1 0
0 0 0 0 0 0 0 0 0 0 0 0 0 0 1 1 1 2 2 2 2 2 3 5 6 5 6 6 3 1 0 0 0 0 1 1 3 3 3 3 3 3 3 3 3 3 2 1 0
0 0 0 0 0 0 0 0 0 0 0 0 0 0 0 0 1 1 2 2 2 2 3 5 5 4 4 4 3 2 1 0 0 0 0 0 1 1 1 2 2 2 3 3 3 3 1 0 0
0 0 0 0 0 0 0 0 0 0 0 0 0 0 0 1 1 2 3 3 3 3 3 4 4 3 3 3 3 2 2 1 0 0 0 0 0 0 0 1 1 1 1 2 2 2 1 0 0
0 0 0 0 0 0 0 0 0 0 0 0 0 0 0 0 1 2 2 3 2 2 3 3 3 3 2 2 1 1 1 1 0 0 0 0 0 0 0 0 0 0 0 1 1 1 0 0 0
0 0 0 0 0 0 0 0 0 0 0 0 0 0 0 0 0 1 2 1 1 1 2 3 3 2 1 1 0 0 1 0 0 0 0 0 0 0 0 0 0 0 0 0 0 0 0 0 0

GEFSSGP_con_probscp_126.txt.gz
Probability
0 0 1 3 3 1 0 0 0 0 0 0 0 0 0 0 0 0 0 0 0 1 1 1 1 0 0 0 1 3 4 3 1 0 0 0 0 0 0 0 0 0 0 0 0 0 0 0 0
0 0 1 2 1 0 0 0 0 0 0 0 0 0 0 0 0 0 0 0 0 0 1 1 2 1 0 0 1 2 3 2 0 0 0 0 0 0 0 0 0 0 0 0 0 0 0 0 0
0 0 0 0 0 0 0 0 0 0 0 0 0 0 1 1 1 0 0 0 0 0 0 2 3 2 1 1 1 1 1 0 0 0 0 0 0 0 0 0 0 0 0 0 0 0 0 0 0
1 1 0 0 0 0 0 0 0 0 0 0 0 2 4 4 2 1 1 0 0 0 1 2 2 2 1 1 2 1 0 0 0 0 0 0 0 0 0 0 0 0 0 0 0 0 0 0 0
0 0 0 0 0 0 0 0 0 0 0 0 0 4 10 10 7 6 5 3 1 1 2 3 3 2 1 2 2 1 0 0 0 0 0 0 0 0 0 0 0 0 0 0 0 0 0 0 0
0 0 0 0 0 0 0 0 0 0 0 0 0 6 15 20 18 15 12 7 4 3 3 4 4 2 1 1 1 1 0 0 0 0 0 0 0 0 0 0 0 0 0 0 0 0 0 0 0
0 0 0 0 0 0 0 0 0 0 0 0 0 6 19 32 32 26 19 13 8 6 5 4 3 1 0 0 0 0 0 0 0 0 0 0 0 0 0 0 0 0 0 0 0 0 0 0 0
0 0 0 0 0 0 0 0 0 0 0 0 1 7 26 46 49 41 31 23 17 12 9 6 3 1 0 0 0 0 0 0 0 0 0 0 0 0 0 0 0 0 0 0 0 0 0 0 0
0 0 0 0 0 0 0 0 0 0 0 2 5 15 36 58 64 58 49 39 31 22 15 11 8 5 3 2 1 0 0 0 0 0 0 0 0 0 0 0 0 0 0 0 0 0 0 0 0
0 0 0 0 0 0 0 0 0 0 1 4 13 29 50 65 70 68 61 50 40 31 22 17 13 11 7 5 5 4 3 1 0 0 0 1 1 0 0 0 0 0 0 0 0 0 0 0 0
0 0 0 0 0 0 0 0 0 0 1 5 18 41 60 67 68 67 61 49 39 34 28 21 17 13 10 9 10 11 8 5 2 1 1 2 2 1 1 0 0 0 0 0 0 0 0 0 0
0 0 0 0 0 0 0 0 0 0 1 6 21 46 64 67 63 61 56 47 39 35 31 26 21 15 11 11 12 12 10 6 4 4 3 3 3 3 2 1 0 0 0 0 0 0 0 0 0
0 0 0 0 0 0 0 0 0 0 2 8 23 45 62 65 59 56 54 49 42 37 35 32 26 19 13 12 13 11 9 7 8 8 5 3 3 3 3 2 1 0 0 0 0 0 0 0 0
0 0 0 0 0 0 0 0 0 1 4 10 21 39 55 59 56 56 58 56 49 44 41 38 32 25 17 14 14 13 11 10 10 10 7 4 3 3 3 2 1 0 0 0 0 0 0 0 0
0 0 0 0 0 0 0 0 1 3 5 9 16 29 44 51 53 57 61 59 54 49 45 40 35 28 21 16 14 14 14 13 11 9 7 4 2 3 4 2 0 0 0 0 0 0 0 0 0
0 0 0 0 0 0 0 0 1 3 5 7 10 19 33 44 49 53 57 56 53 50 45 40 34 29 26 21 17 15 15 14 12 9 7 5 2 3 4 3 1 0 0 0 0 0 0 0 0
0 0 0 0 0 0 0 0 1 3 4 5 7 14 28 40 44 47 50 50 50 48 43 37 32 28 28 25 21 16 14 12 11 10 8 6 3 2 3 3 2 0 0 0 0 0 0 0 0
0 0 0 0 0 0 1 1 1 2 3 4 7 14 27 37 41 44 44 44 46 46 44 38 31 28 28 26 22 17 12 9 8 8 8 6 4 2 3 3 2 1 0 0 0 0 0 0 0
0 0 0 0 0 0 1 2 1 2 3 4 8 14 24 33 39 42 42 40 41 43 45 40 32 29 29 26 23 17 12 9 8 8 8 6 4 3 3 3 3 2 1 0 0 0 0 0 0
0 0 0 0 0 0 1 1 1 1 1 4 8 14 21 29 37 41 40 38 38 39 40 37 32 31 29 26 23 20 14 11 9 10 10 7 5 4 2 3 3 2 1 0 0 0 0 0 0
0 0 0 0 0 0 0 1 1 0 1 3 8 14 20 28 36 41 39 36 35 33 30 29 31 31 28 23 19 17 14 11 8 9 10 8 6 4 2 2 3 4 3 1 1 0 0 0 0
0 0 0 0 0 0 0 0 0 0 0 2 7 12 18 25 32 37 36 33 32 29 24 25 29 30 26 19 13 10 9 7 6 7 9 8 7 4 2 1 4 6 6 5 3 1 1 0 0
0 0 0 0 0 0 0 0 0 0 0 1 5 10 15 19 23 27 29 28 28 26 24 24 25 27 24 17 11 8 5 4 4 5 7 8 8 6 4 3 5 8 9 7 6 4 2 1 0
0 0 0 0 0 0 0 0 0 0 0 0 2 6 11 13 13 17 20 21 21 21 23 23 23 23 21 15 10 8 6 5 4 4 7 8 8 8 6 6 7 8 9 9 8 6 4 2 1
0 0 0 0 0 0 0 0 0 0 0 0 0 2 4 6 7 9 12 12 12 13 18 21 19 18 17 14 10 8 7 5 4 5 7 7 6 7 7 8 8 8 9 9 9 8 5 3 3
0 0 0 0 0 0 0 0 0 0 0 0 0 0 1 1 3 5 7 8 7 7 11 15 15 14 14 13 10 8 7 6 5 6 8 7 4 4 7 8 8 9 9 9 10 10 8 5 4
0 0 0 0 0 0 0 0 0 0 0 0 0 0 0 0 1 2 3 5 5 5 8 11 12 12 13 13 11 9 9 8 6 6 7 7 5 4 6 7 7 8 9 9 10 11 9 7 6
0 0 0 0 0 0 0 0 0 0 0 0 0 0 0 0 0 1 2 2 3 5 7 9 9 10 11 11 10 8 8 7 6 6 6 7 6 5 5 5 5 5 7 9 11 11 9 7 6
0 0 0 0 0 0 0 0 0 0 0 0 0 0 0 0 1 2 2 2 2 4 6 7 7 7 7 6 5 5 5 4 3 3 4 5 6 6 5 3 2 2 3 7 9 9 8 7 6
0 0 0 0 0 0 0 0 0 0 0 0 0 0 0 1 2 2 2 2 3 3 3 5 6 6 5 4 3 4 3 3 2 2 2 3 5 6 5 3 2 1 1 3 6 7 7 6 6

GEFSSGP_con_probscp_132.txt.gz
Probability
1 7 18 30 35 21 5 0 0 0 0 0 0 0 0 0 0 0 2 5 5 2 0 0 1 0 0 0 0 0 0 0 0 0 0 0 0 0 0 0 0 0 0 0 0 0 0 0 0
2 7 17 26 24 12 2 0 0 0 0 0 0 0 0 0 0 1 4 7 5 1 0 1 2 1 0 0 0 0 0 0 0 0 0 0 0 0 0 0 0 0 0 0 0 0 0 0 0
2 6 14 18 12 3 0 0 0 0 0 0 0 0 0 0 0 2 6 8 4 1 0 1 3 2 0 0 0 0 0 0 0 0 0 0 0 0 0 0 0 0 0 0 0 0 0 0 0
2 6 9 9 5 1 0 0 0 0 0 1 1 2 2 2 3 6 8 9 6 3 2 2 2 2 1 0 0 0 0 0 0 0 0 0 0 0 0 0 0 0 0 0 0 0 0 0 0
2 4 5 2 1 0 0 0 0 0 0 2 4 6 7 7 10 13 14 15 13 9 5 4 3 3 2 1 0 0 0 0 0 0 0 0 0 0 0 0 0 0 0 0 0 0 0 0 0
1 2 1 0 0 0 0 0 0 0 0 2 7 11 11 13 17 19 20 23 25 22 12 7 6 5 3 2 1 0 0 0 0 0 0 0 0 0 0 0 0 0 0 0 0 0 0 0 0
1 1 1 0 0 0 0 0 0 0 0 1 7 14 17 20 21 22 24 30 38 36 21 9 7 6 4 3 2 1 0 0 0 0 0 0 0 0 0 0 0 0 0 0 0 0 0 0 0
0 0 0 0 0 0 0 0 0 1 1 1 6 17 29 31 27 27 31 37 47 45 26 11 7 5 4 3 2 1 0 0 0 0 0 0 0 0 0 0 0 0 0 0 0 0 0 0 0
0 0 0 0 0 0 0 0 1 2 3 3 8 24 41 43 37 37 40 44 50 47 31 17 12 8 5 3 2 1 0 0 0 0 0 0 0 0 0 0 0 0 0 0 0 0 0 0 0
0 0 0 0 0 0 0 0 0 2 5 9 18 35 51 54 50 48 47 49 52 49 36 27 22 15 9 7 6 4 2 1 1 1 1 0 0 1 1 0 0 0 0 0 0 0 0 0 0
0 0 0 0 0 0 0 0 0 2 6 13 29 49 60 62 60 56 52 53 56 53 44 37 32 25 20 17 12 8 5 3 3 4 4 1 1 2 3 1 0 0 0 0 0 0 0 0 0
0 0 0 0 0 0 0 0 1 2 5 14 34 54 62 63 63 59 57 57 61 61 54 46 41 37 34 27 18 12 10 8 7 8 6 3 2 3 3 1 0 0 0 0 0 0 0 0 0
0 0 0 0 0 0 0 0 1 3 6 16 31 46 56 61 62 61 60 62 67 69 61 54 52 50 46 36 22 16 15 13 13 11 7 5 5 6 5 2 1 1 1 0 0 0 0 0 0
0 0 0 0 0 0 1 1 3 6 10 18 27 37 52 61 62 63 65 66 70 72 65 59 58 57 53 42 28 21 19 18 16 13 10 8 8 9 8 5 2 2 2 1 0 1 1 0 0
0 0 0 0 0 0 1 3 5 8 12 19 26 37 52 63 64 66 70 70 70 71 67 61 57 54 51 44 32 25 22 20 19 18 15 11 10 11 9 6 3 3 3 1 1 2 1 0 0
0 0 0 0 0 0 1 3 6 8 12 20 29 40 54 64 68 71 74 72 70 70 69 63 55 49 46 43 36 28 24 24 24 24 20 14 12 11 9 6 4 4 3 2 2 3 2 0 0
0 0 0 0 0 0 1 3 6 8 11 19 31 43 56 65 71 74 75 73 71 71 71 67 60 53 46 43 40 33 27 27 29 29 24 17 14 11 8 7 7 6 4 3 3 3 1 0 0
0 0 0 0 0 0 1 4 7 8 11 20 33 47 58 67 74 77 75 73 73 74 73 71 68 62 52 45 42 37 31 28 28 30 27 20 15 12 9 9 8 6 5 4 4 2 1 0 0
0 0 0 0 0 0 1 5 8 8 11 19 32 48 62 71 77 78 75 73 75 76 75 72 71 66 56 46 41 37 32 26 24 26 27 21 16 13 11 10 9 7 7 7 6 3 1 0 0
0 0 0 0 0 0 2 6 10 10 10 15 26 43 62 73 79 79 75 73 76 77 75 70 69 66 56 46 40 37 32 25 21 23 26 22 17 14 12 12 11 10 10 11 9 6 4 1 0
0 0 0 0 0 0 1 6 11 12 11 11 18 35 54 69 76 77 74 73 75 76 72 68 67 64 55 46 40 37 33 27 22 23 25 24 20 18 17 17 17 15 13 13 12 9 5 2 1
0 0 0 0 0 0 0 3 9 12 9 8 14 28 45 59 68 72 71 69 71 72 69 66 65 62 54 47 43 38 32 27 24 23 22 22 21 20 20 22 23 20 16 14 12 10 7 4 3
0 0 0 0 0 0 0 1 6 9 9 9 15 25 39 50 58 64 66 66 67 67 64 61 60 58 53 49 46 41 33 27 24 23 20 19 18 17 20 24 26 26 22 17 13 11 10 7 5
0 0 0 0 0 0 0 0 4 8 10 13 18 26 36 43 49 55 59 61 63 60 55 53 53 53 51 48 46 42 35 28 25 23 19 16 16 16 17 20 25 29 29 24 17 13 12 10 8
0 0 0 0 0 0 0 1 3 6 9 14 20 26 31 34 40 45 48 51 53 49 46 46 48 48 46 44 41 38 33 28 25 22 18 15 14 16 17 17 22 28 30 26 21 16 14 12 10
0 0 0 0 0 0 0 1 3 4 7 13 19 21 21 23 29 35 37 41 43 41 39 40 42 41 40 38 34 31 29 26 25 23 19 15 12 15 19 20 23 27 27 25 24 20 15 12 11
0 0 0 0 0 0 0 2 3 4 7 13 16 14 13 15 22 27 31 35 37 36 33 31 31 31 31 30 28 25 24 25 25 23 18 13 12 14 17 20 24 28 26 25 26 22 16 13 12
0 0 0 0 0 0 0 2 5 5 8 12 12 10 10 13 18 23 27 29 29 27 25 21 19 20 21 22 21 20 21 22 21 18 14 12 11 11 13 18 22 26 26 26 26 21 16 14 13
0 0 0 0 0 0 0 2 4 5 7 10 12 13 14 15 18 21 23 22 19 17 16 14 14 15 15 15 17 17 17 17 15 12 11 13 13 10 10 15 19 21 23 25 24 18 14 13 12
0 0 0 0 0 0 0 1 2 3 5 9 14 17 18 18 19 20 19 17 14 12 11 13 14 13 13 14 16 15 15 14 11 11 12 13 13 11 9 13 18 18 19 24 23 16 11 10 11

GEFSSGP_con_probscp_138.txt.gz
Probability
0 0 0 0 0 0 0 1 2 1 0 0 0 0 0 0 0 0 0 0 0 0 0 0 1 1 0 0 0 0 0 0 0 0 0 0 0 0 0 0 0 0 0 0 0 0 0 0 0
0 0 0 1 1 0 0 1 3 2 1 1 0 0 0 1 1 0 0 1 1 0 0 1 2 2 1 0 0 0 0 0 0 0 0 0 0 0 0 0 0 0 0 0 0 0 0 0 0
0 0 1 2 2 1 0 2 4 4 3 2 1 1 1 2 2 2 3 6 5 2 0 1 2 2 1 0 0 0 0 0 0 0 0 0 0 0 0 0 0 0 0 0 0 0 0 0 0
1 1 1 2 2 1 1 3 4 5 4 2 2 2 3 8 10 9 10 15 13 6 2 2 3 3 1 0 0 0 0 0 0 0 0 0 0 0 0 0 0 0 0 0 0 0 0 0 0
0 0 0 1 1 0 1 4 6 7 5 3 3 3 7 20 29 22 16 18 19 13 6 4 6 5 4 2 1 0 0 0 0 0 0 0 0 0 0 0 0 0 0 0 0 0 0 0 0
0 0 0 0 0 0 1 4 8 9 6 4 5 5 13 34 43 29 16 14 18 17 10 7 7 5 5 5 3 1 0 0 0 0 0 0 0 0 0 0 0 0 0 0 0 0 0 0 0
0 0 0 0 0 0 1 4 9 10 7 6 8 8 17 38 44 30 17 13 13 13 10 7 5 3 3 4 3 3 2 0 0 0 0 0 0 0 0 0 0 0 0 0 0 0 0 0 0
0 0 0 0 0 0 1 3 7 9 8 10 11 12 21 39 48 40 29 20 14 10 7 6 4 2 2 2 4 5 4 2 0 0 0 0 0 0 0 0 0 0 0 0 0 0 0 0 0
0 0 0 0 0 0 1 3 5 7 11 15 17 20 31 49 61 59 46 33 23 15 10 6 4 3 3 3 4 5 5 2 0 0 0 0 0 0 0 0 0 0 0 0 0 0 0 0 0
0 0 0 0 0 0 1 3 4 7 13 20 27 34 45 61 72 71 58 44 32 22 14 9 5 4 4 4 5 5 4 2 0 0 0 0 0 0 0 0 0 0 0 0 0 0 0 0 0
0 0 0 0 0 0 1 2 4 8 14 23 34 43 55 67 74 71 62 48 35 24 16 10 6 5 4 5 5 5 4 1 0 0 0 0 0 0 0 0 0 0 0 0 0 0 0 0 0
0 0 0 0 0 1 1 2 4 9 16 27 38 46 56 66 69 67 60 49 37 27 19 14 11 8 7 6 6 5 4 1 0 0 0 0 0 0 0 0 0 0 0 0 0 0 0 0 0
0 0 0 0 0 1 2 3 6 13 22 34 43 47 53 61 63 60 55 49 41 31 24 21 17 13 10 9 8 6 4 2 1 0 0 0 0 0 0 0 0 0 0 0 0 0 0 0 0
0 0 0 0 0 1 1 4 10 20 31 43 49 49 51 57 58 56 53 48 41 34 28 26 21 15 12 10 7 5 4 2 1 0 0 0 0 0 0 0 0 0 0 0 0 0 0 0 0
0 0 0 0 0 0 1 3 11 26 38 47 53 51 49 53 55 56 55 50 43 38 34 30 25 17 13 10 6 4 3 3 1 0 0 0 0 0 1 0 0 0 0 0 0 0 0 0 0
0 0 0 0 0 0 0 3 13 28 42 49 54 53 50 51 52 53 54 52 49 46 42 38 32 24 17 11 6 4 4 3 2 1 1 0 0 0 0 0 0 0 0 0 0 0 0 0 0
0 0 0 0 0 0 1 5 15 29 41 48 52 55 55 53 50 49 51 52 53 54 50 46 41 31 21 14 8 6 5 4 3 3 2 1 0 0 0 0 0 0 0 0 0 0 0 0 0
0 0 0 0 0 0 1 7 16 26 36 43 48 53 59 57 50 49 50 50 53 56 55 52 47 37 26 17 12 10 7 5 4 4 2 1 0 0 0 0 0 0 0 0 0 0 0 0 0
0 0 0 0 0 0 2 7 14 21 29 39 46 53 61 59 52 51 53 52 55 57 56 54 51 42 31 23 17 14 10 7 5 4 2 1 0 0 0 0 0 0 0 0 0 0 0 0 0
0 0 0 0 0 1 2 5 10 16 24 34 45 54 60 59 54 54 57 58 57 57 54 52 49 43 33 24 18 14 11 7 4 3 2 1 0 1 1 1 1 0 0 0 0 0 0 0 0
0 0 0 0 0 1 2 3 6 12 19 30 43 53 58 58 55 56 59 59 56 51 48 45 42 35 28 22 17 13 9 6 4 3 2 2 1 1 2 2 2 1 1 0 0 0 0 0 0
0 0 0 0 0 0 1 1 3 9 17 29 42 51 55 56 55 55 56 56 52 45 40 37 33 28 24 21 18 13 8 5 4 4 4 3 1 1 2 3 3 3 2 1 0 0 0 0 0
0 0 0 0 0 0 0 0 1 6 15 29 41 48 51 53 52 51 52 53 49 41 34 31 27 24 22 21 18 12 7 3 2 3 5 4 2 1 1 2 3 3 2 1 0 0 0 0 0
0 0 0 0 0 0 0 0 0 3 12 26 38 43 45 49 49 49 50 50 47 39 31 27 25 23 21 19 16 11 5 2 1 1 3 4 3 1 1 1 2 1 1 0 0 0 0 0 0
0 0 0 0 0 0 0 0 0 2 10 22 32 36 39 42 44 46 48 47 44 39 32 26 25 23 19 17 15 10 5 1 0 0 1 2 2 1 0 0 0 0 0 0 0 0 0 0 0
0 0 0 0 0 0 0 0 0 4 12 19 25 28 31 32 33 38 42 42 40 37 32 28 26 22 17 14 13 9 5 2 0 0 0 1 1 0 0 0 0 0 0 0 0 0 0 0 0
0 0 0 0 0 0 0 0 1 7 15 18 19 22 23 23 25 28 32 33 31 28 28 26 24 20 15 11 9 6 3 2 0 0 0 0 0 0 0 0 0 0 0 0 0 0 0 0 0
0 0 0 0 0 0 0 0 2 9 14 15 15 17 18 19 21 22 22 22 21 19 20 20 17 15 12 8 5 3 1 1 0 0 0 0 0 0 0 0 0 0 0 0 0 0 0 0 0
0 0 0 0 0 0 0 0 3 7 11 14 16 17 16 17 19 19 17 16 15 13 12 11 10 8 7 5 3 1 0 0 0 0 0 0 0 0 0 0 0 0 0 0 0 0 0 0 0
0 0 0 0 0 0 0 1 3 6 9 15 20 20 16 16 18 17 15 14 13 11 8 7 6 4 4 3 2 1 0 0 0 0 0 0 0 0 0 0 0 0 0 0 0 0 0 0 0

GEFSSGP_con_probscp_144.txt.gz
Probability
0 0 0 0 0 0 0 0 0 0 0 0 1 2 2 1 0 0 0 0 0 0 0 0 0 0 0 0 0 0 0 0 0 0 0 0 0 0 0 0 0 0 0 0 0 0 0 0 0
0 0 0 0 0 0 0 0 0 0 0 0 1 1 1 0 0 0 0 0 0 0 0 0 0 0 0 0 0 0 0 0 0 0 0 0 0 0 0 0 0 0 0 0 0 0 0 0 0
0 0 0 0 0 0 0 0 0 0 0 1 1 1 0 0 0 0 0 0 0 0 0 0 0 0 0 0 0 0 0 0 0 0 0 0 0 0 0 0 0 0 0 0 0 0 0 0 0
0 0 0 0 0 0 0 0 0 0 0 1 2 1 0 0 0 0 1 1 1 1 0 1 1 1 0 0 0 0 0 0 0 0 0 0 0 0 0 0 0 0 0 0 0 0 0 0 0
0 0 0 0 0 0 0 0 0 0 1 2 2 1 0 0 0 2 3 3 3 2 1 1 2 2 1 1 1 1 0 0 0 0 0 0 0 0 0 0 0 0 0 0 0 0 0 0 0
0 0 0 0 0 0 0 0 0 0 1 2 3 2 1 0 1 3 5 4 4 5 3 2 2 2 2 2 2 1 0 0 0 0 0 0 0 0 0 0 0 0 0 0 0 0 0 0 0
0 0 0 0 0 0 0 0 1 1 1 2 3 3 2 2 3 5 6 5 5 6 5 3 2 2 2 2 1 1 0 0 0 0 0 0 0 0 0 0 0 0 0 0 0 0 0 0 0
0 0 0 0 0 0 0 0 1 2 3 3 4 3 4 8 11 12 12 9 5 4 4 4 3 1 1 1 0 0 0 0 0 0 0 0 0 0 0 0 0 0 0 0 0 0 0 0 0
0 0 0 0 0 0 0 1 3 4 4 6 6 6 14 25 26 23 21 15 9 6 4 4 3 2 1 0 0 1 2 1 0 0 0 0 0 0 0 0 0 0 0 0 0 0 0 0 0
0 0 0 0 0 0 2 4 6 6 6 8 11 17 32 44 39 30 24 18 13 9 6 5 6 5 3 2 2 3 3 1 0 0 0 0 0 0 0 0 0 0 0 0 0 0 0 0 0
0 0 0 0 0 0 2 4 6 6 6 8 17 33 47 52 43 29 21 17 14 10 8 8 8 7 6 5 5 5 3 1 0 0 0 0 0 0 0 0 0 0 0 0 0 0 0 0 0
0 0 0 0 0 0 1 2 4 5 5 10 24 43 53 50 39 26 18 14 12 11 10 8 8 8 7 6 6 5 3 2 2 1 0 0 0 0 0 0 0 0 0 0 0 0 0 0 0
0 0 0 0 0 0 0 2 3 4 8 15 29 46 52 46 35 26 19 15 13 12 10 7 7 8 8 7 6 5 3 3 4 3 1 0 0 0 0 0 0 0 0 0 0 0 0 0 0
0 0 0 0 0 0 0 1 2 5 12 21 32 42 45 40 34 29 24 19 14 11 7 5 6 9 9 7 5 4 3 4 5 5 2 0 0 0 0 0 1 1 0 0 0 0 0 0 0
0 0 0 0 0 0 0 0 2 7 14 22 28 35 37 34 32 33 29 22 16 9 5 4 5 7 8 7 5 4 4 3 4 4 2 0 0 0 0 0 1 2 1 0 0 0 0 0 0
0 0 0 0 0 0 0 0 3 9 13 16 20 25 28 28 28 29 31 27 20 13 7 7 8 8 7 7 5 5 5 3 2 2 1 0 0 0 0 0 1 1 1 0 0 0 0 0 0
0 0 0 0 0 0 0 1 5 10 12 12 14 18 23 24 23 25 31 32 27 19 13 12 12 10 9 7 6 5 4 2 1 0 0 0 0 0 0 0 0 0 0 0 0 0 0 0 0
0 0 0 0 0 0 0 1 5 10 10 10 12 15 19 20 20 24 31 34 31 23 18 15 13 11 9 8 7 4 2 1 0 0 0 0 0 0 0 0 0 0 0 0 0 0 0 0 0
0 0 0 0 0 0 0 1 4 8 9 9 11 14 16 18 20 25 30 34 33 29 23 18 13 9 7 7 6 3 1 0 0 0 0 0 0 0 0 0 0 0 0 0 0 0 0 0 0
0 0 0 0 0 0 0 1 3 5 7 9 12 15 17 18 22 28 33 34 34 33 27 19 14 9 6 5 4 2 1 0 0 0 0 0 0 0 0 0 0 0 0 0 0 0 0 0 0
0 0 0 0 0 0 0 1 2 3 4 8 13 17 19 21 26 33 35 34 32 29 24 19 16 12 8 6 4 2 1 1 0 0 0 0 0 0 0 0 0 0 0 0 0 0 0 0 0
0 0 0 0 0 0 0 0 0 1 2 6 12 18 21 23 29 34 34 31 29 24 20 18 17 14 10 8 6 5 4 3 2 1 0 0 0 0 0 0 0 0 0 0 0 0 0 0 0
0 0 0 0 0 0 0 0 0 0 1 4 13 20 22 24 30 31 29 27 26 22 19 18 17 14 11 9 7 5 4 4 3 2 1 0 0 0 0 0 0 0 0 0 0 0 0 0 0
0 0 0 0 0 0 0 0 0 0 0 4 14 20 21 23 26 25 23 24 24 22 21 21 18 15 12 10 8 5 4 4 3 3 2 1 0 0 0 0 0 0 0 0 0 0 0 0 0
0 0 0 0 0 0 0 0 0 0 0 4 11 16 17 19 19 18 20 23 26 25 24 22 19 16 13 12 10 7 4 4 3 3 2 1 1 1 1 1 0 0 0 0 0 0 0 0 0
0 0 0 0 0 0 0 0 0 1 1 5 9 12 12 12 12 15 20 25 27 26 23 20 17 13 12 13 11 7 5 4 2 1 2 2 2 2 1 0 0 0 0 0 0 0 0 0 0
0 0 0 0 0 0 0 0 0 1 3 5 8 9 8 7 9 14 20 23 22 19 17 15 12 11 10 9 8 6 4 4 2 1 1 1 1 1 1 0 0 0 0 0 0 0 0 0 0
0 0 0 0 0 0 0 0 0 1 4 5 5 6 6 8 10 14 17 18 15 11 10 10 9 9 7 5 3 3 3 3 3 1 0 0 0 0 0 0 0 0 0 0 0 0 0 0 0
0 0 0 0 0 0 0 0 0 1 4 5 4 4 7 10 12 12 12 12 9 6 6 6 6 6 5 2 1 1 2 2 2 1 0 0 0 0 0 0 0 0 0 0 0 0 0 0 0
0 0 0 0 0 0 0 0 0 1 3 5 5 5 7 11 12 10 8 9 7 5 5 4 4 4 3 1 0 0 1 1 1 1 0 0 0 0 0 0 0 0 0 0 0 0 0 0 0

GEFSSGP_con_probscp_150.txt.gz
Probability
0 1 4 7 6 2 0 0 0 0 0 0 0 0 0 0 0 0 0 0 0 0 0 0 0 0 1 3 4 4 2 1 0 0 0 0 0 0 0 0 0 0 0 0 0 0 0 0 0
0 1 3 5 3 1 0 0 0 0 0 0 0 0 0 0 0 0 0 0 0 0 0 0 0 0 1 2 2 2 1 0 0 0 0 0 0 0 0 0 0 0 0 0 0 0 0 0 0
0 1 2 2 1 0 0 0 0 0 0 0 0 0 0 0 0 0 0 0 0 0 0 0 0 0 1 1 0 0 0 0 0 0 0 0 0 0 0 0 0 0 0 0 0 0 0 0 0
1 1 0 0 0 0 0 0 0 0 0 0 0 0 0 0 0 0 0 0 0 0 0 0 0 0 0 0 0 0 0 0 0 0 0 0 0 0 0 0 0 0 0 0 0 0 0 0 0
0 0 0 0 0 0 0 0 0 0 0 0 0 1 1 1 0 0 0 0 0 0 0 0 0 0 0 0 0 0 0 0 0 0 0 0 0 0 0 0 0 0 0 0 0 0 0 0 0
0 0 0 0 0 0 0 0 0 0 0 0 0 1 3 2 1 1 0 0 0 0 0 0 0 0 0 0 0 0 0 0 0 0 0 0 0 0 0 0 0 0 0 0 0 0 0 0 0
0 0 0 0 0 0 0 0 0 0 0 0 1 3 6 7 5 3 1 1 0 0 0 0 0 0 0 0 0 0 0 0 0 0 0 0 0 0 0 0 0 0 0 0 0 0 0 0 0
0 0 0 0 0 0 0 0 0 0 1 1 1 4 12 19 16 9 6 3 1 0 1 1 1 0 0 0 0 0 0 0 0 0 0 0 0 0 0 0 0 0 0 0 0 0 0 0 0
0 0 0 0 0 0 0 0 0 0 0 0 1 6 21 34 32 22 15 9 5 2 1 1 1 0 0 0 0 0 0 0 0 0 0 0 0 0 0 0 0 0 0 0 0 0 0 0 0
0 0 0 0 0 0 0 0 0 0 0 0 3 14 33 44 41 31 23 16 10 6 3 1 0 0 0 0 0 0 0 0 0 0 0 0 0 0 0 0 0 0 0 0 0 0 0 0 0
0 0 0 0 0 0 0 0 0 0 0 1 8 24 40 45 40 32 24 19 16 11 6 2 1 1 1 1 1 1 1 1 0 0 0 0 0 0 0 0 0 0 0 0 0 0 0 0 0
0 0 0 0 0 0 0 0 0 0 0 2 12 28 39 39 33 26 20 18 18 16 10 4 3 3 4 3 3 3 2 1 0 0 0 0 0 0 0 0 0 0 0 0 0 0 0 0 0
0 0 0 0 0 0 0 0 0 0 0 4 14 26 32 29 24 22 21 22 23 20 14 8 6 6 6 6 5 4 3 2 2 1 0 0 0 0 0 0 0 0 0 0 0 0 0 0 0
0 0 0 0 0 0 0 0 0 0 1 5 14 21 24 22 21 25 29 31 29 24 17 12 9 8 7 7 6 5 5 5 5 4 3 1 1 1 0 0 0 0 0 0 0 0 0 0 0
0 0 0 0 0 0 0 0 0 0 2 6 12 18 21 22 25 30 35 38 35 27 21 15 10 8 8 9 8 6 6 6 6 7 6 4 4 3 1 1 1 0 0 0 0 0 0 0 0
0 0 0 0 0 0 0 0 0 1 4 7 11 15 20 26 29 30 34 38 37 32 26 20 13 10 12 13 11 8 7 7 6 6 6 6 6 5 4 3 1 0 0 0 0 0 0 0 0
0 0 0 0 0 0 0 0 1 3 5 8 11 13 18 25 30 29 33 39 39 35 30 25 19 16 15 16 14 11 10 9 7 5 6 6 6 6 5 3 1 0 0 0 0 0 0 0 0
0 0 0 0 0 0 0 0 1 2 4 7 11 14 17 23 28 29 33 38 40 37 34 30 26 22 19 18 18 16 14 11 9 6 5 5 5 4 3 1 0 0 0 0 0 1 1 0 0
0 0 0 0 0 0 0 0 0 1 2 6 11 15 18 22 27 30 32 36 40 39 36 33 29 26 24 24 23 20 15 11 9 7 5 3 2 1 0 0 0 0 1 1 1 2 2 1 0
0 0 0 0 0 0 0 0 1 1 2 4 9 15 20 24 29 33 34 35 39 40 37 33 32 31 29 28 25 19 14 11 9 7 4 2 0 0 0 0 0 1 2 3 3 3 3 1 0
0 0 0 0 0 0 0 1 2 2 2 4 8 15 21 26 31 37 39 37 37 38 37 34 35 35 33 29 22 18 16 14 10 6 3 2 1 1 0 0 1 2 4 5 4 3 3 2 1
0 0 0 0 0 0 0 1 2 2 1 4 9 16 22 27 32 39 43 40 36 34 34 35 37 37 34 28 23 20 18 14 10 7 5 4 3 2 1 0 1 2 4 4 3 3 3 2 1
0 0 0 0 0 0 0 0 1 1 1 3 9 16 23 28 32 39 42 39 34 30 29 31 34 35 32 27 25 22 17 12 10 10 9 7 5 4 2 1 0 1 2 2 1 1 2 2 1
0 0 0 0 0 0 0 0 0 0 0 1 5 14 23 26 30 35 36 34 31 28 27 28 30 30 28 26 24 22 18 15 15 14 12 10 9 7 4 2 1 2 2 2 1 1 1 1 0
0 0 0 0 0 0 0 0 0 0 0 0 4 12 20 22 25 28 28 28 30 29 28 27 26 26 25 24 21 20 19 18 17 15 13 12 12 9 6 5 5 6 5 4 4 4 3 2 1
0 0 0 0 0 0 0 0 0 0 0 0 4 12 17 19 20 21 22 26 31 32 30 28 26 25 24 23 20 18 16 14 12 10 10 10 9 7 6 7 8 8 6 6 7 8 6 5 4
0 0 0 0 0 0 0 0 0 0 0 1 5 11 16 17 16 17 21 27 33 34 32 29 27 25 25 23 20 16 12 9 6 5 6 7 6 4 4 7 8 7 7 7 9 9 8 7 7
0 0 0 0 0 0 0 0 0 0 1 3 7 12 15 14 14 17 22 27 31 30 28 26 26 25 24 21 17 13 9 6 4 4 4 4 4 3 4 5 7 8 7 7 8 9 8 9 10
0 0 0 0 0 0 0 0 0 0 1 4 10 13 13 13 15 20 24 25 24 22 21 22 23 22 19 15 12 10 8 5 4 4 3 2 3 3 3 4 6 7 7 6 7 7 7 9 11
0 0 0 0 0 0 0 0 0 0 1 5 11 14 14 13 17 22 25 23 18 16 18 22 22 18 14 10 9 9 7 4 3 3 2 1 1 2 3 4 5 6 7 6 5 6 8 10 11

GEFSSGP_con_probscp_156.txt.gz
Probability
7 18 35 44 32 10 1 0 0 0 0 0 0 0 0 0 0 0 0 0 0 0 0 0 0 0 0 0 0 0 0 0 0 0 0 0 0 0 0 0 0 0 0 0 0 0 0 0 0
8 19 33 36 21 6 0 0 0 0 0 0 0 0 0 0 0 0 0 0 0 0 0 0 0 0 0 0 0 0 0 0 0 0 0 0 0 0 0 0 0 0 0 0 0 0 0 0 0
10 18 26 21 9 1 0 0 0 0 0 0 0 0 0 0 0 0 0 0 0 0 0 0 0 0 0 0 0 0 0 0 0 0 0 0 0 0 0 0 0 0 0 0 0 0 0 0 0
12 15 15 8 2 0 0 0 0 0 0 0 0 0 0 0 0 0 0 0 0 0 0 0 0 0 0 0 0 0 0 0 0 0 0 0 0 0 0 0 0 0 0 0 0 0 0 0 0
9 8 5 2 0 0 0 0 0 0 0 0 1 2 1 0 0 1 1 1 3 3 2 0 0 0 0 0 1 1 0 0 0 0 0 0 0 0 0 0 0 0 0 0 0 0 0 0 0
5 3 1 0 0 0 0 0 0 0 0 1 3 5 4 2 2 2 3 3 7 10 6 1 0 0 0 1 2 2 1 0 0 0 0 0 0 0 0 0 0 0 0 0 0 0 0 0 0
3 2 0 0 0 0 0 0 0 0 0 0 3 7 8 7 6 6 6 6 11 13 8 2 0 0 0 1 2 2 1 0 0 0 0 0 0 0 0 0 0 0 0 0 0 0 0 0 0
1 1 0 0 0 0 0 0 0 0 0 0 3 8 12 12 11 10 9 10 13 14 8 3 2 1 1 1 2 2 1 0 0 0 0 0 0 0 0 0 0 0 0 0 0 0 0 0 0
0 0 0 0 0 0 0 0 0 1 2 3 7 13 18 17 13 12 13 14 16 15 11 6 4 3 3 4 3 1 0 0 0 0 0 0 0 0 0 0 0 0 0 0 0 0 0 0 0
0 0 0 0 0 0 0 0 1 2 4 10 17 23 24 20 16 14 15 17 18 19 16 11 7 5 6 7 4 1 0 0 0 0 0 0 0 0 0 0 0 0 0 0 0 0 1 1 1
0 0 0 0 0 0 0 0 1 2 6 15 25 30 28 24 20 17 18 20 22 23 20 15 12 9 9 9 5 2 1 0 0 0 0 0 0 0 0 0 0 0 0 0 0 0 1 1 0
0 0 0 0 0 0 0 0 0 2 7 17 28 33 31 27 23 20 22 27 30 30 26 22 21 19 17 13 8 4 2 1 0 0 0 0 0 0 0 0 0 0 0 0 0 0 0 0 0
0 0 0 0 0 0 0 0 1 3 10 20 30 35 33 29 26 26 32 40 44 41 37 33 32 32 28 22 14 7 5 4 2 1 0 0 0 0 1 1 0 0 0 0 0 0 0 0 0
0 0 0 0 0 1 1 2 2 5 12 23 31 35 34 32 33 40 49 55 56 52 45 41 39 37 34 27 19 12 8 6 4 3 2 0 1 2 3 3 2 1 1 1 0 0 0 0 0
0 0 0 0 0 1 2 3 4 6 12 21 29 32 36 40 47 56 63 65 62 57 52 45 39 36 33 28 22 15 10 7 6 6 5 2 2 4 5 5 4 3 3 3 1 0 0 0 0
0 0 0 0 0 0 1 3 4 6 10 18 25 31 40 49 58 66 69 68 64 61 58 49 40 37 34 28 22 18 13 11 10 10 9 7 5 5 5 4 4 4 5 4 2 0 0 0 1
0 0 0 0 0 0 0 2 4 5 9 17 25 33 43 54 62 69 71 68 66 65 61 52 44 41 37 30 25 21 20 19 17 15 15 13 10 7 5 4 5 5 5 4 2 1 0 1 2
0 0 0 0 0 0 1 3 4 6 11 19 29 39 47 56 65 72 73 69 67 67 63 56 51 47 41 34 30 27 27 26 23 20 19 17 13 9 6 5 5 6 6 5 4 1 1 1 2
0 0 0 0 0 0 1 4 6 8 12 21 33 44 52 59 68 73 73 69 68 68 66 61 57 53 46 38 34 32 31 29 24 20 20 19 14 9 7 5 4 5 6 6 5 3 2 1 1
0 0 0 0 0 0 1 3 6 9 13 20 31 44 53 62 70 74 72 68 68 70 69 65 61 57 50 42 35 31 30 26 19 17 19 19 14 11 9 7 6 5 6 7 7 5 4 2 1
0 0 0 0 0 0 1 2 5 8 12 15 24 38 53 63 70 74 73 69 69 70 68 64 61 58 53 46 36 29 27 22 17 16 20 20 16 13 11 9 7 5 4 6 7 6 4 3 1
0 0 0 0 0 0 0 1 4 8 11 12 19 34 52 62 68 73 72 69 68 68 66 64 63 60 56 49 39 31 26 22 19 19 22 23 20 14 11 10 9 6 4 5 6 6 5 5 4
0 0 0 0 0 0 0 1 4 8 11 14 20 34 48 57 63 67 68 66 64 62 61 63 62 58 53 48 41 33 28 24 21 20 22 23 19 13 11 10 10 9 6 5 7 8 8 6 5
0 0 0 0 0 0 0 1 3 6 9 16 25 34 42 50 56 60 61 61 60 57 56 57 57 52 48 46 42 35 29 25 20 19 20 19 15 13 11 10 9 9 8 8 8 10 10 8 7
0 0 0 0 0 0 0 1 3 4 6 15 27 34 37 43 48 51 52 55 55 53 53 53 53 51 47 46 44 38 30 23 18 17 17 16 14 13 14 12 10 9 9 10 9 10 11 11 11
0 0 0 0 0 0 0 2 4 4 4 13 26 33 33 37 41 43 44 47 49 49 52 55 54 51 47 45 44 38 29 20 15 14 15 14 13 13 13 14 12 11 10 10 9 9 11 14 15
0 0 0 0 0 0 0 2 4 5 5 12 24 30 31 35 37 38 39 42 44 46 49 54 55 49 44 41 37 32 26 18 12 9 9 10 10 9 9 10 10 10 10 11 10 10 13 17 19
0 0 0 0 0 0 0 1 4 6 6 10 20 26 30 33 34 34 36 38 41 44 47 51 50 44 38 35 29 23 20 15 9 6 6 9 10 10 8 7 7 8 10 12 12 11 13 18 21
0 0 0 0 0 0 0 1 3 5 6 8 16 23 28 31 33 33 34 36 39 43 47 47 44 38 34 30 22 16 16 13 10 9 9 11 12 12 11 10 9 8 9 13 14 12 11 14 16
0 0 0 0 0 0 0 0 2 4 4 6 14 23 27 31 33 33 35 35 37 42 46 46 40 35 33 27 18 14 15 15 14 14 13 12 11 12 14 14 12 8 8 13 15 11 8 9 11

GEFSSGP_con_probscp_162.txt.gz
Probability
0 0 1 1 1 0 0 0 0 0 0 0 0 0 0 0 0 0 0 1 2 2 1 0 0 0 0 0 0 0 0 0 0 0 0 0 0 0 0 0 0 0 0 0 0 0 0 0 0
0 0 0 0 0 0 0 0 0 0 0 0 0 0 0 0 0 0 0 1 2 2 1 0 0 0 0 0 0 0 0 0 0 0 0 0 0 0 0 0 0 0 0 0 0 0 0 0 0
0 0 0 0 0 0 0 0 0 1 0 0 0 0 0 0 0 1 1 1 2 1 0 0 1 1 1 0 0 0 0 0 0 0 0 0 0 0 0 0 0 0 0 0 0 0 0 0 0
1 1 0 0 0 0 0 0 0 1 1 1 0 0 0 2 3 4 3 4 5 3 1 2 2 3 2 1 0 0 0 0 0 0 0 0 0 0 0 0 0 0 0 0 0 0 0 0 0
0 0 0 0 0 0 0 0 1 2 3 2 1 0 1 6 11 10 6 6 9 8 5 4 5 5 4 2 1 0 0 0 0 0 0 0 0 0 0 0 0 0 0 0 0 0 0 0 0
0 0 0 0 0 0 0 0 2 5 6 5 3 1 4 12 19 16 9 7 8 9 7 5 5 6 6 5 3 1 0 0 0 0 0 0 0 0 0 0 0 0 0 0 0 0 0 0 0
0 0 0 0 0 0 0 0 1 4 8 9 6 3 6 16 25 23 14 6 5 6 5 3 3 5 6 6 4 1 0 0 0 0 0 0 0 0 0 0 0 0 0 0 0 0 0 0 0
0 0 0 0 0 0 0 1 2 5 10 11 8 5 8 19 31 33 22 10 5 4 3 3 2 2 3 4 3 1 0 0 0 0 0 0 0 0 0 0 0 0 0 0 0 0 0 0 0
0 0 0 0 0 1 2 3 4 7 11 11 8 7 13 28 44 45 34 19 10 5 3 3 2 1 2 2 1 1 0 0 0 0 0 0 0 0 0 0 0 0 0 0 0 0 0 0 0
0 0 0 0 0 1 2 3 6 10 12 11 10 11 19 38 54 55 44 29 16 8 4 2 1 1 1 1 1 1 0 0 0 0 0 0 0 0 0 0 0 0 0 0 0 0 0 0 0
0 0 0 0 0 1 2 3 6 11 13 12 13 14 21 38 53 57 48 33 20 11 5 2 2 2 2 0 0 1 0 0 0 0 0 0 0 0 0 0 0 0 0 0 0 0 0 0 0
0 0 0 1 1 1 2 5 9 12 13 13 15 15 18 29 42 50 46 36 25 17 10 6 5 4 3 1 0 0 0 0 0 0 0 0 0 0 0 0 0 0 0 0 0 0 0 0 0
0 0 0 1 2 3 4 7 11 14 15 16 17 15 16 22 33 42 42 38 33 27 20 15 11 7 4 2 1 1 1 1 0 0 0 0 0 0 0 0 0 0 0 0 0 0 0 0 0
0 0 0 1 2 3 4 8 13 17 20 20 19 17 18 22 31 39 41 39 39 38 32 26 18 11 6 5 3 3 2 2 1 0 0 0 0 0 0 0 0 0 0 0 0 0 0 0 0
0 0 0 0 1 1 3 6 12 21 26 26 23 21 23 28 35 40 40 39 43 46 44 37 27 18 13 9 6 4 3 3 2 1 0 0 0 0 0 0 0 0 0 0 0 0 0 0 0
0 0 0 0 0 0 1 4 11 23 33 34 32 30 31 35 38 39 38 40 46 51 49 43 36 27 20 13 9 6 5 3 2 1 0 0 0 0 0 0 0 0 0 0 0 0 0 0 0
0 0 0 0 0 0 0 3 11 23 35 41 43 43 43 44 44 42 43 46 50 52 48 43 38 33 25 17 12 10 7 4 3 1 0 0 0 0 0 0 0 0 0 0 0 0 0 0 0
0 0 0 0 0 0 1 5 13 25 37 45 51 53 54 54 53 53 56 56 54 50 45 41 37 34 28 21 15 11 9 6 5 3 1 1 1 0 0 0 0 0 0 0 0 0 0 0 0
0 0 0 0 0 0 1 6 15 27 39 49 56 59 62 63 61 63 66 63 56 47 42 39 37 35 31 24 17 11 8 8 7 4 2 2 2 1 0 0 0 0 0 0 0 0 0 0 0
0 0 0 0 0 0 1 4 11 23 37 49 57 61 65 67 66 67 69 65 58 49 43 40 38 34 28 21 14 10 7 8 9 6 3 1 2 1 1 0 0 0 0 0 0 0 0 0 0
0 0 0 0 0 0 1 2 6 16 31 46 55 59 63 66 68 70 70 67 61 51 44 41 37 31 25 18 13 11 8 8 9 8 3 1 1 2 2 1 0 0 0 0 0 0 0 0 0
0 0 0 0 0 0 0 0 3 11 25 41 52 58 61 64 67 69 69 68 61 51 45 42 38 32 25 19 16 13 10 9 8 6 3 1 0 1 2 2 1 0 0 0 0 0 0 0 0
0 0 0 0 0 0 0 0 3 10 23 37 49 57 62 64 65 64 64 63 57 50 45 43 39 35 29 24 20 15 12 9 6 5 3 1 0 1 2 2 1 0 0 0 0 0 0 0 0
0 0 0 0 0 0 0 0 2 9 20 32 45 55 61 64 62 59 56 54 51 47 44 41 38 36 32 27 22 17 13 8 5 5 4 2 0 1 2 2 1 0 0 0 0 0 0 0 0
0 0 0 0 0 0 0 0 2 6 15 28 41 50 56 58 57 53 49 46 44 41 38 35 33 31 31 28 22 16 11 6 4 4 4 3 1 1 1 1 0 0 0 0 0 0 0 0 0
0 0 0 0 0 0 0 1 3 6 13 26 39 46 49 50 45 42 40 38 35 32 30 27 25 25 25 24 18 13 8 4 2 3 3 2 2 1 0 0 0 0 0 0 0 0 0 0 0
0 0 0 0 0 0 0 2 6 11 19 28 37 41 41 38 33 30 31 29 27 26 25 21 19 19 19 18 14 10 7 4 2 1 1 1 1 0 0 0 0 0 0 0 1 2 1 1 1
0 0 0 0 0 0 0 1 5 14 24 32 36 36 34 31 27 25 24 22 21 23 22 19 16 16 15 12 11 9 7 5 2 0 0 0 0 0 0 0 0 0 0 0 1 2 2 2 2
0 0 0 0 0 0 0 0 3 12 26 34 34 34 33 30 26 25 24 21 20 21 20 18 15 13 12 11 10 9 7 5 3 1 0 0 0 0 0 0 0 0 0 0 1 1 1 1 1
0 0 0 0 0 0 0 1 3 13 27 34 34 35 34 30 27 27 27 24 22 21 20 18 14 11 11 11 11 9 7 6 3 1 0 0 0 0 0 0 0 0 0 0 0 1 2 2 1

GEFSSGP_con_probscp_168.txt.gz
Probability
2 2 1 0 0 0 0 0 0 0 0 0 0 0 0 0 0 0 0 0 1 1 0 0 1 2 3 3 3 3 3 3 3 3 3 1 0 0 0 0 0 1 2 3 3 3 2 2 2
2 1 0 0 0 0 0 0 0 0 0 0 0 0 0 0 0 0 0 0 1 2 1 0 1 2 3 3 3 3 3 3 3 3 3 2 1 1 0 0 0 1 2 3 3 2 1 1 1
2 1 0 0 0 0 0 0 0 0 0 0 0 0 0 0 0 0 0 0 1 2 2 1 1 2 2 3 3 3 3 3 3 3 3 3 3 2 1 0 0 0 1 1 2 1 0 0 0
1 1 0 0 0 0 0 0 0 0 0 0 0 0 1 2 1 1 1 1 2 3 4 4 5 4 3 3 3 3 3 3 3 3 3 3 3 3 2 1 0 0 0 0 0 0 0 0 0
0 0 0 0 0 0 0 0 0 0 0 1 1 1 2 3 3 3 2 3 5 7 7 8 9 8 5 3 3 2 2 2 2 1 1 2 3 3 3 2 1 1 1 1 0 0 0 0 0
0 0 0 0 0 0 0 0 0 1 1 2 3 3 3 3 3 4 4 4 6 9 9 10 11 9 6 4 2 2 1 1 1 0 0 1 1 2 3 3 3 2 2 2 1 1 1 0 0
0 0 0 0 0 0 0 1 1 2 3 4 4 4 4 4 4 5 4 4 5 6 8 9 8 7 7 5 2 1 2 2 1 1 0 0 0 1 1 2 3 3 3 3 3 2 2 1 1
0 0 0 0 0 0 0 1 3 4 4 4 4 5 6 6 7 7 6 4 4 4 5 6 5 4 4 3 1 0 1 2 2 2 1 1 1 0 0 1 2 2 2 3 3 3 3 3 2
0 0 0 0 0 0 1 3 5 5 4 4 4 7 12 13 14 13 10 7 5 4 3 3 3 2 1 1 0 0 0 1 2 2 2 2 2 1 1 1 2 2 2 3 3 3 3 3 2
0 0 0 0 0 0 2 5 7 6 5 4 6 13 22 24 20 16 12 8 6 5 4 2 3 3 2 0 1 1 1 1 1 1 2 2 1 2 2 3 3 3 2 2 2 2 2 1 1
0 0 0 0 0 1 4 6 7 5 3 5 12 24 32 29 20 15 10 6 5 5 4 2 2 4 3 2 2 2 2 2 2 1 1 1 0 1 2 2 2 2 2 1 1 1 1 0 0
0 0 0 0 0 1 4 6 6 3 2 7 18 31 34 27 18 12 7 4 2 3 4 2 3 5 5 3 3 3 3 3 3 3 2 1 0 0 1 1 1 1 1 0 0 0 0 0 0
0 0 0 0 0 1 3 6 4 2 4 11 21 30 29 23 17 12 7 4 3 2 2 2 4 5 5 4 3 3 3 3 3 3 3 2 1 0 0 0 0 0 0 0 0 0 0 0 0
0 0 0 0 0 1 3 4 2 2 6 12 18 22 22 19 17 15 12 9 6 4 2 3 4 4 4 3 3 3 3 3 3 3 3 3 2 1 0 0 0 0 0 0 0 0 0 0 0
0 0 0 0 0 1 2 2 2 3 6 10 12 15 16 16 16 17 16 14 11 7 4 4 5 4 4 3 3 3 3 3 3 3 3 3 2 1 0 1 0 0 0 0 0 0 0 0 0
0 0 0 0 0 1 1 2 4 4 5 7 10 13 14 13 14 16 18 18 14 9 5 5 6 6 5 3 3 3 3 3 3 3 3 3 2 0 0 0 0 0 0 0 0 0 0 0 0
0 0 0 0 0 0 1 3 5 5 5 7 11 14 13 11 11 14 18 19 16 12 7 6 6 7 6 4 2 2 1 1 2 3 3 3 2 1 0 0 0 0 0 0 0 0 0 0 0
0 0 0 0 0 0 1 3 4 4 6 10 14 17 15 11 9 12 16 18 17 14 10 8 7 7 7 4 2 1 0 0 1 2 2 2 2 1 0 0 0 0 0 0 0 0 0 0 0
0 0 0 0 0 0 1 2 2 2 6 12 18 21 20 16 13 13 15 17 19 17 14 11 8 7 7 6 4 2 1 0 1 2 2 1 1 1 0 0 0 0 0 0 0 0 0 0 0
0 0 0 0 0 0 1 1 1 1 4 11 20 25 25 22 19 17 17 18 21 21 18 15 10 8 8 8 6 3 1 1 1 2 3 2 1 0 0 0 0 0 0 0 0 0 0 0 0
0 0 0 0 0 0 0 0 0 0 4 11 20 27 29 27 24 22 21 21 22 23 22 18 12 10 10 10 9 6 4 3 3 3 3 2 1 0 0 0 0 0 0 0 0 0 0 0 0
0 0 0 0 0 0 0 0 0 1 5 12 20 26 29 29 29 27 25 24 21 21 21 18 13 11 10 10 10 9 7 5 3 2 3 2 1 1 0 0 0 0 0 0 0 0 0 0 0
0 0 0 0 0 0 0 0 0 1 4 11 18 23 26 30 33 31 27 22 19 20 20 17 14 12 10 9 8 8 8 5 2 1 1 1 1 0 0 0 0 0 0 0 0 0 0 0 0
0 0 0 0 0 0 0 0 0 1 4 9 15 22 27 32 33 30 25 20 18 21 22 18 15 14 11 9 7 6 6 4 2 1 0 0 0 0 0 0 0 0 0 0 0 0 0 0 0
0 0 0 0 0 0 0 0 0 2 5 9 15 22 30 32 29 25 20 16 16 19 20 17 15 13 11 8 6 5 4 3 3 2 1 0 0 0 0 0 0 0 0 0 0 0 0 0 0
0 0 0 0 0 0 0 1 1 3 6 10 15 22 27 28 24 20 15 12 12 15 15 13 11 9 8 7 6 4 4 3 3 2 1 0 0 0 0 0 0 0 0 0 0 0 0 0 0
0 0 0 0 0 0 0 1 2 3 5 10 14 18 21 20 18 15 13 11 12 14 14 11 8 7 6 6 6 5 4 3 3 2 1 0 0 0 0 0 0 0 0 0 0 0 0 0 0
0 0 0 0 0 0 0 1 1 1 4 8 11 13 14 13 12 12 12 12 13 14 14 11 8 6 6 5 5 5 4 4 4 3 2 2 2 1 1 0 0 0 0 0 0 0 0 0 0
0 0 0 0 0 0 0 0 0 0 3 7 9 10 10 10 11 12 12 12 13 16 15 12 8 5 4 4 4 5 5 5 5 5 5 5 5 3 2 1 1 1 0 0 0 0 0 0 0
0 0 0 0 0 0 0 0 0 0 2 6 9 9 10 11 14 15 14 13 14 17 15 12 8 5 3 3 4 6 6 5 5 6 6 6 6 5 3 2 2 2 1 0 0 0 0 0 0

GEFSSGP_con_probscp_174.txt.gz
Probability
1 1 2 4 2 1 0 0 0 0 0 0 0 0 0 0 0 0 0 0 0 0 0 0 0 0 0 0 0 0 0 0 0 0 0 0 0 0 0 0 0 0 0 0 0 0 0 0 0
1 1 3 3 1 0 0 0 0 0 0 0 0 0 0 0 0 0 0 0 0 0 0 0 0 0 0 0 0 0 0 0 0 0 0 0 0 0 0 0 0 0 0 0 0 0 0 0 0
0 1 2 1 0 0 0 0 0 0 0 0 0 0 0 0 0 0 0 0 0 0 0 0 0 0 0 0 0 0 0 0 0 0 0 0 0 0 0 0 0 0 0 0 0 0 0 0 0
1 1 1 0 0 0 0 0 0 0 0 0 0 0 0 0 0 0 0 0 0 0 0 0 0 0 0 0 0 0 0 0 0 0 0 0 0 0 0 0 0 0 0 0 0 0 0 0 0
0 0 0 0 0 0 0 0 0 0 0 0 0 0 0 0 0 0 0 0 0 0 0 0 0 0 0 0 0 0 0 0 0 0 0 0 0 0 0 0 0 0 0 0 0 0 0 0 0
0 0 0 0 0 0 0 0 0 0 0 0 0 0 0 0 0 0 0 0 0 0 0 0 0 0 0 0 0 0 0 0 0 0 0 0 0 0 0 0 0 0 0 0 0 0 0 0 0
0 0 0 0 0 0 0 0 0 1 1 1 0 1 1 1 0 0 0 0 0 0 0 0 0 0 0 0 0 0 0 0 0 0 0 0 0 0 0 0 0 0 0 0 0 0 0 0 0
0 0 0 0 0 0 0 0 0 2 2 1 1 2 5 6 3 0 0 0 0 0 0 0 0 0 0 0 0 0 0 0 0 0 0 0 0 0 0 0 0 0 0 0 0 0 0 0 0
0 0 0 0 0 0 0 0 0 2 3 2 2 4 10 14 9 3 1 0 1 1 0 0 0 0 0 0 0 0 0 0 0 0 0 0 0 0 0 0 0 0 0 0 0 0 0 0 0
0 0 0 0 0 0 0 0 0 1 2 3 4 9 18 22 15 6 2 2 3 3 1 0 0 0 0 0 0 0 0 0 0 0 0 0 0 0 0 0 0 0 0 0 0 0 0 0 0
0 0 0 0 0 0 0 0 0 1 1 3 8 18 27 26 16 7 4 3 4 3 2 0 0 0 0 0 0 0 0 0 0 0 0 0 0 0 0 0 0 0 0 0 0 0 0 0 0
0 0 0 0 0 0 0 0 0 1 1 4 11 22 29 25 14 6 4 3 4 5 2 0 0 0 0 0 0 0 0 0 0 0 0 0 0 0 0 0 0 0 0 0 0 0 0 0 0
0 0 0 0 0 0 0 0 0 1 3 6 11 17 21 19 13 8 6 4 4 5 4 1 0 1 1 1 0 0 0 0 0 0 0 0 0 0 0 0 0 0 0 0 0 0 0 0 0
0 0 0 0 0 0 0 0 0 1 3 6 8 8 9 11 12 12 10 7 5 5 5 3 2 2 2 1 1 1 0 0 0 0 0 0 0 0 0 0 0 0 0 0 0 0 0 0 0
0 0 0 0 0 0 0 0 1 2 3 6 7 6 6 7 10 13 13 8 6 6 7 5 4 4 4 2 1 1 0 0 0 0 0 0 0 0 0 0 1 1 0 0 0 0 0 0 0
0 0 0 0 0 0 0 0 1 2 5 8 9 11 12 11 9 10 12 9 7 8 9 7 5 6 6 4 2 1 0 0 0 0 0 0 0 0 0 0 1 1 1 0 0 0 0 0 0
0 0 0 0 0 0 0 0 1 2 6 10 13 17 20 18 12 10 12 11 10 11 13 13 11 10 8 5 2 1 0 0 0 0 0 0 0 0 0 1 1 1 1 1 1 0 0 0 0
0 0 0 0 0 0 0 0 1 3 6 10 13 17 22 22 17 16 17 16 16 19 21 20 18 16 12 7 2 1 1 1 1 1 0 0 0 0 0 1 1 0 1 2 2 1 0 0 0
0 0 0 0 0 0 0 0 1 3 6 10 12 15 21 23 23 23 23 21 24 30 31 29 26 22 18 12 5 2 1 1 1 1 0 0 0 0 0 1 1 0 1 2 2 1 0 0 0
0 0 0 0 0 0 0 0 0 2 5 9 12 16 21 26 29 30 28 27 31 37 38 36 31 26 22 17 10 6 4 2 1 1 0 0 0 0 0 0 1 1 2 2 1 0 0 0 1
0 0 0 0 0 0 0 0 0 0 3 7 12 17 23 28 32 34 34 33 34 38 39 37 33 28 25 22 16 13 11 8 4 2 0 0 0 0 0 0 0 1 2 2 1 0 1 1 2
0 0 0 0 0 0 0 0 0 0 1 4 10 17 24 29 33 35 34 33 33 34 34 33 30 28 27 26 22 20 18 14 8 3 1 0 0 0 0 0 0 1 1 1 0 0 2 3 4
0 0 0 0 0 0 0 0 0 0 0 3 9 16 22 27 32 33 32 30 30 30 31 30 28 27 27 26 23 21 20 16 10 6 3 1 0 0 0 0 1 1 1 0 1 1 2 3 4
0 0 0 0 0 0 0 0 0 0 0 2 6 13 19 23 28 30 30 28 26 27 28 29 28 26 24 23 22 21 20 17 14 9 6 3 1 1 1 2 2 2 2 1 2 2 1 2 4
0 0 0 0 0 0 0 0 0 0 0 1 4 10 16 20 23 25 26 25 23 22 24 27 27 24 20 20 21 21 20 19 17 12 8 5 2 2 3 5 5 5 4 3 4 4 3 3 4
0 0 0 0 0 0 0 0 0 1 1 3 5 9 14 17 18 20 23 22 19 18 22 26 27 24 20 18 18 17 17 17 15 11 8 6 5 5 6 8 8 6 5 5 6 6 6 6 5
0 0 0 0 0 0 0 0 0 1 3 5 7 9 13 16 17 19 22 22 18 19 21 24 25 24 21 18 16 13 13 13 11 9 7 7 8 8 9 8 8 7 6 7 8 9 8 8 8
0 0 0 0 0 0 0 0 0 1 4 7 9 11 14 19 22 24 27 25 22 21 21 20 21 23 22 19 15 12 10 9 8 8 9 9 9 10 10 8 7 7 8 10 12 12 10 9 9
0 0 0 0 0 0 0 0 0 1 3 7 10 13 18 25 29 32 32 29 27 25 20 16 16 19 18 16 14 12 9 8 7 9 11 10 10 11 11 9 8 8 9 11 13 13 11 9 7
0 0 0 0 0 0 0 1 1 1 2 6 10 13 20 28 33 35 36 33 31 27 20 15 14 15 15 13 12 11 9 7 8 10 12 11 10 11 11 10 9 9 9 11 12 12 9 7 5

GEFSSGP_con_probscp_180.txt.gz
Probability
11 25 47 55 36 11 1 0 0 0 0 0 0 0 0 0 0 0 0 1 3 1 0 0 0 0 0 0 0 0 0 0 0 0 0 0 0 0 0 0 0 0 0 0 0 0 0 0 0
9 23 40 39 20 5 0 0 0 0 0 0 0 0 0 0 0 0 0 1 3 2 0 0 0 0 0 0 0 0 0 0 0 0 0 0 0 0 0 0 0 0 0 0 0 0 0 0 0
12 21 27 18 6 1 0 0 0 0 0 0 0 0 0 0 0 0 0 2 4 4 1 0 0 0 0 0 0 0 0 0 0 0 0 0 0 0 0 0 0 0 0 0 0 0 0 0 0
17 18 14 6 1 0 0 0 0 0 0 0 0 0 0 0 0 0 1 3 5 5 2 0 0 0 0 0 0 0 0 0 0 0 0 0 0 0 0 0 0 0 0 0 0 0 0 0 0
15 11 6 2 0 0 0 0 0 0 0 0 0 0 0 0 0 0 2 5 7 6 4 1 0 0 0 0 0 0 0 0 0 0 0 0 0 0 0 0 0 0 0 0 0 0 0 0 0
7 4 1 0 0 0 0 0 0 0 0 0 1 2 1 0 0 1 3 7 10 9 5 2 0 0 0 0 0 0 0 0 0 0 0 0 0 0 0 0 0 0 0 0 0 0 0 0 0
3 2 0 0 0 0 0 0 0 0 0 0 2 4 4 3 2 2 5 8 11 11 6 1 0 0 0 0 0 0 0 0 0 0 0 0 0 0 0 0 0 0 0 0 0 0 0 0 0
1 0 0 0 0 0 0 0 0 0 0 0 4 8 10 8 6 4 6 8 11 10 6 3 2 1 1 1 0 0 0 0 0 1 1 0 0 0 0 0 0 0 0 0 0 0 0 0 0
0 0 0 0 0 0 0 0 0 1 2 2 7 13 14 12 10 8 10 12 12 10 8 7 5 3 2 2 1 0 0 0 0 1 1 0 0 0 0 0 0 0 0 0 0 0 0 0 0
0 0 0 0 0 0 0 0 0 1 2 5 12 19 17 13 13 14 17 18 15 10 9 9 7 5 3 3 2 0 0 0 0 1 1 0 0 0 0 0 0 0 0 0 0 0 0 0 0
0 0 0 0 0 0 0 0 0 0 2 7 16 22 19 14 15 21 25 24 19 14 12 10 8 6 4 3 1 0 1 1 1 0 0 0 0 0 0 0 0 0 0 0 0 0 0 0 0
0 0 0 0 0 0 0 0 0 0 1 7 15 21 19 16 17 23 28 29 26 21 17 14 11 9 6 5 3 1 1 2 1 1 1 0 0 0 0 0 0 0 0 0 0 0 0 0 0
0 0 0 0 0 0 0 0 0 0 1 4 11 17 19 18 19 26 32 36 36 30 25 23 20 16 12 10 7 4 3 3 4 4 3 1 1 0 0 1 1 1 1 2 1 1 1 0 0
0 0 0 0 0 0 0 0 0 1 1 3 8 15 20 22 26 35 41 44 44 41 37 34 30 24 18 13 9 7 6 6 8 10 8 5 2 1 1 2 2 1 2 3 3 2 2 1 0
0 0 0 0 0 0 0 0 1 3 3 3 6 13 21 27 34 43 48 50 51 51 49 43 35 29 24 17 13 10 8 8 11 14 14 9 5 3 4 4 3 3 3 3 3 3 2 1 0
0 0 0 0 0 0 0 1 3 4 4 5 10 17 25 31 37 47 53 55 58 60 58 48 37 34 31 25 20 14 9 8 10 15 16 12 8 6 7 7 6 6 5 4 2 1 1 0 0
0 0 0 0 0 0 0 1 4 4 5 9 17 25 31 35 39 48 55 60 64 67 63 52 42 40 37 30 25 18 12 9 10 13 15 12 10 10 10 9 9 9 7 5 2 0 0 0 0
0 0 0 0 0 0 0 1 3 5 6 12 22 32 39 41 43 50 58 64 70 70 66 56 48 44 40 32 27 23 19 17 15 14 13 12 11 11 10 9 10 10 9 6 3 1 1 0 0
0 0 0 0 0 0 0 1 3 5 7 12 22 34 45 49 49 55 63 69 72 72 68 62 55 50 43 35 30 27 26 24 21 16 13 12 10 9 8 8 10 11 10 7 4 2 2 1 0
0 0 0 0 0 0 0 2 4 5 6 10 17 29 44 52 57 62 67 70 72 73 70 64 58 54 47 40 33 29 28 27 23 18 15 13 11 8 7 8 10 12 11 9 6 4 2 1 0
0 0 0 0 0 0 0 2 6 6 6 8 12 23 37 50 61 68 70 70 71 71 68 62 59 56 52 44 36 29 29 29 24 20 18 16 14 10 8 8 11 13 14 11 7 5 3 1 0
0 0 0 0 0 0 0 3 6 6 5 6 10 19 32 45 59 69 71 69 69 68 65 61 59 57 53 47 38 32 31 29 24 20 19 18 16 13 10 10 11 14 15 12 8 6 5 3 1
0 0 0 0 0 0 0 2 3 3 3 6 12 22 33 44 56 65 68 67 65 65 63 61 60 57 53 47 39 33 29 26 20 17 18 17 16 14 12 13 15 17 16 13 11 9 8 7 5
0 0 0 0 0 0 0 1 1 1 2 6 15 25 36 45 53 59 63 64 64 63 63 62 61 58 52 44 37 31 27 24 19 16 16 17 16 14 14 15 18 20 18 16 14 13 11 11 11
0 0 0 0 0 0 0 0 1 3 4 7 14 24 34 42 47 53 59 61 61 60 61 62 62 58 50 41 35 32 29 26 23 20 19 18 16 14 14 16 19 19 18 17 16 15 14 14 14
0 0 0 0 0 0 0 1 3 5 6 7 12 21 28 35 42 48 53 56 55 54 57 63 64 59 50 42 38 37 33 27 24 23 21 19 17 14 14 17 18 18 17 17 17 17 16 15 16
0 0 0 0 0 0 0 2 5 7 6 7 12 20 25 31 38 44 48 50 50 51 55 62 64 59 51 46 42 39 34 26 21 21 21 20 18 17 17 19 20 19 18 18 18 17 17 18 18
0 0 0 0 0 0 0 1 5 7 6 7 14 22 28 32 36 43 47 49 50 53 56 60 63 60 54 48 41 35 31 26 21 20 21 21 20 19 18 19 20 20 19 18 18 17 16 17 17
0 0 0 0 0 0 0 1 3 5 6 9 17 26 32 34 37 43 50 53 54 56 60 63 65 62 56 49 40 33 30 27 24 22 22 21 19 18 17 17 19 20 19 19 19 17 14 14 14
0 0 0 0 0 0 0 1 2 3 6 12 20 29 36 38 38 43 51 57 58 58 62 67 68 63 57 50 42 36 32 29 25 23 22 22 20 16 16 17 18 18 18 18 19 16 13 14 14

GEFSSGP_con_probscp_186.txt.gz
Probability
14 10 5 3 2 1 0 0 0 0 0 0 0 0 0 0 0 0 0 0 0 0 0 0 0 0 0 0 0 0 0 0 0 0 0 0 0 0 0 0 0 0 0 0 0 0 0 0 0
8 6 4 2 1 0 0 0 0 0 0 0 0 0 0 0 0 0 0 0 0 0 0 0 0 0 0 0 0 0 0 0 0 0 0 0 0 0 0 0 0 0 0 0 0 0 0 0 0
2 3 2 1 0 0 0 0 0 0 0 0 0 0 0 0 0 0 0 1 1 0 0 0 0 0 0 0 0 0 0 0 0 0 0 0 0 0 0 0 0 0 0 0 0 0 0 0 0
1 1 1 0 0 0 0 0 0 0 0 1 1 1 0 1 1 1 1 2 2 1 0 0 0 0 0 0 0 0 0 0 0 0 0 0 0 0 0 0 0 0 0 0 0 0 0 0 0
0 0 0 0 0 0 0 1 1 0 1 2 2 2 2 5 7 6 3 3 3 2 1 0 0 0 0 0 0 0 0 0 0 0 0 0 0 0 0 0 0 0 0 0 0 0 0 0 0
0 0 0 0 0 0 0 2 3 1 1 2 2 2 4 11 16 12 6 3 3 3 2 1 1 0 0 0 0 0 0 0 0 0 0 0 0 0 0 0 0 0 0 0 0 0 0 0 0
0 0 0 0 0 0 0 2 4 3 2 1 1 1 5 16 21 16 8 4 3 3 2 1 0 0 0 0 0 0 0 0 0 0 0 0 0 0 0 0 0 0 0 0 0 0 0 0 0
0 0 0 0 0 0 0 1 3 6 5 3 1 1 7 18 24 20 12 6 3 3 2 1 0 0 0 0 0 0 0 0 0 0 0 0 0 0 0 0 0 0 0 0 0 0 0 0 0
0 0 0 0 0 0 0 0 3 6 8 5 4 7 14 25 31 28 20 12 6 3 1 0 0 0 0 0 0 0 0 0 0 0 0 0 0 0 0 0 0 0 0 0 0 0 0 0 0
0 0 0 0 0 0 0 1 4 7 9 9 11 16 23 31 35 34 26 18 10 4 1 0 0 0 0 0 0 0 0 0 0 0 0 0 0 0 0 0 0 0 0 0 0 0 0 0 0
0 0 0 0 0 0 0 1 4 8 10 12 16 20 23 28 32 32 27 21 15 8 4 2 1 1 0 0 0 0 0 0 0 0 0 0 0 0 0 0 0 0 0 0 0 0 0 0 0
0 0 0 0 0 0 0 1 4 8 10 13 15 16 18 21 25 28 27 23 19 16 12 7 5 2 1 0 0 0 0 0 0 0 0 0 0 0 0 0 0 0 0 0 0 0 0 0 0
0 0 0 0 0 0 0 2 5 8 12 14 15 15 16 20 22 24 26 25 24 23 21 18 13 9 5 2 0 0 0 0 0 0 0 0 0 0 0 0 0 0 0 0 0 0 0 0 0
0 0 0 0 0 0 1 3 6 11 15 16 16 16 18 21 22 25 27 28 29 29 28 26 22 18 13 7 2 1 0 0 0 0 0 0 0 0 0 0 0 0 0 0 0 0 0 0 0
0 0 0 0 0 0 1 3 7 12 15 15 16 19 21 21 24 28 32 33 33 32 30 29 27 24 20 13 6 3 2 1 0 0 1 1 1 0 0 0 0 0 0 0 0 0 0 0 0
0 0 0 0 0 0 1 2 6 11 13 13 16 21 23 23 23 27 33 38 37 33 31 30 28 27 24 17 9 5 3 2 1 0 1 2 1 0 0 0 0 0 0 0 0 0 0 0 0
0 0 0 0 0 0 0 2 5 8 10 12 16 22 26 25 24 26 34 41 41 36 32 31 29 27 24 17 10 5 3 2 1 0 0 1 1 0 0 0 0 0 0 0 0 0 0 0 0
0 0 0 0 0 0 0 2 4 5 7 12 18 25 29 28 27 29 36 41 41 38 34 31 28 25 21 14 8 4 2 2 1 0 0 2 2 1 1 0 1 1 1 0 0 0 0 0 0
0 0 0 0 0 0 1 1 2 2 5 11 20 27 31 30 31 34 38 40 39 37 35 32 27 22 18 13 7 4 3 3 2 1 1 2 4 4 3 2 1 2 2 1 0 0 0 0 0
0 0 0 0 0 0 0 0 0 1 4 10 18 26 30 32 33 36 40 42 41 39 35 32 26 21 17 13 9 6 4 3 2 1 1 3 5 5 4 2 1 1 1 1 0 0 0 0 0
0 0 0 0 0 0 0 0 0 0 3 9 17 23 28 31 34 38 42 45 45 42 37 31 25 20 17 14 11 9 7 4 3 1 1 3 4 4 3 2 0 0 0 0 0 0 0 0 0
0 0 0 0 0 0 0 0 0 2 6 12 16 22 26 30 34 38 41 45 47 44 39 32 25 20 18 16 14 13 10 7 4 3 2 3 3 3 2 1 0 0 0 0 0 0 0 0 0
0 0 0 0 0 0 0 0 0 3 9 15 18 22 27 30 34 37 40 44 46 45 41 36 29 23 20 18 17 15 13 10 8 5 3 3 3 3 1 1 0 0 0 0 0 1 1 1 1
0 0 0 0 0 0 0 0 0 3 8 15 21 25 28 32 37 40 43 46 46 45 43 40 34 26 22 20 18 15 13 11 9 6 5 4 4 2 1 0 0 0 1 1 1 2 2 2 2
0 0 0 0 0 0 0 0 0 2 6 13 21 26 28 34 40 44 48 48 47 46 45 42 36 29 24 21 17 14 12 10 7 6 5 5 4 2 0 0 1 1 2 3 4 4 3 3 4
0 0 0 0 0 0 0 0 1 3 7 14 21 25 29 34 40 44 48 48 46 44 43 39 33 27 24 21 18 14 12 9 7 5 5 5 4 3 2 2 2 3 3 4 5 5 4 4 4
0 0 0 0 0 0 0 1 2 5 10 16 22 26 30 33 37 40 42 43 42 40 39 35 30 25 22 19 18 16 14 11 8 6 5 5 4 4 4 4 3 3 4 5 4 4 4 4 4
0 0 0 0 0 0 0 1 2 6 12 18 22 26 29 30 32 34 34 35 36 35 34 32 28 25 23 20 17 16 14 12 9 6 5 4 4 3 4 4 4 3 4 5 4 3 3 4 4
0 0 0 0 0 0 0 0 2 6 13 20 24 26 27 28 30 32 31 31 33 33 31 29 27 26 25 22 18 14 12 10 7 5 4 3 3 2 3 4 4 4 3 4 4 2 2 2 3
0 0 0 0 0 0 0 0 1 6 15 22 26 27 27 28 30 33 32 32 35 35 31 27 26 26 25 22 17 14 11 8 6 5 4 4 3 2 3 4 5 5 4 3 4 3 1 1 1

GEFSSGP_con_probscp_192.txt.gz
Probability
17 10 3 1 1 0 0 0 0 0 0 0 0 2 3 3 2 1 1 2 3 3 3 2 2 3 3 3 3 3 3 3 3 3 3 3 3 2 1 0 0 0 0 1 2 1 0 0 0
12 7 2 1 0 0 0 0 0 0 0 0 0 2 3 3 3 2 2 3 3 3 3 3 3 3 3 3 3 3 3 3 3 3 3 3 3 3 2 1 1 0 1 2 3 2 0 0 0
4 3 1 0 0 0 0 0 0 0 0 0 0 1 2 3 3 3 3 3 3 3 3 3 3 3 3 3 3 3 3 3 3 3 3 3 3 3 3 3 2 2 2 3 3 2 1 1 1
1 1 0 0 0 0 0 0 0 0 0 0 0 0 1 2 3 3 3 3 3 3 3 3 3 3 3 3 3 3 3 3 3 3 3 3 3 3 3 3 3 3 3 2 3 3 2 2 2
0 0 0 0 0 0 0 0 0 0 0 0 0 0 1 3 4 4 3 3 3 3 3 3 3 3 3 3 3 3 3 3 3 3 3 3 3 3 3 3 3 3 3 3 3 3 3 3 3
0 0 0 0 0 0 0 0 1 1 1 0 0 0 1 3 5 5 4 3 3 3 3 3 3 3 3 4 3 3 3 3 3 3 3 3 3 3 3 3 3 3 3 3 3 3 3 3 3
0 0 0 0 0 0 0 0 1 2 1 0 0 0 2 4 6 6 5 4 3 3 3 3 3 3 4 4 4 3 3 3 3 3 3 3 3 3 3 3 3 3 3 3 3 3 3 3 3
0 0 0 0 0 0 0 0 1 1 0 0 0 0 2 5 7 6 4 3 3 3 3 3 3 3 3 4 4 4 3 3 3 3 3 3 3 3 3 3 3 3 3 3 3 3 3 3 3
0 0 0 0 0 0 0 0 0 0 0 1 1 2 5 10 11 7 4 3 3 4 3 3 3 3 3 3 4 3 3 3 3 3 3 3 3 3 3 3 3 3 3 3 3 3 3 3 3
0 0 0 0 0 0 0 1 1 1 1 2 4 6 11 15 14 9 4 3 4 4 4 3 3 3 3 3 3 3 3 3 3 3 4 3 3 3 3 3 3 3 3 3 2 3 3 3 3
0 0 0 0 0 0 0 1 2 2 1 3 6 11 16 18 15 9 4 3 3 4 3 3 3 3 3 3 3 3 3 3 3 4 4 3 2 1 1 2 2 2 2 1 1 1 2 2 2
0 0 0 0 0 0 0 0 1 1 1 4 9 14 18 18 13 7 4 3 3 3 3 3 3 3 3 3 3 3 3 3 3 3 3 1 1 0 0 1 1 1 1 0 0 0 0 0 1
0 0 0 0 0 0 0 0 0 1 2 6 13 17 19 17 11 6 4 4 3 3 3 3 3 3 3 3 3 3 3 3 3 2 1 0 0 0 0 0 0 0 0 0 0 0 0 0 0
0 0 0 0 0 0 0 0 0 1 4 9 14 16 15 13 9 6 5 5 4 3 3 3 3 3 3 3 3 3 3 3 3 1 0 0 0 0 0 0 0 0 0 0 0 0 0 0 0
0 0 0 0 0 0 0 0 0 1 4 9 12 11 10 8 6 6 7 7 5 4 4 5 5 4 3 3 3 3 3 3 2 1 0 0 0 0 0 0 0 0 0 0 0 0 0 0 0
0 0 0 0 0 0 0 0 0 1 3 6 7 8 7 6 5 6 7 7 6 6 7 9 10 8 6 5 3 3 3 3 2 1 0 0 0 0 0 0 0 0 0 0 0 0 0 0 0
0 0 0 0 0 0 0 0 0 0 1 2 4 6 7 5 4 6 7 5 5 7 9 12 15 15 12 8 5 3 3 2 2 1 0 0 0 0 1 0 0 1 0 0 0 0 0 0 0
0 0 0 0 0 0 0 0 0 0 0 0 2 5 6 4 4 6 7 6 6 8 10 13 18 19 15 11 8 5 3 2 1 0 0 0 0 0 1 1 0 0 0 0 0 0 0 0 0
0 0 0 0 0 0 0 0 0 0 0 0 1 4 5 4 4 6 9 10 10 11 12 14 18 19 16 13 10 7 4 3 2 1 1 1 1 1 1 1 0 0 0 0 0 0 0 0 0
0 0 0 0 0 0 0 0 0 0 0 0 1 4 5 4 5 8 11 13 14 14 13 13 15 16 16 14 12 8 6 4 3 3 2 2 2 2 1 1 0 0 0 0 0 0 0 0 0
0 0 0 0 0 0 0 0 0 0 0 0 0 2 3 4 6 10 13 14 15 15 14 12 12 12 14 14 12 10 8 7 6 4 3 3 3 3 2 1 0 0 0 0 0 0 0 0 0
0 0 0 0 0 0 0 0 0 0 0 0 0 1 3 5 9 12 13 14 15 15 14 12 9 10 11 11 11 11 11 11 8 5 3 3 3 3 2 1 1 1 1 0 0 0 0 0 0
0 0 0 0 0 0 0 0 0 0 0 0 1 2 5 8 11 13 14 15 15 15 14 12 9 9 11 11 10 11 12 11 8 4 2 1 2 3 2 1 1 2 1 0 0 0 0 0 0
0 0 0 0 0 0 0 0 0 0 0 1 3 5 8 10 12 14 15 17 16 15 16 14 11 10 11 11 9 9 10 9 6 3 1 0 1 1 1 1 1 1 1 0 1 0 0 0 1
0 0 0 0 0 0 0 0 0 0 0 1 5 8 10 9 11 14 17 17 17 18 19 18 14 12 12 10 8 8 8 7 5 4 2 1 1 0 0 0 0 0 0 0 0 0 0 1 2
0 0 0 0 0 0 0 0 0 0 1 4 6 8 9 10 11 14 16 18 19 21 22 21 18 14 13 10 8 8 8 6 5 4 3 3 2 1 0 0 1 0 0 0 0 0 0 1 2
0 0 0 0 0 0 0 0 0 1 4 7 8 8 8 10 13 14 16 18 20 22 23 23 22 19 14 10 8 8 8 6 4 4 4 4 4 3 1 1 2 1 1 0 0 0 1 2 2
0 0 0 0 0 0 0 0 0 1 4 7 8 9 9 11 13 16 19 21 21 22 23 24 24 21 16 11 8 6 6 5 4 4 5 5 4 3 2 2 2 3 2 1 0 1 2 2 1
0 0 0 0 0 0 0 0 1 2 3 5 8 9 11 12 15 19 24 25 23 21 21 22 22 20 15 12 9 6 5 5 6 6 6 4 3 3 3 3 3 4 4 2 1 2 2 1 1
0 0 0 0 0 0 0 1 2 2 2 5 9 10 11 12 15 20 26 27 23 19 19 20 20 18 15 12 10 7 5 6 7 7 6 4 3 3 3 3 4 5 4 3 2 3 3 2 1

GEFSSGP_con_probscp_198.txt.gz
Probability
27 25 22 17 8 2 0 0 0 0 0 0 0 0 0 0 0 0 0 0 0 0 0 0 0 0 0 0 0 0 0 0 0 0 0 0 1 2 3 3 2 2 2 2 1 0 0 0 0
20 19 18 12 4 1 0 0 0 0 0 0 0 0 0 0 0 0 0 0 0 0 0 0 0 0 0 0 0 0 0 0 0 0 0 0 0 1 2 2 1 1 1 1 1 0 0 0 0
10 9 9 5 1 0 0 0 0 0 0 0 0 0 0 0 0 0 0 0 0 0 0 0 0 0 0 0 0 0 0 0 0 0 0 0 0 0 1 1 0 0 0 1 1 1 0 0 0
3 3 2 1 0 0 0 0 0 0 0 0 0 0 0 0 0 0 0 0 0 0 0 0 1 1 0 0 0 0 0 0 0 0 0 0 0 0 0 0 0 0 0 1 1 1 1 0 0
1 1 0 0 0 0 0 0 0 0 0 0 0 0 0 0 0 0 0 0 0 0 0 1 2 2 1 0 0 0 0 0 0 0 0 0 0 0 0 0 0 0 0 0 0 0 1 1 1
0 0 0 0 0 0 0 0 0 0 0 0 0 0 0 0 0 0 0 0 0 0 0 2 3 2 1 0 0 0 0 0 0 0 0 0 0 0 0 0 0 0 0 0 0 0 0 0 0
0 0 0 0 0 0 0 0 0 0 0 0 0 0 1 1 0 0 0 0 0 0 0 1 2 2 1 0 0 0 0 0 0 0 0 0 0 0 0 0 0 0 0 0 0 0 0 0 0
0 0 0 0 0 0 0 0 0 0 0 0 0 1 3 4 2 0 0 0 0 0 0 0 1 1 0 0 0 0 0 0 0 0 0 0 0 0 0 0 0 0 0 0 0 0 0 0 0
0 0 0 0 0 0 0 0 0 0 0 1 1 2 6 7 4 1 1 0 0 0 0 0 0 0 0 0 0 0 0 0 0 0 0 0 0 0 0 0 0 0 0 0 0 0 0 0 0
0 0 0 0 0 0 0 0 0 0 0 2 4 6 8 9 6 3 1 0 0 0 0 0 0 0 0 0 0 0 0 1 0 0 0 0 0 0 0 0 0 0 0 0 0 0 0 0 0
0 0 0 0 0 0 0 0 0 0 0 2 6 9 10 9 7 4 1 0 0 0 0 0 0 0 0 0 0 0 0 0 0 0 0 0 0 0 0 0 0 0 0 0 0 0 0 0 0
0 0 0 0 0 0 0 0 0 0 0 3 7 10 11 9 7 4 1 0 1 1 1 1 1 1 1 1 0 0 0 0 0 0 0 0 0 0 0 0 0 0 0 0 0 0 0 0 0
0 0 0 0 0 0 0 0 0 0 2 5 8 10 10 8 7 4 2 1 2 2 2 3 3 3 3 2 1 0 0 0 0 0 0 0 0 0 0 0 0 0 0 0 0 0 0 0 0
0 0 0 0 0 0 0 0 0 1 4 7 9 9 8 7 6 4 4 4 3 3 3 4 5 5 5 3 1 0 0 0 0 0 0 0 0 0 0 0 0 0 0 0 0 0 0 0 0
0 0 0 0 0 0 0 0 0 1 4 7 9 9 8 8 6 5 5 5 4 4 4 4 4 5 6 5 3 2 1 0 0 0 0 0 0 0 0 0 0 0 1 1 1 0 0 0 0
0 0 0 0 0 0 0 0 1 1 2 5 7 8 9 9 7 4 4 6 6 5 6 5 5 5 6 7 7 5 3 1 0 0 0 0 0 0 0 0 0 1 2 2 1 0 0 0 0
0 0 0 0 0 0 0 0 0 0 1 3 6 7 9 10 7 5 5 7 8 8 9 10 9 8 8 10 10 8 6 3 2 1 1 0 0 0 0 1 0 1 2 2 1 0 0 0 0
0 0 0 0 0 0 0 0 0 0 0 2 6 8 9 10 8 6 7 8 11 13 14 16 17 16 15 13 12 9 7 5 3 3 2 1 1 0 1 1 1 1 2 2 1 0 0 0 1
0 0 0 0 0 0 0 0 0 0 0 2 5 8 9 9 9 8 10 10 12 17 22 23 23 24 23 17 11 8 6 4 3 2 1 2 2 2 2 2 2 1 1 1 1 0 0 1 2
0 0 0 0 0 0 0 0 0 0 0 1 4 6 7 8 9 12 14 13 14 21 26 27 26 26 25 18 10 7 7 6 4 2 1 2 3 3 3 3 4 3 3 2 2 2 1 1 2
0 0 0 0 0 0 0 0 0 0 1 2 3 4 5 5 9 14 17 16 15 21 26 27 27 27 24 17 11 9 10 9 7 4 3 4 4 4 4 4 5 6 5 4 4 4 3 2 2
0 0 0 0 0 0 0 0 0 0 2 4 5 5 6 6 7 13 17 17 15 19 25 29 31 30 26 19 14 12 12 10 8 6 6 7 6 6 6 6 6 6 6 5 5 5 4 3 2
0 0 0 0 0 0 0 0 0 1 3 5 7 9 10 9 9 12 16 17 17 18 24 31 35 33 27 21 17 14 12 9 8 8 8 8 8 8 7 5 5 5 6 5 5 4 4 4 3
0 0 0 0 0 0 0 0 1 2 3 5 8 12 13 13 14 16 19 20 20 21 25 33 39 38 31 23 19 16 13 10 8 8 8 8 8 8 7 6 6 6 6 7 6 5 4 3 3
0 0 0 0 0 0 0 0 2 3 3 3 8 12 14 14 17 21 24 24 23 24 29 37 44 44 37 28 21 16 13 12 10 8 7 7 7 7 7 8 8 8 7 7 7 6 4 2 2
0 0 0 0 0 0 0 1 2 3 3 4 7 12 15 16 19 22 25 25 24 25 30 37 46 46 39 31 25 19 15 13 12 10 7 6 5 5 6 8 9 9 8 8 8 8 6 4 3
0 0 0 0 0 0 0 1 2 2 2 4 8 13 18 19 18 18 20 23 24 25 27 32 41 42 35 30 26 22 18 15 13 11 9 7 6 5 5 7 8 7 7 8 9 9 8 6 5
0 0 0 0 0 0 0 0 1 2 3 4 7 13 19 18 15 15 19 23 26 27 26 29 35 36 31 27 26 24 22 19 15 14 12 10 9 7 7 8 9 8 9 11 11 10 8 8 8
0 0 0 0 0 0 0 1 3 3 3 4 7 13 17 16 15 19 24 27 31 32 32 34 35 34 31 29 28 27 26 24 21 18 15 14 13 10 9 10 11 12 13 14 13 10 10 9 8
0 0 0 0 0 0 0 1 4 4 3 4 8 13 16 17 18 23 27 31 35 36 38 39 38 37 35 33 33 32 28 26 24 20 17 15 14 12 11 12 13 14 16 17 15 12 11 9 6

GEFSSGP_con_probscp_204.txt.gz
Probability
21 31 47 53 35 11 1 0 0 0 0 0 0 0 0 0 0 0 0 0 1 0 0 0 0 0 0 0 0 0 0 0 0 0 0 0 0 0 0 1 2 4 5 3 2 1 2 2 1
26 38 49 43 23 6 0 0 0 0 0 0 0 0 0 0 0 0 0 1 2 1 1 1 0 0 0 0 0 0 0 0 0 0 0 0 0 0 0 0 1 3 4 3 2 2 2 2 1
34 42 41 25 9 1 0 0 0 0 0 0 0 0 0 0 0 0 1 2 3 3 2 2 1 0 0 0 0 0 0 0 0 0 0 0 0 0 0 0 1 2 3 2 1 1 2 1 0
41 38 25 10 2 0 0 0 0 0 0 0 0 0 0 0 0 0 1 3 3 3 3 2 1 0 0 0 0 0 0 0 0 0 0 0 0 0 0 0 1 2 1 1 0 1 1 1 0
34 23 10 2 0 0 0 0 0 0 0 0 1 2 2 1 1 1 1 2 3 4 4 3 1 0 0 0 0 0 0 0 0 0 0 0 0 0 0 0 1 1 0 0 0 1 1 0 1
14 8 2 0 0 0 0 0 0 0 0 1 4 6 4 3 2 1 1 1 3 4 4 3 2 1 1 0 0 0 0 0 0 0 0 0 0 0 0 0 0 0 0 0 0 0 0 0 1
2 2 1 0 0 0 0 0 0 0 0 1 4 7 7 5 4 2 1 0 1 3 3 2 2 2 1 0 0 0 0 0 0 0 0 0 0 0 0 0 0 0 0 0 0 0 0 0 1
1 1 1 0 0 0 0 0 0 0 0 0 3 7 9 7 5 3 1 0 1 1 2 3 3 2 1 0 0 0 0 0 0 0 0 0 0 0 0 0 0 0 0 0 0 0 0 0 0
1 1 0 0 0 0 0 0 0 0 1 2 4 8 10 8 6 4 2 1 1 1 1 3 5 4 2 1 1 0 0 0 0 0 0 0 0 0 0 0 0 0 0 0 0 0 0 0 0
1 0 0 0 0 0 0 0 0 1 3 6 9 11 11 9 7 6 4 2 2 2 2 3 5 3 2 2 2 1 0 0 0 0 0 0 0 0 0 0 0 0 0 0 0 0 0 0 0
0 0 0 0 0 0 0 0 0 1 4 9 12 12 12 11 9 8 6 4 4 4 3 3 3 3 1 1 1 1 1 1 1 0 0 1 1 1 1 1 0 0 0 0 0 0 0 0 1
0 0 0 0 0 0 0 0 0 1 4 8 10 11 12 12 11 10 9 9 8 7 5 3 4 4 3 2 0 0 1 2 2 1 0 0 1 1 1 1 1 0 0 0 0 0 0 0 1
0 0 0 0 0 0 0 0 0 1 4 7 10 10 12 13 13 13 14 16 15 12 8 6 7 7 6 4 2 1 1 2 3 2 2 1 1 1 1 1 2 2 2 1 1 0 0 0 1
0 0 0 0 0 0 0 0 1 2 4 7 9 10 11 12 16 18 20 22 21 17 11 10 11 12 10 7 4 2 2 3 4 4 4 3 2 0 1 2 3 3 3 3 2 1 0 0 0
0 0 0 0 0 0 0 0 1 3 5 6 8 11 13 13 16 21 25 26 27 25 19 14 14 18 17 11 6 4 4 5 6 6 6 5 3 1 1 3 4 4 4 5 4 2 0 0 0
0 0 0 0 0 0 0 0 1 3 4 6 10 15 17 16 16 21 27 32 37 39 33 21 17 23 24 17 10 7 7 9 10 10 9 6 5 3 2 3 5 6 6 6 5 3 1 1 0
0 0 0 0 0 0 0 0 1 2 4 6 11 17 22 20 16 20 28 37 46 53 48 33 26 29 29 23 16 12 12 13 13 14 13 11 8 5 4 5 6 6 6 6 5 4 4 2 1
0 0 0 0 0 0 0 0 0 1 4 8 11 17 24 25 22 23 29 39 51 58 57 47 39 37 34 28 22 18 16 15 14 15 17 16 11 7 5 6 6 6 5 5 5 5 5 4 3
0 0 0 0 0 0 0 1 1 2 6 10 14 19 25 30 32 32 33 41 52 60 60 55 49 45 40 33 28 22 19 17 15 15 18 18 12 8 7 6 6 6 6 5 5 5 5 4 3
0 0 0 0 0 0 1 2 3 3 6 11 16 20 24 31 39 43 43 44 54 62 62 56 53 51 45 38 32 25 21 19 16 17 20 20 15 11 10 9 7 7 7 6 6 7 5 3 2
0 0 0 0 0 0 1 3 5 6 8 11 15 17 20 29 40 48 48 49 55 62 61 58 58 55 48 41 35 28 24 20 18 20 21 21 18 16 14 13 9 7 7 7 8 9 8 4 2
0 0 0 0 0 0 0 2 6 9 10 12 13 13 16 25 38 47 50 49 53 57 61 64 64 59 51 43 37 31 27 22 20 21 22 21 20 18 17 14 11 9 9 9 8 8 9 6 3
0 0 0 0 0 0 0 1 4 8 9 10 10 11 14 21 33 45 49 47 48 54 63 69 68 62 54 46 40 34 29 23 20 21 23 22 20 18 16 15 15 13 12 11 10 8 8 6 5
0 0 0 0 0 0 0 0 2 4 6 7 8 10 13 18 29 42 49 50 52 57 66 72 71 65 58 51 43 36 28 22 19 21 24 22 19 16 14 16 18 18 15 13 13 10 8 7 7
0 0 0 0 0 0 0 1 2 4 5 6 9 13 16 19 28 39 49 56 60 62 68 73 74 70 63 55 48 40 30 22 20 21 22 21 18 15 15 19 22 21 18 16 16 14 12 11 11
0 0 0 0 0 0 0 2 4 5 5 7 12 17 21 24 30 38 49 59 63 64 68 73 76 73 66 59 53 45 36 27 23 22 22 20 18 16 18 23 24 21 18 17 18 16 14 15 16
0 0 0 0 0 0 0 3 7 7 7 10 15 20 25 30 33 38 47 57 61 62 66 71 73 71 66 59 54 47 38 32 28 26 22 21 20 18 20 23 23 19 16 16 17 16 15 16 17
0 0 0 0 0 0 0 3 8 10 9 11 15 21 26 32 34 36 42 50 55 58 61 66 67 65 61 57 52 44 38 33 31 28 25 24 23 21 21 22 23 19 17 17 17 16 17 18 17
0 0 0 0 0 0 1 3 7 10 10 11 15 20 26 31 33 35 39 44 48 52 57 62 63 60 56 54 50 44 39 36 32 30 28 28 27 25 23 24 24 21 19 19 18 16 19 21 20
0 0 0 0 0 0 1 3 7 9 10 11 15 22 26 29 33 37 40 43 45 49 56 62 63 58 54 53 50 45 42 39 35 32 30 30 30 27 25 26 25 22 21 20 18 17 19 22 23

GEFSSGP_con_probscp_210.txt.gz
Probability
31 21 9 3 1 0 0 0 0 0 0 0 0 0 0 0 0 1 0 0 1 0 0 0 1 2 2 1 1 1 0 0 0 0 0 0 0 0 0 0 1 2 3 3 2 1 0 0 1
20 15 8 3 1 0 0 0 0 0 0 0 0 0 0 0 1 2 1 1 1 1 0 0 0 1 1 0 0 0 0 0 0 0 0 0 0 0 0 0 1 3 3 3 2 1 1 1 2
10 10 7 3 0 0 0 0 1 1 1 0 0 0 0 1 2 3 2 1 1 1 0 0 0 0 0 0 0 0 0 0 0 0 0 0 0 0 0 1 2 4 4 4 3 2 2 2 2
5 6 5 2 0 0 1 1 2 2 2 1 0 0 0 1 3 3 2 1 1 1 1 1 1 1 0 0 0 0 0 0 0 0 0 0 0 0 0 1 3 4 5 5 4 3 3 3 2
2 2 1 0 0 0 1 2 3 4 3 2 1 0 1 2 3 3 3 3 3 3 3 3 3 1 1 1 0 0 1 0 0 0 0 0 0 0 1 1 3 4 4 4 3 2 3 3 3
1 0 0 0 0 0 1 3 5 6 5 4 3 1 1 2 4 4 4 4 4 5 5 4 3 1 1 1 0 0 0 0 0 0 0 0 0 1 2 3 3 3 3 2 2 2 2 3 4
1 0 0 0 0 0 1 2 5 7 8 6 5 2 1 2 4 5 4 4 5 5 5 3 2 1 1 1 0 0 0 0 0 0 0 0 1 1 2 3 3 2 1 1 1 1 2 3 4
0 0 0 0 0 0 0 2 4 7 8 7 5 3 3 4 6 8 6 5 6 5 4 3 2 1 1 0 0 0 0 0 0 0 0 0 0 0 1 2 1 1 0 0 0 0 2 3 4
0 0 0 0 0 0 1 2 3 5 7 7 5 4 5 8 11 12 10 8 8 7 5 4 3 3 2 1 0 0 0 0 0 0 0 0 0 0 0 0 0 0 0 0 0 1 2 3 3
0 0 0 0 0 0 1 1 1 3 5 7 6 6 8 11 13 14 12 10 10 9 8 6 6 4 3 1 0 0 0 0 0 0 0 0 0 0 0 0 0 0 0 0 0 1 2 2 1
0 0 0 0 0 0 0 0 0 1 3 5 7 8 10 11 13 13 13 11 10 9 8 8 8 5 3 1 1 0 0 0 0 0 0 0 0 0 0 0 0 0 0 0 0 1 1 1 0
1 0 0 0 0 1 1 0 0 0 1 4 6 7 9 10 11 10 10 10 8 7 8 9 8 7 4 2 2 1 0 0 0 0 0 0 0 0 0 0 0 0 0 0 0 0 0 0 0
1 0 0 0 0 1 1 1 0 0 1 4 6 6 7 10 10 7 6 7 7 7 7 8 9 9 6 4 3 2 2 1 1 0 0 0 0 0 0 0 0 0 0 0 0 0 0 0 0
1 0 0 0 0 1 1 1 1 1 3 4 5 4 6 9 8 5 4 5 6 7 8 9 9 9 8 6 4 3 2 2 1 1 1 0 0 0 0 0 0 0 0 0 0 0 0 0 0
0 0 0 0 0 0 0 0 1 2 3 4 4 4 5 7 6 5 5 5 5 7 9 10 9 8 8 7 5 4 3 2 2 1 0 0 0 0 0 0 0 0 1 1 1 0 0 0 0
0 0 0 0 0 0 0 0 0 1 1 3 4 5 5 4 5 6 7 7 7 8 11 12 11 9 8 7 5 3 3 3 3 1 0 0 0 0 0 0 0 0 2 2 1 0 0 0 0
0 0 0 0 0 0 0 0 1 1 2 4 6 6 5 4 4 5 7 9 9 10 12 13 12 11 10 8 3 2 2 3 2 1 0 0 0 0 0 0 0 0 1 1 1 0 0 0 0
0 0 0 0 0 0 0 1 2 2 3 6 8 8 7 6 5 5 7 11 12 11 11 12 13 13 12 9 5 2 2 2 1 1 1 0 0 0 0 0 0 0 0 0 0 0 0 0 0
0 0 0 0 0 0 0 1 2 2 4 7 10 10 10 9 7 6 10 15 17 16 12 12 14 15 15 13 8 5 4 3 3 3 2 1 0 0 0 1 1 0 0 0 0 0 0 0 0
0 0 0 0 1 1 2 2 2 4 6 9 12 13 12 10 9 10 15 18 22 22 19 16 17 19 19 17 13 8 5 3 3 4 4 2 1 1 1 2 2 1 1 0 0 0 0 0 0
0 0 0 0 1 2 3 3 3 6 8 11 15 17 16 13 12 15 19 21 23 26 26 23 23 23 23 20 16 12 7 4 3 4 5 4 3 3 4 4 4 3 1 0 0 0 0 0 0
0 0 0 0 1 1 1 2 3 6 8 10 15 19 19 17 17 18 21 23 24 27 29 29 27 25 24 22 19 15 10 5 3 4 5 5 4 5 5 5 4 3 1 0 0 0 0 0 0
0 0 0 0 0 0 0 1 2 4 6 8 12 19 20 20 20 20 22 24 25 26 29 32 30 27 26 25 23 19 15 9 5 4 4 4 4 6 7 7 5 2 0 0 0 0 0 0 0
0 0 0 0 0 0 0 0 1 3 4 6 11 16 19 19 21 22 24 27 28 29 31 33 32 30 29 27 24 21 18 12 8 5 5 5 6 7 8 8 6 3 1 0 0 0 0 0 0
0 0 0 0 0 0 0 0 1 2 3 6 10 14 17 19 21 24 27 30 31 34 38 37 34 32 30 27 23 19 16 14 10 8 7 7 7 7 8 8 6 4 2 1 1 1 1 0 0
0 0 0 0 0 0 0 0 1 3 4 6 10 14 17 21 24 27 30 32 32 35 41 39 33 30 27 25 20 14 12 11 11 10 9 9 8 7 7 6 4 3 1 1 3 4 3 2 1
0 0 0 0 0 0 0 0 1 3 5 9 13 16 20 25 27 28 29 29 29 31 35 36 31 26 24 22 17 12 8 8 9 9 9 8 7 7 6 4 3 2 1 2 4 5 4 3 2
0 0 0 0 0 0 0 0 2 4 7 11 15 18 21 24 26 26 26 25 25 26 30 34 32 27 23 20 16 11 7 6 7 8 7 7 7 7 5 4 4 4 4 4 5 6 5 4 4
0 0 0 0 0 0 0 0 2 4 8 11 16 20 22 22 23 24 25 25 25 26 30 34 35 31 26 23 19 15 11 8 8 8 6 7 8 7 5 4 5 6 6 7 8 9 9 7 6
0 0 0 0 0 0 0 0 1 4 8 12 17 22 24 22 22 23 25 28 29 30 32 35 35 33 29 25 24 21 15 11 10 9 8 9 9 8 6 5 5 6 7 9 10 12 11 9 9

GEFSSGP_con_probscp_216.txt.gz
Probability
20 10 3 2 1 0 0 0 0 0 0 0 0 0 1 0 0 0 0 0 0 0 0 0 0 0 0 0 1 2 2 1 0 0 0 0 0 0 0 0 0 0 1 1 2 1 1 3 3
11 7 3 2 1 0 0 0 0 0 0 0 0 0 1 1 0 0 0 0 0 0 0 0 0 0 0 0 1 2 2 1 0 0 0 0 0 0 0 0 0 0 1 1 1 1 2 3 3
3 3 2 1 0 0 0 0 1 1 0 0 0 0 0 1 1 1 0 0 0 0 0 1 1 1 0 0 1 1 1 0 0 0 0 0 0 0 0 0 0 0 0 0 0 1 2 3 3
1 1 1 0 0 0 0 1 2 2 1 0 0 0 0 1 1 1 0 0 1 1 0 1 2 2 1 0 0 0 0 0 0 0 0 0 0 0 0 0 0 0 0 0 1 2 3 3 3
1 0 0 0 0 0 0 1 3 3 1 0 0 0 0 0 0 0 0 1 2 2 1 1 2 3 2 1 0 0 0 0 0 0 0 0 0 0 0 0 0 0 1 2 4 4 4 3 3
0 0 0 0 0 0 0 2 3 3 2 1 0 0 0 0 0 0 1 1 2 2 1 1 2 3 3 2 1 0 0 0 0 0 0 0 0 0 0 0 0 1 2 4 5 5 4 4 4
0 0 0 0 0 0 0 1 2 2 2 1 0 0 1 0 0 0 0 1 3 3 1 1 2 2 3 2 2 2 1 0 0 0 0 0 0 0 0 1 1 1 3 5 5 4 4 4 4
0 0 0 0 0 0 0 0 1 1 2 2 1 0 0 0 0 0 0 1 3 4 2 1 1 1 1 2 2 2 1 0 0 0 0 0 0 0 0 1 1 1 3 4 4 3 3 4 5
0 0 0 0 0 0 0 0 1 3 3 3 2 1 1 2 2 1 0 1 3 5 5 3 2 1 1 2 2 1 1 0 0 0 0 0 0 0 0 0 1 1 2 2 2 1 2 4 5
0 0 0 0 0 0 0 0 2 4 3 3 4 4 4 5 5 3 1 1 2 4 5 5 4 3 3 3 2 1 0 0 0 0 0 0 0 0 0 1 1 2 2 1 0 1 2 3 4
0 0 0 0 0 0 0 0 2 3 2 3 5 7 7 7 6 5 2 1 1 1 3 5 6 5 3 3 2 1 0 0 0 0 0 0 0 0 0 1 2 2 1 0 1 2 2 2 2
0 0 0 0 0 0 0 0 0 1 1 2 5 7 7 6 6 5 3 1 0 0 1 4 5 3 2 1 1 1 0 0 0 0 0 0 0 0 0 1 1 1 1 0 1 1 1 1 1
0 0 0 0 0 0 0 0 0 0 1 3 5 6 6 5 4 3 2 2 1 1 1 3 3 1 0 0 0 0 0 0 0 0 0 0 0 0 0 0 0 0 0 0 0 0 0 0 0
0 0 0 0 0 0 0 0 0 0 1 3 5 6 6 5 3 1 1 2 2 2 2 3 3 1 0 0 0 0 0 0 0 0 0 0 0 0 0 0 0 0 0 0 0 0 0 0 0
0 0 0 0 0 0 0 0 0 1 2 3 5 6 6 4 2 1 0 1 2 3 3 3 3 2 1 0 0 0 0 0 0 0 0 0 0 0 0 0 0 0 0 0 0 0 0 0 0
0 0 0 0 0 0 0 0 1 2 4 5 5 5 5 4 2 0 0 0 1 2 2 3 3 3 2 1 0 0 0 0 0 0 0 0 0 0 0 0 0 0 0 0 0 0 0 0 0
0 0 0 0 0 0 0 0 1 3 5 6 5 5 5 3 1 0 0 0 0 1 1 2 3 3 3 1 0 0 0 0 0 0 0 0 0 0 0 0 0 0 0 0 0 0 0 0 0
0 0 0 0 0 1 1 1 1 3 4 6 6 5 4 2 1 1 1 0 0 0 0 2 4 4 4 3 2 1 0 0 0 0 0 0 0 0 0 0 0 0 0 0 0 0 0 0 0
0 0 0 0 0 1 2 2 2 3 4 6 6 5 3 1 1 1 1 0 0 1 2 3 5 6 6 5 4 3 1 0 0 0 0 0 0 0 0 0 0 0 0 0 0 0 0 0 0
0 0 0 0 0 1 2 3 3 4 5 5 4 2 1 0 0 1 1 0 0 1 3 4 5 7 8 7 6 5 3 1 0 0 0 0 0 0 0 0 0 0 0 0 0 0 0 0 0
0 0 0 0 0 0 1 2 4 4 4 3 2 1 1 1 0 0 0 0 1 3 5 5 5 7 9 9 8 7 6 4 2 1 1 0 0 0 1 1 0 0 0 0 0 0 0 0 0
0 0 0 0 0 0 0 1 2 3 3 2 1 1 2 2 2 1 1 0 2 4 6 6 6 6 8 9 10 10 10 7 4 3 2 0 0 1 2 1 0 0 0 0 0 0 0 0 0
0 0 0 0 0 0 0 0 0 1 2 3 2 2 3 4 4 3 2 1 2 3 4 5 5 6 6 8 9 11 10 7 4 2 1 0 0 1 2 1 0 0 0 0 0 0 0 0 0
0 0 0 0 0 0 0 0 0 0 1 2 3 4 4 4 4 4 5 5 4 3 4 4 5 5 6 7 9 9 7 5 3 2 1 0 1 3 2 2 1 1 1 1 0 0 0 0 0
0 0 0 0 0 0 0 0 0 0 0 2 4 6 6 5 5 8 12 13 10 7 7 8 7 6 7 9 10 8 5 3 3 3 2 2 3 3 2 2 3 3 3 2 1 0 0 0 1
0 0 0 0 0 0 0 0 0 1 1 2 5 8 9 9 8 11 17 19 16 13 11 12 12 10 9 11 11 8 5 4 4 4 5 6 4 2 1 2 2 3 5 4 2 1 0 1 2
0 0 0 0 0 0 0 0 1 2 3 5 7 10 13 12 11 12 16 18 18 17 15 14 14 13 11 10 10 7 5 6 6 5 5 5 4 2 1 2 3 3 5 5 3 2 1 2 3
0 0 0 0 0 0 0 0 1 3 4 6 9 11 13 13 11 10 13 15 17 19 18 16 15 14 11 10 10 8 8 9 7 4 3 2 2 2 2 3 4 5 5 4 4 3 2 2 3
0 0 0 0 0 0 0 0 0 2 4 6 8 9 11 12 10 8 11 15 18 20 21 20 18 16 13 13 14 13 12 9 6 3 3 3 3 3 4 4 5 6 6 6 5 4 4 3 2
0 0 0 0 0 0 0 0 0 1 3 6 7 6 8 10 9 9 12 16 20 22 23 23 22 19 16 16 17 17 13 9 6 4 4 4 5 6 6 6 6 7 8 8 7 6 5 4 4

GEFSSGP_con_probscp_222.txt.gz
Probability
34 29 25 18 6 0 0 0 0 0 0 0 0 0 0 0 0 0 0 0 0 0 0 0 0 0 0 0 0 0 0 1 2 3 3 1 0 0 0 0 0 0 0 0 0 0 0 1 3
30 27 23 14 4 0 0 0 0 0 0 0 0 0 0 0 0 0 0 0 0 0 0 0 0 0 0 0 0 0 0 0 1 2 2 1 0 0 0 0 1 0 0 0 0 1 1 2 3
24 22 16 7 1 0 0 0 0 0 0 0 0 0 0 0 0 0 0 0 0 0 0 0 0 0 0 0 0 0 0 0 0 1 1 1 0 0 0 1 2 1 0 0 1 2 3 4 5
18 15 8 2 0 0 0 0 0 0 0 0 0 0 0 0 0 0 0 0 0 0 0 0 0 0 0 0 0 0 0 0 0 0 0 0 0 0 0 1 2 2 1 1 2 3 3 5 6
11 7 3 0 0 0 0 0 0 0 0 0 0 0 0 0 0 0 0 0 0 0 0 1 1 0 0 0 0 0 0 0 0 0 0 0 0 0 0 0 1 2 3 3 3 3 4 5 7
3 2 0 0 0 0 0 0 0 0 0 0 0 0 0 0 0 0 0 0 0 0 0 2 3 2 0 0 0 0 0 0 0 0 0 0 0 0 0 1 2 3 5 5 4 3 3 5 7
0 0 0 0 0 0 0 0 0 0 0 0 0 0 0 0 0 0 0 0 0 0 0 2 4 3 1 0 0 0 0 0 0 0 0 0 0 0 0 2 3 5 6 6 5 4 3 4 6
0 0 0 0 0 0 0 0 0 0 0 0 0 0 0 0 0 0 0 0 0 0 0 1 2 2 1 0 0 0 0 0 0 0 0 0 1 1 1 2 5 6 6 6 6 4 3 4 6
0 0 0 0 0 0 0 0 0 0 1 1 0 0 1 0 0 0 0 0 0 0 0 1 1 1 0 0 1 1 1 1 0 0 1 1 2 2 2 3 5 6 6 6 5 4 4 5 5
0 0 0 0 0 0 0 0 0 1 2 2 2 3 3 1 0 0 0 0 0 0 1 2 2 1 0 0 0 1 1 1 0 0 1 2 3 3 3 3 4 5 5 5 3 3 4 4 4
0 0 0 0 0 0 0 0 0 1 2 3 5 7 6 2 0 0 0 0 0 0 1 2 2 1 0 0 0 0 1 1 0 0 1 2 3 3 3 3 3 4 3 2 1 2 3 3 3
0 0 0 0 0 0 0 0 0 0 1 3 8 10 7 2 0 0 0 0 0 0 0 1 1 1 0 0 0 0 0 0 0 0 0 1 2 2 2 2 2 2 1 0 1 2 3 3 2
0 0 0 0 0 0 0 0 0 0 1 4 9 10 7 3 1 0 0 0 0 0 0 1 3 3 1 0 0 0 0 0 0 0 0 0 1 1 1 1 1 1 0 1 1 3 3 3 2
0 0 0 0 0 0 0 0 0 0 2 6 9 9 8 5 1 0 0 0 0 1 0 1 4 5 3 1 0 0 0 0 0 0 0 0 0 0 0 0 0 0 0 1 2 2 3 3 3
0 0 0 0 0 0 0 0 0 0 2 6 8 8 8 5 1 0 0 0 0 0 0 0 2 5 6 3 1 0 0 0 0 0 0 0 0 0 0 0 0 0 0 1 1 1 1 2 3
0 0 0 0 0 0 0 0 0 0 2 5 7 8 7 4 1 0 0 0 0 1 1 1 2 4 7 6 3 2 1 0 0 0 0 0 0 0 0 0 0 0 0 0 0 0 1 1 1
0 0 0 0 0 0 0 1 1 2 3 5 6 7 6 3 1 1 1 0 1 2 4 4 3 5 6 7 5 4 4 2 1 1 0 0 0 0 0 0 0 0 0 0 0 1 1 1 1
0 0 0 0 0 0 0 1 2 3 3 5 6 6 5 3 3 3 2 1 1 3 5 6 6 7 8 8 7 7 7 6 4 2 1 1 0 0 0 1 1 1 1 1 1 1 2 1 1
0 0 0 0 0 0 0 1 3 4 3 4 7 7 5 3 4 5 5 4 2 3 5 7 8 10 12 12 12 11 10 8 6 4 3 2 1 1 1 2 2 2 2 2 1 1 1 1 0
0 0 0 0 0 0 0 1 4 4 4 4 6 7 5 4 5 6 6 5 3 4 6 8 9 11 12 12 12 10 9 9 8 6 5 4 3 3 2 2 2 2 3 3 4 3 2 1 1
0 0 0 0 0 0 0 1 3 4 3 4 5 4 4 4 4 6 6 4 3 4 6 8 10 11 11 10 9 8 8 9 8 6 4 4 5 4 2 3 3 2 3 5 7 6 5 4 4
0 0 0 0 0 0 0 1 2 3 3 3 3 2 2 4 5 6 7 5 3 3 5 7 10 13 13 10 8 8 8 9 9 6 3 3 3 3 3 3 4 4 5 7 9 8 8 7 5
0 0 0 0 0 0 0 0 1 2 2 3 2 1 2 5 6 7 8 7 5 4 4 6 11 16 17 12 9 10 10 9 9 7 4 3 2 3 4 4 6 6 7 9 10 9 8 7 6
1 1 0 0 0 0 0 0 0 1 1 2 3 3 4 7 9 9 9 8 7 6 6 9 14 18 19 15 11 10 11 12 12 10 8 6 5 6 8 9 11 11 10 11 11 11 9 8 7
2 1 0 0 0 0 0 0 1 2 2 3 5 6 7 9 10 11 11 11 12 11 10 14 21 22 20 16 13 11 12 15 14 12 10 9 8 9 12 14 15 15 13 12 13 14 12 10 9
2 1 0 0 0 1 1 1 1 3 5 6 6 7 9 12 13 14 14 16 19 19 18 21 27 27 22 18 16 13 13 13 13 11 9 8 8 8 10 11 12 14 14 14 17 18 15 12 11
1 0 0 0 1 1 2 1 2 4 6 8 9 11 14 17 18 18 17 19 23 25 24 26 29 29 25 22 20 17 13 11 10 10 9 8 8 7 6 6 8 12 15 17 20 20 17 14 12
1 1 1 1 1 2 2 1 2 4 8 11 16 19 22 25 25 24 21 22 25 28 29 30 30 29 28 26 24 20 17 15 14 13 12 11 9 8 7 7 10 12 15 17 19 19 18 16 15
4 4 3 2 2 2 1 1 3 6 9 14 20 24 29 31 32 30 28 28 30 32 34 35 33 30 29 29 27 25 23 22 20 18 16 15 12 10 10 11 11 12 13 15 16 17 18 19 19
6 6 5 3 2 2 2 2 4 7 10 15 19 25 31 34 35 35 34 34 34 35 38 38 35 32 30 29 29 28 27 26 24 20 19 17 15 13 12 12 11 11 13 15 16 17 19 22 21

GEFSSGP_con_probscp_228.txt.gz
Probability
16 19 31 43 34 11 1 0 0 0 0 0 0 0 0 0 0 0 0 0 0 1 2 2 3 3 2 2 1 0 1 2 2 1 1 2 2 1 0 0 0 0 0 0 0 0 0 0 0
17 27 43 43 24 6 0 0 0 0 0 0 0 0 0 0 0 0 0 0 1 2 2 1 2 2 1 1 0 0 0 1 1 0 0 1 1 0 0 0 0 0 0 0 0 0 0 0 0
26 43 51 34 11 1 0 0 0 0 0 0 0 0 0 0 0 0 0 1 2 4 2 1 1 1 1 0 0 0 0 1 1 0 0 0 0 0 0 0 0 0 0 0 0 0 0 0 0
43 51 42 17 3 0 0 0 0 0 0 0 0 0 0 0 0 0 0 1 3 3 2 1 0 0 0 0 0 0 0 1 1 0 0 0 0 0 0 0 0 0 0 0 0 0 0 0 0
50 42 22 6 0 0 0 0 0 0 0 0 0 0 0 0 0 0 0 1 2 3 2 0 0 0 0 0 0 0 0 0 0 0 0 0 0 0 0 0 0 0 0 0 0 0 0 0 1
41 27 9 1 0 0 0 0 0 0 0 0 0 0 0 0 0 0 0 1 3 4 3 2 0 0 0 0 0 0 0 0 0 0 0 0 0 0 0 0 0 0 1 1 0 0 1 1 2
25 15 4 0 0 0 0 0 0 0 0 0 0 0 0 0 0 0 0 1 3 5 5 4 3 2 1 0 1 1 1 0 0 0 0 0 0 0 0 0 1 1 2 2 1 1 2 3 4
9 5 1 0 0 0 0 0 0 0 0 0 0 0 0 0 0 0 0 1 2 4 6 6 6 5 3 2 1 1 1 0 0 0 0 0 0 0 0 1 2 3 4 3 2 2 3 3 4
1 0 0 0 0 0 0 0 0 0 0 0 0 0 0 0 0 0 0 0 1 3 5 6 7 7 5 3 3 2 1 1 0 0 0 0 0 0 0 1 4 5 6 5 3 3 3 3 3
0 0 0 0 0 0 0 0 0 1 2 2 2 2 1 0 1 0 0 0 1 2 5 6 7 6 5 4 3 2 2 2 2 1 0 0 0 0 1 2 5 6 6 5 4 3 2 2 3
0 0 0 0 0 0 0 0 0 1 3 4 4 4 1 0 0 0 1 1 1 2 5 6 6 6 4 4 3 2 2 3 4 3 1 0 0 1 2 2 4 5 5 3 3 2 2 3 5
0 0 0 0 0 0 0 0 0 1 2 4 6 4 2 0 0 0 1 3 3 4 6 7 7 6 6 5 4 3 3 3 4 3 2 1 1 2 2 1 2 2 2 1 1 1 3 4 5
0 0 0 0 0 0 0 0 0 1 2 4 4 3 2 1 1 1 2 4 5 6 8 8 7 8 7 6 5 4 4 2 2 3 3 2 1 2 1 0 0 0 0 0 0 1 2 3 2
0 0 0 0 0 0 0 0 1 2 3 3 3 2 3 3 2 3 5 6 7 7 8 8 8 9 9 7 6 5 3 2 1 2 4 3 2 1 0 0 0 0 0 0 0 0 1 1 0
0 0 0 0 0 0 0 0 1 2 3 3 3 3 4 4 4 6 9 9 8 8 8 8 9 11 12 10 7 4 2 1 1 2 5 4 2 1 1 0 0 0 0 0 0 0 0 0 0
0 0 0 0 0 0 0 0 1 1 2 3 4 4 5 4 4 8 11 10 10 11 11 10 9 11 13 12 8 4 2 1 2 4 5 5 2 1 1 0 1 2 1 1 0 0 0 0 0
0 0 0 0 0 0 0 1 2 2 3 4 5 5 5 4 4 7 10 11 14 17 17 14 11 12 13 13 11 8 4 3 3 6 9 8 5 3 1 1 2 3 3 2 1 0 0 0 1
0 0 0 0 0 0 0 1 3 3 4 6 7 8 7 5 5 6 9 13 18 24 24 20 16 14 13 13 12 10 6 4 5 9 14 15 12 8 5 3 2 2 3 3 2 1 1 1 1
0 0 0 0 0 0 0 1 3 4 5 7 11 12 11 9 10 11 12 15 22 29 31 26 21 17 15 14 13 10 8 7 7 11 17 21 18 15 11 7 5 4 4 5 5 4 3 2 2
0 0 0 0 0 0 0 1 4 4 4 7 11 15 15 15 18 21 20 19 23 31 34 31 26 21 17 15 14 13 9 9 11 14 19 22 21 18 14 11 9 7 8 9 8 7 5 4 3
0 0 0 0 0 0 0 2 5 6 7 8 10 13 16 20 27 30 25 21 23 29 33 32 31 27 20 18 17 15 11 10 13 16 21 23 22 19 16 15 13 12 12 11 10 10 7 4 3
0 0 0 0 0 0 0 2 6 9 11 12 11 12 15 22 31 34 28 22 22 26 30 34 37 34 27 22 20 16 12 10 13 17 21 23 23 22 20 18 17 16 14 12 11 11 9 5 4
0 0 0 0 0 0 0 2 6 11 14 13 12 13 16 23 33 38 34 27 23 23 27 35 43 42 33 25 23 19 14 12 16 21 23 22 23 24 23 21 20 20 17 15 13 12 12 9 7
0 0 0 0 0 0 0 1 5 9 11 11 12 16 20 25 36 41 41 38 31 26 30 40 48 47 39 31 28 25 20 18 22 26 25 21 20 23 25 23 23 24 22 20 18 17 16 14 11
0 0 0 0 0 0 0 2 5 7 7 9 13 20 26 31 37 42 47 50 44 39 43 51 55 52 44 38 36 34 30 26 25 26 24 18 17 22 25 25 25 26 25 25 24 22 20 17 16
0 1 1 1 1 0 1 3 5 6 6 8 14 24 33 36 38 42 49 54 54 54 57 61 60 56 49 44 42 41 37 30 24 24 22 17 16 20 24 25 25 26 25 25 25 23 20 19 18
0 1 2 2 1 0 1 4 6 6 7 10 17 28 37 40 39 42 46 49 53 58 62 64 62 57 51 47 45 43 39 31 24 22 20 17 16 18 21 23 24 25 24 23 24 21 18 17 18
1 2 3 3 2 0 1 4 7 9 11 14 21 31 39 42 43 45 47 47 48 53 60 62 62 58 52 48 45 43 39 33 27 23 19 18 19 19 20 22 23 24 23 22 21 19 17 17 17
1 2 3 3 2 1 1 4 9 13 15 19 26 34 40 44 47 51 52 50 49 51 57 62 63 60 55 50 46 44 40 36 32 29 26 26 26 25 24 24 24 23 22 20 20 18 18 18 17
1 2 3 3 3 1 1 5 11 15 18 23 31 37 42 46 50 55 55 53 52 53 58 63 63 61 58 54 49 45 43 40 38 35 35 35 34 32 28 25 24 23 21 20 20 19 19 18 16

GEFSSGP_con_probscp_234.txt.gz
Probability
21 11 2 0 0 0 0 0 0 0 0 0 0 0 0 0 0 0 0 0 0 0 1 2 2 1 0 0 0 0 0 0 1 2 2 1 0 0 0 0 0 0 0 0 0 0 0 1 3
14 8 2 1 0 0 0 0 0 0 0 0 0 0 0 0 0 0 0 0 0 0 0 1 2 1 0 0 0 0 0 0 0 1 1 1 0 0 0 0 0 0 0 0 0 0 0 2 3
6 6 4 2 1 0 0 0 0 0 0 0 0 0 0 0 0 0 0 0 0 0 0 1 2 1 0 0 0 0 0 0 0 0 0 0 0 0 0 0 0 0 0 0 0 0 0 1 2
5 7 6 3 1 0 0 0 0 0 0 0 0 0 0 1 2 2 1 0 0 0 0 2 3 3 1 0 0 0 0 0 0 0 0 0 0 0 0 0 0 0 0 0 0 0 0 0 1
5 6 4 2 0 0 0 0 0 0 0 0 0 0 0 1 3 3 1 0 0 0 0 2 3 3 2 0 0 0 0 0 0 0 0 0 0 0 1 1 1 0 0 0 0 0 0 0 0
3 2 1 0 0 0 1 1 1 0 0 0 0 0 1 2 2 1 0 0 0 0 0 1 3 3 1 1 0 0 0 0 0 0 0 0 0 0 1 2 2 1 0 0 0 0 0 0 0
2 1 0 0 0 1 2 2 1 1 0 0 0 0 1 2 2 0 0 0 0 0 1 2 3 3 2 1 1 0 0 0 0 0 0 1 0 0 1 2 2 1 0 0 0 0 0 0 1
2 1 0 0 0 1 1 1 1 1 1 0 0 0 1 2 2 1 0 0 0 0 1 2 3 3 2 1 1 1 1 0 0 0 0 0 0 0 0 1 1 1 0 0 0 0 0 1 2
2 1 0 0 0 0 1 1 1 2 3 2 1 1 1 3 3 2 1 1 0 0 1 1 2 2 1 0 0 1 1 1 1 0 0 0 0 0 0 0 0 0 1 1 1 1 1 2 3
1 0 0 0 0 1 2 2 2 4 5 3 3 3 4 5 5 4 3 2 1 0 0 1 1 1 0 0 0 0 0 0 0 0 0 0 0 0 0 0 1 1 1 2 2 2 2 3 3
0 0 0 0 0 1 2 2 2 3 4 4 5 7 9 8 7 7 7 5 3 2 1 1 0 0 0 0 0 0 0 0 0 0 0 0 0 0 0 1 2 2 1 1 1 1 1 1 1
0 0 0 0 0 0 1 1 1 3 3 4 7 10 11 8 7 8 8 6 4 3 3 1 1 1 0 0 0 0 0 0 0 0 0 0 0 0 0 1 2 1 0 0 0 0 0 0 0
0 0 0 1 1 0 0 1 2 4 4 5 7 9 9 7 6 6 6 5 4 4 3 3 3 2 1 0 0 0 0 0 0 0 0 0 0 0 0 1 1 1 0 0 0 0 0 0 0
0 0 0 1 1 0 0 1 3 5 6 6 6 6 6 6 5 5 4 4 5 4 4 4 4 3 1 0 0 0 0 0 0 0 0 0 0 0 0 0 0 0 0 0 0 0 0 0 0
0 0 0 1 1 0 0 1 2 5 7 7 5 4 4 5 5 5 6 6 6 5 4 4 5 3 1 1 1 0 0 0 0 0 0 0 0 0 0 0 0 0 0 0 0 0 0 0 0
0 0 0 0 0 0 0 0 2 5 7 7 6 5 5 6 6 7 7 7 6 6 5 4 5 4 2 2 2 1 0 0 0 0 0 0 0 0 1 0 0 0 0 0 0 0 0 0 0
0 0 0 0 0 0 0 0 1 4 7 8 7 7 7 7 7 7 7 6 6 6 5 5 6 6 4 2 2 1 0 0 0 0 0 0 0 0 0 0 0 0 0 0 0 0 0 0 0
0 0 0 0 0 0 0 0 1 3 7 9 8 8 9 9 8 7 6 6 7 6 5 6 8 8 5 3 2 1 1 0 0 0 0 0 0 0 0 0 0 0 0 0 0 0 0 0 0
0 0 0 0 0 1 0 0 1 3 7 9 8 8 9 9 8 6 6 6 8 8 8 9 10 9 6 4 3 1 1 1 0 0 0 0 0 0 0 0 0 0 0 0 0 0 0 0 0
0 0 0 0 0 0 0 0 1 3 6 8 8 8 8 7 6 6 6 8 12 13 12 11 12 10 7 5 3 1 1 1 0 0 0 0 0 1 1 1 1 0 1 1 1 0 1 1 0
0 0 0 0 0 0 0 0 0 2 5 8 9 8 8 7 6 6 7 13 18 19 16 13 12 12 10 8 5 3 2 1 1 0 0 0 1 2 3 3 2 2 2 3 3 2 2 2 1
0 0 0 0 0 0 0 0 0 2 7 10 10 10 10 10 10 10 12 18 24 23 19 14 12 12 13 12 9 7 5 3 2 1 1 0 1 4 6 6 4 3 3 5 5 5 4 3 3
0 0 0 0 0 0 0 0 1 4 8 11 12 11 12 13 15 16 18 22 25 23 19 16 13 13 14 15 13 10 8 6 5 4 2 2 3 5 8 8 6 4 4 5 6 7 5 3 2
1 1 0 0 0 0 0 0 2 5 8 11 14 14 15 16 19 21 23 24 25 23 21 18 17 17 17 17 16 13 10 8 7 6 5 4 4 5 7 7 6 6 6 6 6 6 4 2 1
0 0 0 0 0 0 0 0 1 3 7 12 17 18 18 20 21 23 25 25 26 26 24 22 20 20 21 21 19 15 11 10 9 7 6 6 5 5 6 7 7 7 6 6 6 5 4 2 1
0 0 0 0 0 0 0 0 1 4 7 13 18 20 21 23 25 26 25 25 27 26 25 23 23 23 23 22 20 17 13 11 10 8 8 8 6 5 5 7 8 7 7 6 6 4 3 3 2
0 0 0 0 0 0 0 0 2 6 10 16 21 23 25 27 30 30 27 28 29 29 27 27 27 27 24 22 20 17 15 13 12 11 11 10 7 5 5 7 8 8 7 6 4 2 2 3 3
0 0 0 0 0 0 0 0 2 6 12 19 23 25 27 29 32 33 31 32 35 36 33 31 31 29 26 23 21 17 15 15 15 14 13 11 9 6 6 6 7 7 6 4 2 1 1 1 2
0 0 0 0 0 0 0 1 3 6 12 17 22 25 25 25 29 33 34 36 40 42 38 34 32 31 29 26 23 20 17 17 17 16 15 14 11 9 7 6 6 6 5 2 1 0 0 0 1
0 0 0 0 0 0 1 3 4 8 10 14 20 24 23 22 27 32 34 37 41 44 42 36 32 31 32 28 25 23 21 19 18 17 17 16 13 10 9 6 5 4 3 2 1 1 0 0 0